GFSCGP_250_spd_003.txt.gz
Wind_Speed
22 21 23 18 19 19 19 23 24 25 26 25 25 27 29 31 32 32 32 35 38 41 39 40 41 40 41 42 42 44 46 45 46 49 53 54 55 58 60 65 70 76 80 85
20 22 22 22 21 21 23 23 24 26 26 25 26 28 30 32 33 35 36 34 32 33 34 33 33 35 36 37 39 41 42 44 46 51 55 58 61 65 68 71 75 78 81 84
22 22 21 21 21 22 22 22 22 21 21 22 24 26 26 28 29 27 25 26 27 27 25 26 28 31 34 36 39 41 45 49 52 55 58 60 61 63 65 68 70 73 76 79
21 21 20 19 19 21 21 20 20 21 20 19 20 20 19 20 19 18 18 19 19 19 20 22 25 31 36 39 42 44 45 46 46 48 52 56 59 61 64 67 70 72 75 78
20 19 19 19 19 19 20 19 15 14 12 14 16 19 21 20 17 15 16 16 15 19 22 22 25 29 31 35 38 42 44 45 48 51 54 57 60 63 65 68 71 73 75 77
18 17 14 15 19 20 16 12 12 13 15 16 14 15 17 14 14 13 13 15 17 20 23 26 28 32 35 39 42 46 49 51 53 56 59 62 64 66 68 68 70 72 73 72
15 14 16 18 18 16 13 15 14 10 9 13 13 15 15 11 9 9 13 18 22 26 29 32 34 38 41 44 48 52 55 57 59 61 63 65 67 68 69 69 68 68 70 77
16 15 13 12 11 9 8 8 6 3 3 3 2 3 5 8 11 13 16 20 24 28 30 33 37 39 43 47 50 54 56 59 61 63 64 65 64 64 65 67 70 74 78 84
15 13 12 10 11 12 13 12 10 7 2 1 4 6 8 11 14 17 18 21 23 27 32 36 40 44 48 51 53 55 57 58 59 59 61 62 63 65 67 70 74 79 85 89
10 10 13 17 18 17 14 11 8 6 5 5 8 10 12 14 15 17 20 24 28 32 39 43 45 47 50 52 55 56 56 57 59 60 59 62 64 65 69 74 79 85 90 95
14 18 21 20 17 13 10 8 7 6 5 6 8 12 14 17 20 22 24 29 33 38 43 46 49 51 54 55 57 60 60 60 60 61 61 62 64 68 73 79 84 90 94 100
23 21 18 16 13 10 7 5 6 7 7 9 12 15 19 21 23 25 29 34 37 41 47 51 51 49 51 55 59 61 60 60 61 62 62 65 68 73 80 84 88 93 99 107
20 18 15 12 9 7 7 7 9 11 12 15 18 21 22 25 27 30 34 39 41 45 51 54 57 58 58 60 62 64 63 60 59 60 64 69 76 81 86 90 94 100 107 111
16 14 11 9 8 8 9 10 13 15 18 21 23 27 28 30 33 36 41 44 45 52 56 59 63 65 66 67 68 70 68 65 65 68 71 76 81 86 93 97 103 108 113 117
14 12 11 11 11 10 12 14 18 20 25 25 27 31 31 34 35 41 46 47 51 57 62 64 66 70 70 70 71 74 72 69 72 76 79 85 88 95 99 104 110 115 117 116
12 13 15 14 14 15 18 22 24 27 29 29 32 38 37 36 40 47 51 53 57 62 65 67 69 73 73 72 74 77 76 76 79 82 87 91 96 101 106 111 115 117 117 117
18 19 18 17 18 20 24 31 30 32 33 35 37 41 38 39 45 52 56 59 64 68 70 72 74 76 75 76 78 80 80 82 84 89 94 98 103 108 111 114 117 118 116 115
22 23 22 23 25 24 32 37 36 34 38 40 42 41 41 46 51 57 60 64 69 71 73 76 78 78 80 81 83 84 84 86 90 95 100 105 108 111 113 114 115 113 112 111
25 26 26 27 30 30 34 38 40 41 42 45 44 45 48 52 56 61 63 69 72 74 77 79 81 82 84 86 87 87 89 92 96 101 106 110 111 113 113 115 111 112 111 109
28 30 30 32 32 32 37 41 43 45 43 48 51 51 54 58 61 66 68 71 75 78 80 84 84 86 89 89 89 92 95 98 102 107 111 113 113 112 112 109 109 111 109 106
32 33 35 36 36 36 40 43 45 48 49 51 53 56 60 63 68 70 72 75 80 83 85 85 88 91 92 91 93 96 99 103 108 111 112 112 112 110 109 109 109 109 106 103
35 36 38 39 40 42 45 47 50 52 53 54 57 60 63 67 71 72 75 81 85 86 86 90 91 92 93 95 97 100 105 109 111 112 112 111 108 108 107 109 108 105 105 99
40 42 43 47 49 50 51 51 53 55 58 62 64 67 69 72 74 76 81 85 86 87 91 90 92 95 95 98 101 106 110 111 112 112 110 104 104 106 108 107 105 104 101 95
44 47 49 51 53 55 55 57 60 62 64 67 70 72 74 77 80 83 87 87 89 89 92 93 95 98 101 105 108 110 111 113 112 107 101 102 105 107 106 105 103 102 96 88
46 48 49 50 55 57 63 66 66 68 72 74 75 79 82 84 85 85 86 88 89 92 96 97 101 105 109 112 112 112 112 107 104 102 101 104 106 106 105 103 101 96 90 82
56 56 56 58 62 63 66 69 71 74 77 81 84 85 85 84 85 87 88 91 94 96 100 103 107 111 113 114 112 109 104 102 102 103 105 105 104 104 102 100 97 90 83 78

GFSCGP_250_spd_006.txt.gz
Wind_Speed
32 32 31 27 24 26 25 26 26 25 25 24 27 27 29 28 28 29 29 28 29 31 33 36 39 41 42 42 45 45 47 47 46 47 50 52 54 57 60 63 65 66 67 69
31 30 27 24 25 27 25 24 23 24 24 23 25 26 26 27 28 28 29 30 31 32 34 34 34 35 35 38 39 39 40 43 44 46 50 53 54 56 58 60 62 65 68 71
26 26 23 25 26 24 22 22 23 23 25 26 28 28 26 24 24 25 27 28 28 28 27 27 28 29 30 31 34 37 39 41 43 45 48 51 54 57 60 64 66 68 71 74
24 24 25 27 25 24 24 24 25 24 23 23 24 24 23 22 21 22 21 19 19 20 21 21 22 26 28 31 31 34 37 40 43 47 51 55 58 60 64 67 69 72 74 77
24 24 24 24 25 24 23 23 22 19 19 24 24 21 21 18 14 12 12 15 16 16 17 19 19 21 25 28 32 36 41 44 48 52 56 59 62 65 67 70 73 74 74 73
20 21 23 24 21 22 21 20 20 21 21 21 19 17 16 9 10 12 13 10 8 10 13 17 23 26 30 34 36 39 43 47 50 54 57 60 63 64 65 65 64 64 64 64
21 21 22 21 20 18 17 20 19 17 16 14 11 13 11 10 8 5 7 9 12 15 19 21 24 28 31 35 39 42 46 48 50 51 53 55 58 60 62 63 64 66 66 68
22 21 18 15 15 18 20 17 15 14 13 9 7 6 3 2 4 8 11 13 15 16 17 20 25 30 34 39 43 46 47 50 52 54 58 61 62 63 65 66 67 68 69 72
21 18 17 20 21 20 20 17 15 14 11 8 5 3 4 6 8 11 13 14 15 18 23 27 30 34 39 40 44 48 52 55 56 56 58 60 61 62 64 65 66 68 72 76
20 21 21 21 19 17 14 13 12 9 7 5 5 5 6 8 11 13 15 17 21 25 29 32 34 39 43 47 49 53 56 58 60 61 63 64 64 62 62 64 67 71 76 82
17 17 18 19 18 18 17 14 11 9 7 7 7 8 10 13 16 18 20 23 26 30 34 37 39 45 49 52 56 60 63 64 63 64 66 69 69 66 67 71 75 79 85 90
19 21 23 22 22 19 16 12 10 9 9 10 12 12 14 16 19 23 26 29 32 35 38 40 43 49 54 57 61 65 68 69 68 67 68 70 70 70 74 78 82 86 92 97
24 26 24 22 19 16 14 14 14 13 13 15 17 19 19 23 26 28 32 35 38 41 45 46 49 55 59 62 65 68 71 72 72 72 73 74 74 76 81 85 89 94 99 102
25 24 21 18 16 16 15 14 14 14 15 20 22 24 26 29 32 34 36 37 40 45 50 53 55 59 63 66 69 72 74 76 75 77 78 79 79 84 87 91 96 101 104 105
24 23 21 19 16 15 15 14 17 18 21 25 27 30 28 29 35 37 40 41 44 49 55 58 60 64 66 69 73 77 78 78 80 83 84 83 86 89 93 98 103 107 108 111
22 23 22 21 20 18 17 20 22 22 26 29 30 36 34 36 38 41 43 45 48 54 59 62 65 68 70 73 78 81 80 83 86 85 86 88 90 95 100 105 108 109 112 112
24 25 25 25 22 20 22 25 26 28 31 32 34 37 39 41 43 45 46 48 54 59 62 67 72 74 76 78 82 84 84 87 86 89 90 92 97 102 107 109 111 112 111 107
28 28 27 27 24 22 29 31 32 33 36 35 37 40 42 44 46 48 51 54 60 64 68 73 76 78 79 82 86 86 88 88 91 92 95 99 103 108 112 113 111 107 105 105
29 29 28 28 29 29 32 35 38 37 38 38 41 43 44 48 51 54 55 60 64 67 71 76 79 81 83 87 87 89 89 92 94 97 101 106 109 112 114 111 105 104 105 106
30 30 30 31 31 33 37 38 40 41 41 43 46 47 51 54 56 58 60 65 68 72 76 78 82 84 86 86 89 91 94 95 99 103 105 110 112 111 107 104 103 103 104 106
31 32 33 34 35 37 39 40 42 44 45 48 51 53 55 59 60 63 67 70 75 77 80 84 85 84 86 89 91 94 97 101 105 108 110 111 109 105 103 101 102 105 106 104
34 34 37 38 39 40 43 44 47 50 53 55 56 58 60 62 66 69 73 77 80 84 85 82 82 85 88 91 93 99 102 106 108 109 108 103 102 103 105 105 105 105 103 101
38 39 41 43 45 47 45 48 51 52 54 56 59 62 64 68 71 74 77 82 85 81 82 83 85 87 92 97 101 104 105 110 108 103 100 104 105 105 106 105 102 101 102 99
44 46 49 49 48 48 49 50 51 54 58 63 64 67 69 73 76 79 82 81 80 82 84 87 91 94 97 102 107 109 108 104 100 101 102 105 107 107 104 101 101 102 101 98
48 48 47 47 51 52 55 57 59 63 67 68 69 73 75 78 80 80 80 81 83 85 89 92 97 99 103 106 104 103 100 100 100 105 108 110 111 108 104 103 102 101 98 93
47 48 51 53 56 58 62 65 67 70 72 74 75 76 79 81 82 83 83 85 88 92 95 99 102 107 109 106 107 105 105 108 112 116 114 112 107 103 103 101 99 97 91 87

GFSCGP_250_spd_009.txt.gz
Wind_Speed
30 34 34 35 33 27 28 27 25 22 24 28 30 30 31 28 28 29 29 29 30 31 30 30 33 36 40 43 46 47 49 52 54 55 56 55 54 54 54 54 55 58 61 65
32 33 35 34 31 29 27 24 24 24 27 28 29 28 27 29 29 29 31 32 33 32 33 33 35 36 38 40 42 44 46 46 45 43 43 45 46 49 52 57 61 65 69 71
32 33 35 33 31 27 25 26 25 26 26 25 26 26 27 28 28 29 29 30 30 31 31 33 34 35 35 36 36 34 32 32 35 39 43 46 50 55 59 63 67 70 75 78
35 35 32 33 28 25 25 27 26 26 26 25 25 27 28 26 25 27 27 27 28 28 28 29 29 25 21 22 23 27 30 33 38 42 46 50 53 54 58 60 62 66 68 71
24 30 31 30 28 26 28 26 26 26 24 25 22 21 21 23 20 22 24 25 25 20 19 18 16 15 18 20 23 27 31 36 40 44 48 51 53 54 55 57 59 62 64 66
29 28 25 24 25 26 27 27 29 27 24 24 21 20 22 16 13 21 20 18 14 12 13 13 14 15 18 22 26 30 34 38 40 43 47 50 53 55 59 59 60 63 66 67
26 27 28 27 27 28 29 26 23 24 23 18 14 17 17 13 20 20 14 12 13 13 13 13 14 17 22 26 30 33 37 41 43 47 51 53 54 56 56 59 62 65 66 66
26 26 26 26 25 25 23 22 21 19 17 14 14 17 12 15 16 13 13 12 11 12 13 15 18 23 27 30 34 38 43 48 51 53 57 59 60 61 62 63 68 70 70 69
28 27 26 24 22 21 19 18 17 17 14 13 11 10 10 10 10 10 11 11 13 15 17 20 23 27 32 35 39 43 47 51 54 57 61 65 68 70 71 71 74 75 73 74
24 23 22 22 21 20 17 17 16 15 14 14 14 12 10 9 10 11 13 15 18 21 25 28 31 33 37 40 43 48 52 56 58 62 64 68 70 72 72 74 76 76 78 81
22 23 22 21 20 19 19 19 18 17 17 16 14 11 9 10 13 15 18 22 25 28 33 35 37 40 43 45 48 52 56 60 63 65 67 72 73 73 76 77 79 82 84 88
23 22 24 22 22 21 20 18 17 16 15 13 12 13 14 16 18 19 22 26 28 32 37 41 42 44 49 51 53 57 61 65 69 71 72 76 77 79 81 82 85 87 90 96
23 24 24 24 25 24 22 21 20 19 17 17 18 18 21 22 24 27 30 33 35 39 43 42 43 47 52 57 58 62 68 72 75 75 77 80 82 83 84 87 90 93 98 103
24 25 26 26 23 23 23 22 21 20 19 21 22 24 24 26 29 31 34 36 38 44 46 46 47 50 59 62 64 69 74 77 78 80 82 84 85 87 89 93 96 100 104 108
27 28 29 25 25 23 22 22 23 23 23 25 27 28 28 30 34 37 39 42 45 47 49 49 51 58 63 66 70 73 77 80 82 85 86 86 88 90 94 97 102 106 109 111
29 29 28 27 26 24 24 26 26 26 26 27 29 33 33 37 38 40 40 43 46 49 52 55 60 62 64 68 73 77 80 84 87 86 87 89 91 96 99 103 107 111 112 110
30 29 29 29 28 28 29 29 27 29 31 31 33 37 40 42 42 43 45 46 49 53 57 60 61 65 69 73 79 81 85 85 85 87 89 91 95 99 104 108 110 111 106 101
32 30 31 33 31 30 33 32 31 33 35 35 38 43 43 43 45 47 48 51 55 59 63 63 67 72 76 80 83 85 83 84 87 90 93 97 100 105 110 109 107 102 100 104
34 33 34 35 36 35 36 37 37 37 40 39 44 45 45 47 50 54 53 58 63 66 66 69 74 77 80 84 83 84 85 87 90 95 99 101 105 108 107 103 102 104 105 108
34 35 36 37 37 37 38 38 40 43 43 44 48 49 51 53 56 60 62 64 65 68 69 74 78 80 84 84 84 85 87 91 96 99 102 105 108 104 103 104 107 109 108 103
36 37 37 38 38 39 40 42 42 43 47 47 50 53 55 58 61 59 64 68 70 72 75 79 82 84 85 84 85 87 92 96 99 104 107 109 107 106 105 106 107 105 103 98
37 37 39 40 41 41 43 43 47 47 50 53 55 56 56 57 61 66 69 72 74 78 79 82 86 86 87 89 90 93 98 102 105 107 104 104 106 109 110 109 108 105 102 106
39 40 42 44 44 43 44 47 49 52 56 57 56 57 60 62 67 71 72 77 80 80 83 86 86 89 90 91 94 100 104 107 108 108 108 105 108 111 113 113 112 112 110 112
41 43 43 45 46 47 50 53 55 57 56 58 60 63 66 70 73 76 78 81 82 83 88 88 90 92 93 95 99 103 107 107 105 105 107 113 116 116 115 114 114 116 111 102
44 44 46 48 51 51 54 54 55 59 59 61 66 70 72 77 79 81 84 83 85 90 91 91 93 94 97 102 104 109 107 106 107 108 112 114 115 118 119 115 108 102 101 98
48 48 49 48 48 52 55 56 59 60 64 69 73 77 79 82 85 86 85 90 93 91 92 95 96 100 103 106 109 108 107 107 110 113 114 115 117 116 112 108 103 99 95 90

GFSCGP_250_spd_015.txt.gz
Wind_Speed
16 21 24 26 31 34 33 35 39 30 25 22 26 27 26 23 22 19 21 10 23 28 31 31 33 35 38 43 48 49 45 49 54 59 62 64 65 64 63 65 69 71 72 70
19 23 26 32 33 34 32 25 24 23 23 22 23 29 23 28 31 28 30 28 30 31 33 35 32 39 40 39 45 51 49 48 48 52 54 59 59 59 57 57 56 58 58 57
18 22 27 35 31 34 28 26 22 26 26 28 24 24 24 28 29 29 31 35 39 43 39 36 36 36 39 40 43 47 46 48 49 49 47 45 44 44 47 48 48 50 53 56
18 21 24 30 34 27 26 23 21 23 24 22 26 21 24 27 31 34 30 32 35 35 35 35 36 36 36 37 37 39 40 37 38 37 36 38 39 40 41 44 47 51 55 57
19 18 19 25 28 24 24 25 24 23 25 25 25 27 26 28 32 23 25 26 16 18 19 25 27 27 27 28 30 31 32 31 33 37 38 38 38 41 43 47 51 54 58 61
15 17 19 21 26 25 25 26 28 23 23 24 30 22 23 28 25 27 26 26 27 23 22 29 28 25 25 23 25 28 31 33 36 38 40 42 45 48 51 54 57 61 65 68
18 19 21 22 22 26 26 30 27 26 28 28 24 26 27 28 20 18 21 28 28 25 26 29 27 22 22 24 25 29 33 36 41 44 45 47 50 53 55 59 64 69 72 75
22 19 19 20 26 25 30 26 23 27 27 28 25 28 29 24 17 20 27 30 25 31 26 29 25 26 27 26 25 29 35 40 46 49 51 52 55 60 63 67 68 70 76 80
24 25 24 26 25 28 28 24 27 28 25 27 27 26 20 21 22 23 34 31 29 33 28 28 24 25 29 29 32 34 39 44 49 52 53 54 59 64 68 68 71 77 81 85
21 28 26 29 26 27 27 29 28 27 26 24 25 24 23 25 21 19 27 31 31 33 30 26 27 29 32 35 37 38 39 45 51 54 57 60 65 65 67 72 77 82 86 88
27 30 32 32 26 30 34 31 28 24 23 23 28 23 27 23 21 19 21 24 27 27 27 26 28 31 37 41 44 45 44 47 53 58 61 61 62 67 72 78 81 86 88 88
24 27 30 28 30 29 31 29 23 23 24 24 27 25 23 21 20 21 21 24 27 28 29 30 32 34 39 43 47 52 51 53 56 63 67 66 67 73 79 82 85 89 90 90
22 25 25 24 27 25 25 22 24 24 25 28 25 22 23 21 22 25 27 27 28 30 32 35 37 38 41 45 49 53 56 59 62 63 66 70 72 80 83 86 89 92 90 92
25 26 24 25 26 24 24 25 27 27 30 26 27 21 26 23 25 29 30 32 31 32 34 36 39 41 42 46 50 56 60 62 63 66 70 73 79 85 88 89 95 92 93 95
26 28 27 27 28 25 26 26 27 30 32 26 27 27 26 25 27 30 33 36 38 43 42 41 43 46 47 51 55 59 62 65 69 75 78 79 85 87 91 95 92 94 96 100
25 25 25 27 26 24 27 29 32 34 29 29 27 26 28 28 31 33 36 34 37 44 52 53 52 53 57 59 61 63 68 70 77 81 85 87 89 91 96 95 96 98 101 107
26 28 27 29 29 31 30 36 31 29 28 28 28 28 30 31 34 36 40 44 46 48 51 56 59 61 63 62 66 69 71 75 82 87 90 92 93 97 96 98 101 104 109 110
29 29 28 30 29 30 36 32 31 31 29 30 31 32 35 38 39 41 44 47 51 52 53 56 61 68 68 69 71 73 76 82 87 89 92 95 96 96 99 102 106 111 112 111
33 28 28 30 30 32 32 35 32 31 33 35 38 38 40 45 46 47 50 52 55 56 58 60 65 68 71 75 78 81 84 88 91 93 97 94 94 98 101 108 111 114 114 114
32 27 29 31 31 32 32 36 36 35 34 40 43 45 46 49 52 52 54 56 57 61 66 68 70 71 73 76 81 86 89 91 93 97 96 96 98 101 108 114 116 118 115 113
32 30 30 29 32 34 34 38 37 38 39 42 47 48 51 52 55 57 60 59 60 64 71 71 72 75 78 82 87 91 92 93 97 101 98 99 103 109 113 118 118 119 120 119
36 33 30 31 34 38 39 40 41 42 43 45 47 49 51 55 59 61 61 62 63 65 70 75 78 82 85 89 92 94 95 98 103 101 101 104 109 113 118 121 122 120 118 118
39 36 33 32 34 37 38 39 42 42 45 48 48 51 55 58 59 60 61 63 65 70 74 78 83 87 91 94 95 96 99 104 105 102 105 110 114 120 122 123 122 120 117 115
41 40 37 36 38 38 37 41 42 46 49 51 53 56 59 59 61 62 65 69 73 75 79 82 87 90 94 96 98 100 103 105 103 106 110 114 119 123 124 122 119 117 115 112
42 42 41 43 42 40 41 43 47 50 53 53 57 60 60 63 64 67 71 75 79 82 86 88 90 94 96 98 100 103 106 104 106 110 115 118 123 125 121 118 116 114 113 108
43 42 46 43 44 42 43 46 49 52 55 56 60 62 64 66 69 74 77 81 85 88 90 91 94 95 97 100 104 106 104 106 110 115 119 123 125 122 118 115 113 111 107 105

GFSCGP_250_spd_018.txt.gz
Wind_Speed
11 11 18 25 26 29 30 34 37 35 29 26 33 24 22 25 26 27 29 31 43 55 54 50 48 51 53 53 52 55 54 52 51 50 49 51 54 61 65 69 72 72 75 77
13 11 16 23 28 30 29 38 35 31 29 29 27 29 29 31 26 25 24 27 34 41 45 50 47 45 44 42 39 43 45 47 50 50 52 55 57 59 61 64 66 67 69 68
14 12 18 21 22 28 31 27 26 24 27 25 26 27 27 31 32 31 31 29 31 36 32 32 35 39 41 36 38 39 39 44 47 47 51 53 55 55 55 54 56 58 59 60
13 12 15 17 20 28 28 26 25 26 26 28 27 26 26 30 30 30 33 37 33 30 33 35 40 46 42 36 36 35 36 42 43 43 44 44 45 46 48 53 56 58 60 62
12 17 16 14 20 28 28 27 30 27 25 26 28 27 29 25 25 27 32 34 35 38 34 37 34 36 26 28 31 32 29 33 35 35 35 39 42 46 50 55 59 61 64 69
14 15 17 14 18 22 31 30 26 26 24 23 25 25 26 29 31 30 30 33 37 39 39 38 32 26 25 27 28 25 33 32 33 36 38 41 46 51 55 59 61 62 65 64
18 13 13 13 17 20 28 28 30 30 31 29 27 26 27 26 28 30 32 30 30 32 40 39 32 26 20 21 24 29 32 34 36 39 43 44 48 52 55 57 61 63 64 63
17 17 15 14 15 18 25 31 32 31 32 31 29 27 23 26 29 32 30 26 27 29 29 25 22 23 21 25 29 30 33 37 40 43 47 48 49 52 57 59 60 62 62 67
20 22 18 15 19 25 27 25 26 25 29 30 28 26 25 28 28 28 30 26 22 23 25 28 29 27 26 27 29 33 35 40 45 47 48 53 56 60 61 60 62 66 68 72
23 21 26 20 22 24 26 26 27 29 29 31 27 26 30 27 26 27 28 25 22 22 23 27 28 28 30 32 33 37 40 43 44 49 54 56 60 61 61 63 69 73 75 80
22 23 31 26 25 21 22 27 27 28 31 33 32 27 29 26 24 24 25 22 20 22 25 24 25 30 33 35 37 39 42 46 48 52 57 61 63 62 63 70 76 80 82 84
21 23 26 26 24 23 26 34 32 32 32 34 34 28 26 22 20 20 22 25 25 24 26 27 33 35 36 39 40 42 44 46 51 57 61 63 64 66 69 75 80 83 86 89
23 23 23 23 23 25 25 25 25 27 30 31 30 27 21 22 18 21 23 24 24 28 29 32 34 34 37 42 45 47 49 53 58 61 63 65 68 69 74 80 84 86 92 92
25 22 19 20 21 19 20 22 22 24 28 29 30 26 22 19 19 22 25 27 29 30 32 34 34 35 40 44 48 49 50 55 59 61 63 66 69 74 79 83 87 89 95 92
23 25 21 23 21 20 20 26 26 27 31 31 29 28 21 21 21 24 29 32 32 34 35 34 36 40 46 47 49 51 55 59 61 61 65 70 76 79 83 86 88 93 96 92
24 24 23 24 25 23 25 27 31 30 30 31 29 27 20 19 25 30 34 34 36 37 40 43 45 46 47 48 52 57 61 62 62 66 70 76 81 86 88 90 91 98 96 95
27 25 23 24 24 25 25 33 28 29 29 28 27 24 26 29 32 34 35 37 40 44 46 49 52 54 55 58 60 63 66 66 69 74 79 84 87 91 91 93 98 99 97 100
29 30 28 26 24 25 31 29 31 30 30 26 26 29 31 32 35 36 39 43 46 50 53 55 56 58 61 63 67 69 69 72 76 81 84 89 92 95 96 98 102 98 101 105
34 33 29 23 25 27 32 32 31 30 27 28 30 33 35 36 39 41 44 47 52 55 57 58 60 61 63 67 71 72 75 79 82 87 90 93 96 98 98 103 99 102 106 110
35 35 33 28 28 29 32 32 30 28 27 31 34 37 38 41 43 46 48 52 54 57 59 61 62 63 67 71 73 76 80 83 87 90 93 96 97 98 105 103 102 107 112 116
38 39 39 37 32 31 34 30 30 29 31 35 38 41 43 45 47 49 52 54 57 59 63 65 68 69 72 75 79 82 86 89 92 94 97 98 100 104 102 102 107 112 115 118
40 41 41 42 37 34 33 31 31 34 37 40 42 43 45 47 49 52 54 57 60 62 65 67 70 72 76 79 84 89 92 94 95 98 99 101 105 104 103 107 111 115 118 122
43 43 42 42 39 36 36 35 36 40 42 44 45 46 47 49 52 55 58 61 63 66 67 71 74 78 83 86 89 92 94 97 100 101 102 105 105 104 107 111 114 119 123 122
43 45 44 43 42 40 41 40 41 43 45 46 47 48 51 55 57 59 62 64 67 68 72 75 78 83 87 91 94 97 99 99 100 102 106 105 104 107 111 114 117 120 123 121
45 46 47 45 45 45 45 45 46 48 49 51 52 53 55 57 59 62 65 68 69 73 76 80 84 88 92 95 97 99 100 101 103 106 103 103 107 111 113 116 119 121 121 119
47 48 49 48 48 49 49 50 51 52 52 52 53 54 57 60 64 67 70 71 74 77 82 86 89 92 95 97 98 99 101 104 106 102 104 108 111 113 116 118 120 121 116 112

GFSCGP_250_spd_021.txt.gz
Wind_Speed
25 18 13 14 17 17 19 20 24 28 26 32 30 28 24 21 26 24 30 34 35 44 46 50 51 50 53 50 47 51 54 53 56 56 58 63 63 60 58 60 60 63 67 68
25 14 12 12 15 17 24 22 26 29 29 31 26 29 25 22 24 25 25 31 39 42 48 52 54 55 52 52 56 54 59 63 62 61 57 59 56 54 56 58 61 63 64 64
25 12 9 11 14 19 22 26 28 33 28 23 22 22 25 27 26 26 26 29 30 32 33 37 53 55 59 60 60 61 61 55 56 56 52 49 51 52 54 56 56 54 54 56
25 17 6 9 12 17 21 26 25 29 31 26 31 26 24 28 28 31 33 35 35 34 34 37 42 43 45 45 46 51 52 52 50 47 47 47 46 44 45 45 47 51 56 61
22 17 9 11 15 15 19 26 26 20 24 26 27 27 29 29 27 29 34 34 33 32 32 36 39 42 44 42 42 44 46 46 45 42 35 35 37 39 40 44 50 56 60 62
21 17 11 13 15 13 14 20 27 26 22 25 25 29 29 30 31 34 31 31 32 33 38 39 38 40 41 42 36 36 33 30 30 32 34 38 40 43 43 48 53 55 57 62
21 17 11 9 14 14 15 18 25 26 26 29 28 29 30 28 29 31 33 34 35 35 33 32 36 37 38 37 33 27 26 25 33 35 39 41 44 48 49 54 57 60 63 65
25 19 15 11 15 16 18 22 24 26 29 30 29 31 30 28 32 30 32 35 35 34 35 31 30 32 34 28 28 31 30 26 35 36 41 46 51 53 54 57 60 63 67 68
29 21 18 17 17 18 19 21 24 29 28 31 31 30 31 33 32 30 27 30 32 31 30 26 27 25 27 25 29 31 29 35 40 42 44 51 54 52 56 59 64 65 64 65
32 24 19 21 21 22 21 20 22 26 27 28 26 27 32 31 33 31 28 28 27 24 23 25 22 21 26 29 31 31 35 39 41 46 49 51 53 55 60 63 63 64 66 70
34 25 22 22 24 22 21 18 20 22 26 28 28 28 32 33 34 37 31 28 23 24 26 22 20 24 27 29 32 37 40 42 44 47 49 50 53 59 63 64 65 68 71 76
38 28 23 25 23 21 23 28 26 25 25 27 30 32 33 32 31 31 26 25 23 22 23 25 26 29 29 34 37 41 40 42 45 47 50 54 59 64 66 67 69 73 78 84
41 33 25 26 24 25 25 28 30 28 29 33 32 34 24 27 28 22 26 27 24 24 27 27 28 30 33 36 39 41 42 44 47 51 57 61 64 68 67 69 74 79 85 89
40 32 26 25 25 21 24 27 26 26 25 27 27 26 22 24 24 25 26 26 27 28 26 26 30 33 36 39 40 41 43 47 53 56 60 65 70 69 71 74 79 85 88 91
41 31 28 22 20 20 20 21 22 24 23 20 24 23 25 21 27 26 27 29 29 27 27 30 33 36 37 39 42 47 51 54 57 61 65 69 71 72 75 80 85 88 90 93
37 33 28 24 22 21 19 22 24 24 24 23 25 23 25 25 29 29 30 30 30 30 33 34 37 38 42 46 49 53 54 58 61 65 68 72 74 77 80 86 90 91 93 95
37 35 28 27 25 20 18 27 23 19 21 24 25 29 30 31 29 30 30 30 32 35 37 39 42 45 47 50 53 54 57 61 64 68 73 75 78 82 87 91 92 94 96 98
37 36 30 28 26 23 28 24 24 24 25 25 28 31 30 28 29 29 33 36 37 38 40 44 47 50 53 55 58 60 63 66 68 73 76 79 83 87 91 94 97 98 99 103
35 33 31 31 27 27 28 26 25 26 27 28 30 31 30 29 30 32 37 39 40 44 47 49 51 54 56 59 62 64 67 70 73 77 81 85 89 92 95 99 99 101 103 102
41 39 36 32 28 26 32 24 27 26 25 31 32 31 31 32 33 35 38 42 45 47 50 53 55 56 59 62 65 67 70 74 77 81 85 90 94 97 99 100 101 103 102 101
46 42 36 35 30 32 37 31 29 30 34 32 32 32 32 33 35 38 42 44 48 51 54 56 58 61 63 67 70 73 76 79 82 86 90 94 98 101 101 101 103 101 101 105
40 38 37 37 34 36 37 36 37 38 37 35 36 34 34 37 40 43 47 50 52 54 56 59 62 66 68 71 75 78 81 84 89 92 96 99 101 101 102 103 100 102 106 109
42 42 39 37 37 40 43 42 41 41 40 40 40 39 39 42 45 48 51 53 55 58 60 63 65 69 73 76 79 81 85 89 93 96 99 99 99 102 103 99 103 107 111 111
43 43 42 40 42 41 44 44 44 46 46 45 45 45 47 49 51 53 55 58 60 62 64 67 70 74 77 80 83 86 89 92 95 97 97 99 103 102 100 103 108 110 112 113
44 44 42 42 45 44 45 48 48 48 48 49 50 52 53 54 55 58 61 62 63 66 68 72 76 80 82 84 87 89 92 95 96 97 100 102 102 101 105 109 110 111 113 115
44 45 45 45 47 47 47 47 49 50 51 52 53 56 58 59 61 62 63 66 68 71 74 78 81 84 84 86 89 93 95 95 98 102 103 102 103 106 109 111 112 115 115 115

GFSCGP_250_spd_027.txt.gz
Wind_Speed
49 48 50 49 35 29 13 7 8 7 7 10 10 17 17 16 14 15 16 17 19 24 39 32 27 36 42 44 41 47 49 54 48 52 60 59 55 54 59 61 63 67 67 68
45 46 47 47 35 31 16 9 9 8 8 9 16 19 19 20 19 18 15 19 24 17 28 35 30 23 38 43 42 43 43 43 51 61 56 55 55 57 60 63 65 68 69 73
43 41 42 44 34 28 22 11 11 10 10 12 12 12 14 19 23 26 20 17 25 29 25 23 27 38 33 36 37 43 47 50 52 52 56 53 55 61 58 60 63 66 65 62
41 36 42 39 37 26 20 10 13 15 15 16 18 18 17 20 25 25 23 22 20 25 33 32 28 27 30 34 37 34 35 39 44 43 47 49 50 53 55 55 53 49 47 48
39 34 38 37 40 25 22 19 12 14 15 18 21 22 17 20 25 28 28 25 27 26 29 29 30 32 33 33 33 34 35 37 38 40 43 46 47 50 49 49 48 44 42 47
35 34 35 37 37 26 23 22 19 15 15 17 17 23 27 23 23 26 29 29 27 24 24 24 26 28 28 29 33 36 37 39 41 42 44 45 42 43 44 44 44 46 48 51
34 34 29 37 34 36 25 21 23 20 17 19 19 21 25 28 29 23 24 23 23 25 28 26 25 26 29 31 34 37 39 40 42 44 42 37 36 40 44 44 46 51 55 55
35 33 29 38 35 33 30 25 22 24 21 22 22 29 26 23 22 23 24 25 24 25 26 26 26 27 29 31 35 37 38 43 41 38 37 32 34 36 43 46 52 57 57 58
34 30 31 34 33 33 38 26 26 22 21 23 26 27 33 27 26 27 28 28 30 30 29 30 29 28 30 34 36 38 37 36 34 30 31 32 34 37 42 48 53 58 61 64
34 29 32 35 34 31 34 27 27 24 21 27 32 33 32 31 31 30 32 34 32 32 33 34 34 31 34 32 34 34 33 31 29 28 29 32 35 36 42 48 55 62 64 66
32 30 33 35 37 35 31 23 26 26 27 26 29 32 34 33 33 35 34 36 36 34 35 37 35 35 33 31 32 29 27 25 25 26 29 32 37 38 47 56 59 59 63 66
34 30 35 34 37 32 32 25 23 26 30 26 27 35 37 33 35 36 34 35 37 38 38 37 36 33 32 33 28 25 24 26 28 30 32 34 41 46 51 55 59 64 69 72
37 32 32 36 37 35 32 30 24 24 25 28 33 40 37 27 32 38 38 40 41 39 37 37 36 32 32 31 27 28 27 30 33 35 39 43 47 50 55 60 64 68 69 73
39 32 34 38 37 34 30 30 25 27 24 30 38 43 39 34 35 38 39 41 42 39 35 34 32 33 33 30 31 33 32 35 39 43 45 48 52 56 61 65 67 69 72 77
35 35 36 36 40 33 32 32 23 26 27 23 31 35 37 32 32 30 32 34 36 33 32 32 32 31 34 34 36 36 38 41 43 46 50 54 58 62 65 67 70 74 77 80
38 36 37 39 40 35 33 29 33 29 29 26 26 26 28 27 28 26 29 34 36 35 35 31 32 34 36 38 39 41 43 47 50 52 55 58 62 66 68 71 74 78 81 84
39 36 39 41 41 36 36 30 29 27 30 26 24 30 28 29 29 31 32 33 34 36 37 37 37 38 42 43 44 46 49 51 53 56 60 64 67 69 72 75 78 82 84 86
42 41 43 42 40 38 37 32 28 30 29 27 27 30 31 28 29 31 30 32 35 37 41 43 43 43 42 45 48 50 52 53 57 60 65 68 70 73 75 79 82 84 86 89
45 44 43 43 40 40 39 34 30 26 27 33 32 29 28 28 29 30 30 31 35 39 42 43 44 45 47 49 51 52 55 58 61 65 68 70 72 75 80 83 84 86 88 91
47 47 46 41 45 40 41 36 32 28 29 28 31 29 26 26 24 26 27 30 32 36 40 42 43 46 49 52 54 57 59 62 65 67 69 72 76 81 83 84 87 89 91 94
43 45 47 44 41 41 42 40 36 33 34 29 33 34 34 33 32 33 34 33 32 33 37 41 45 48 51 54 57 60 63 65 66 69 73 77 79 81 85 87 89 91 95 99
46 46 46 44 43 41 43 43 38 34 35 32 35 39 41 42 42 40 39 39 39 40 41 43 45 49 53 56 58 61 64 67 70 74 77 79 82 84 87 90 93 97 100 101
46 48 51 47 42 45 47 45 41 40 40 37 35 37 43 45 45 45 43 43 45 47 48 50 51 54 57 59 63 65 68 71 74 76 79 82 84 87 91 95 98 101 103 104
51 52 53 49 47 49 49 48 46 41 44 44 40 38 39 44 48 47 47 49 50 51 52 53 55 58 60 63 65 68 71 74 77 79 82 85 89 93 97 100 101 103 104 106
53 54 52 49 52 54 52 50 51 51 48 47 41 42 40 41 45 49 49 49 50 52 55 57 60 62 65 68 70 73 75 78 81 85 88 92 95 98 101 102 102 103 108 110
53 54 54 53 57 55 55 54 55 51 52 47 40 42 41 40 42 45 48 49 51 53 56 60 63 65 68 72 74 77 80 83 87 90 92 94 95 97 100 103 107 110 111 114

GFSCGP_250_spd_033.txt.gz
Wind_Speed
49 54 60 41 35 33 38 38 29 21 13 9 10 14 14 12 25 15 15 9 10 26 28 15 19 30 22 30 27 27 36 35 49 46 48 55 44 51 50 52 59 57 60 62
49 54 58 44 34 31 34 39 29 22 16 10 7 13 15 16 15 18 21 22 16 16 26 24 19 23 23 24 32 37 35 39 38 44 42 53 51 49 51 50 51 52 54 54
52 55 55 59 36 31 31 39 29 21 18 15 11 10 13 21 22 19 23 25 22 19 20 19 26 26 30 28 25 29 39 40 41 40 41 42 47 51 53 57 59 61 66 68
50 53 51 50 42 31 27 35 32 25 19 17 19 16 12 10 18 21 22 26 24 20 21 26 23 32 32 39 31 31 32 35 40 44 46 43 47 53 57 60 64 69 69 68
52 53 49 55 55 33 27 31 32 28 22 19 18 20 15 16 14 14 18 28 31 26 19 27 29 28 34 36 42 43 35 35 36 36 38 45 47 52 53 51 53 55 58 58
56 54 51 56 61 37 30 28 34 31 28 19 21 21 21 19 19 18 19 25 32 28 23 25 25 31 31 29 32 36 39 40 41 42 43 45 46 48 51 51 52 53 53 53
58 55 52 53 65 41 34 28 35 31 28 25 22 23 23 26 22 22 27 22 25 30 29 28 28 31 33 34 37 39 41 42 43 44 45 45 45 46 47 45 44 45 44 44
59 56 55 55 62 43 37 29 32 32 32 30 24 26 24 23 26 25 30 32 31 32 34 33 33 33 32 32 34 36 38 38 39 41 41 41 44 45 42 39 39 38 41 38
61 60 55 52 63 42 39 32 31 32 34 30 26 26 28 23 25 32 31 32 32 33 33 31 33 33 32 32 33 35 38 39 38 36 31 37 47 42 38 36 36 38 40 46
58 58 44 51 61 44 40 34 30 33 35 35 31 27 31 30 26 27 32 34 31 33 34 33 32 35 36 36 35 36 36 38 40 38 36 43 47 41 38 36 41 41 42 48
66 59 48 48 49 47 42 35 31 31 36 32 32 28 31 31 30 28 28 31 35 36 36 36 36 36 37 39 39 38 37 39 41 40 41 41 41 38 40 41 46 46 48 48
69 66 60 49 55 48 40 35 32 32 34 34 31 30 29 33 30 31 31 31 32 36 40 40 41 41 40 40 38 40 41 42 44 42 40 41 40 39 41 42 47 49 53 55
73 67 58 49 48 46 38 36 33 37 32 33 31 34 32 32 33 30 33 33 33 37 40 41 40 41 41 41 44 44 46 46 46 44 43 41 43 44 47 49 53 53 56 59
77 73 61 54 50 50 38 38 41 38 32 33 32 34 34 31 34 29 31 32 36 38 40 40 42 41 43 46 47 46 48 48 46 43 41 43 45 49 53 54 56 57 61 65
82 76 61 55 56 52 40 44 44 40 34 32 35 32 35 34 32 29 29 30 33 37 39 41 43 46 46 48 49 45 46 46 45 42 40 41 46 48 53 56 59 62 66 69
82 76 62 62 54 51 43 49 47 41 36 31 38 36 33 28 31 29 27 28 30 33 35 37 39 38 40 41 40 41 45 44 41 47 46 49 53 55 59 62 65 68 70 73
84 74 61 51 56 53 49 56 45 37 37 36 38 34 34 30 25 28 27 28 29 31 35 38 39 39 40 41 43 42 43 46 49 50 50 52 55 59 62 66 69 71 74 76
78 57 55 56 53 48 56 49 44 41 36 36 38 33 33 29 24 24 28 29 31 33 35 39 42 43 43 41 42 43 45 47 47 47 48 48 51 55 59 62 64 66 70 74
59 63 56 51 52 50 53 49 45 40 38 37 33 33 30 29 25 27 27 30 34 37 39 41 41 41 41 39 41 43 43 43 44 45 47 49 53 56 58 62 66 70 73 76
66 66 55 52 50 47 54 53 44 42 38 37 31 31 33 29 28 28 31 31 35 38 40 40 39 38 39 42 45 46 46 47 48 48 49 51 54 57 60 64 67 69 71 74
62 64 56 53 55 56 61 54 45 40 47 34 35 35 37 32 33 32 32 32 33 36 39 44 45 47 48 50 50 49 50 51 52 53 54 56 58 60 62 64 66 67 70 74
70 64 60 58 56 52 63 56 47 48 48 44 41 41 39 36 35 35 36 38 39 40 40 43 46 50 54 56 55 55 55 56 56 57 58 59 60 61 61 62 66 70 74 77
71 62 64 54 54 62 56 51 50 50 49 46 46 46 41 40 39 40 40 40 43 45 49 46 46 48 50 52 54 56 57 58 59 59 57 56 57 60 64 68 71 73 76 81
75 65 63 59 58 60 58 53 50 53 52 47 46 46 46 42 43 45 47 44 49 52 54 52 51 49 50 52 52 51 50 50 50 51 53 57 61 65 69 72 76 80 84 85
72 68 61 55 58 58 57 57 54 52 52 50 49 49 49 50 51 52 52 51 52 57 58 58 53 52 54 53 51 51 51 52 54 56 59 63 68 70 74 78 80 81 84 88
66 65 56 52 65 65 58 54 52 53 55 54 51 51 52 55 56 58 58 56 57 61 60 57 56 55 54 53 52 55 57 60 61 61 65 71 74 76 78 78 80 83 86 92

GFSCGP_250_spd_036.txt.gz
Wind_Speed
35 39 40 43 48 50 51 35 31 37 33 23 11 13 14 8 18 22 19 19 23 25 28 25 27 22 25 28 25 23 30 33 39 40 44 43 36 39 41 48 46 47 51 51
41 39 41 43 43 48 49 46 31 33 32 31 20 16 17 11 21 14 17 21 23 14 28 26 33 27 27 30 29 28 31 39 36 36 44 49 51 46 46 46 46 59 59 63
50 41 40 42 44 48 48 50 38 31 32 33 23 22 20 14 20 20 21 27 22 22 23 33 30 26 33 32 35 38 35 39 39 35 35 35 45 48 54 53 57 56 57 60
50 43 41 46 47 46 47 51 48 31 31 31 29 19 17 18 15 20 27 24 29 28 27 26 29 27 24 28 31 37 37 41 45 43 43 47 47 45 45 49 53 59 62 64
53 48 42 49 50 42 44 50 47 34 30 32 31 28 17 17 20 17 17 23 29 34 31 19 30 29 31 32 33 36 36 34 34 38 39 43 46 51 55 52 54 51 56 61
56 48 43 49 49 42 49 51 48 37 29 32 33 30 24 19 19 20 19 21 24 38 39 29 25 31 37 34 40 43 39 45 45 46 42 40 42 43 45 46 49 52 54 57
60 46 41 49 48 43 46 52 47 45 30 32 34 32 30 27 21 13 21 11 24 34 43 41 26 28 31 36 39 38 34 34 39 45 48 48 49 50 51 51 47 50 53 54
58 54 51 51 51 45 38 45 46 44 34 33 39 37 35 30 29 16 25 24 32 35 46 42 34 32 32 34 36 38 38 37 38 40 42 45 42 41 42 38 38 42 49 53
57 54 55 56 53 41 36 42 46 41 39 29 32 37 37 35 27 27 24 25 29 32 37 40 45 39 40 37 38 39 37 37 39 40 39 38 35 36 31 28 39 43 49 51
62 57 57 59 59 47 37 41 43 39 39 29 32 36 36 38 33 24 29 24 24 31 34 34 40 41 37 36 35 37 37 42 43 40 39 35 29 25 27 39 44 48 49 51
66 62 62 64 54 46 37 42 40 47 38 33 33 36 40 42 35 33 28 26 27 24 28 36 38 38 39 40 41 36 21 58 48 42 37 37 32 34 43 52 53 50 50 54
73 69 66 69 64 52 44 39 46 50 36 36 31 37 36 37 38 36 30 28 26 27 27 30 35 37 40 41 42 43 41 46 46 41 33 41 43 43 42 43 47 51 51 54
77 77 71 70 64 56 49 38 54 47 42 38 35 36 37 37 39 39 36 33 27 30 30 31 30 31 34 37 39 41 42 43 44 44 37 44 47 45 42 48 56 52 53 55
84 82 74 70 61 55 50 40 52 49 48 44 36 39 41 40 42 41 38 33 34 34 34 30 31 34 36 37 38 39 43 45 46 45 41 44 44 38 45 52 51 54 58 61
92 82 78 75 64 60 57 52 53 47 48 41 42 39 34 39 39 44 40 41 35 39 34 33 29 35 36 38 38 39 40 39 39 40 40 43 45 46 47 49 52 54 56 59
94 84 83 79 68 64 62 54 52 44 46 46 44 41 35 39 40 41 41 38 37 36 37 35 32 31 32 32 33 36 37 38 38 41 46 46 46 50 53 53 54 56 58 61
91 90 89 82 73 68 66 57 54 55 54 50 44 45 38 37 37 36 32 31 33 32 36 33 31 30 30 33 34 36 38 41 42 43 43 45 47 50 53 53 53 52 52 54
99 97 93 85 82 74 58 57 53 51 54 54 50 45 42 35 39 34 31 30 28 26 26 28 30 33 34 36 39 40 40 41 42 41 42 43 45 46 47 48 49 52 54 57
103 101 94 91 81 70 65 56 55 51 52 50 44 44 39 37 36 33 32 31 26 27 28 26 27 29 34 37 39 40 41 42 44 46 49 51 51 52 53 54 55 58 60 63
106 99 94 90 83 73 62 60 60 55 42 50 50 43 39 36 39 37 40 33 29 27 28 27 28 32 34 37 42 45 47 50 51 54 56 55 55 56 57 58 60 63 64 64
101 96 94 90 81 73 61 63 64 50 53 52 44 43 41 42 41 44 40 36 33 30 29 31 33 39 39 38 38 41 44 49 54 58 60 60 60 60 59 60 61 61 59 60
91 93 90 86 79 66 61 64 60 51 58 48 48 47 44 45 45 46 46 40 36 37 35 37 38 42 45 47 45 43 46 49 51 52 53 54 54 55 55 55 56 58 63 66
77 77 77 74 57 57 65 64 63 57 56 53 53 49 48 48 48 51 51 44 40 41 42 45 46 47 50 52 49 49 52 54 53 54 53 54 52 53 55 58 62 65 68 73
65 60 54 55 57 60 55 66 62 57 55 59 50 46 48 50 51 56 51 48 46 46 48 53 49 54 53 55 60 54 56 58 57 55 55 55 56 58 61 65 65 68 72 76
58 55 55 62 63 61 70 69 64 59 52 54 52 50 54 52 55 55 55 53 52 52 54 56 58 61 60 61 60 61 63 64 60 56 56 58 57 53 53 56 60 63 71 73
54 54 62 61 64 70 72 63 59 55 52 55 53 56 55 57 56 56 57 55 56 58 58 60 63 64 66 64 66 67 69 69 64 59 56 58 58 60 61 64 66 73 77 85

GFSCGP_250_spd_039.txt.gz
Wind_Speed
41 36 32 32 35 35 33 34 38 43 43 26 25 18 18 22 22 17 14 21 19 25 26 28 39 75 72 74 69 68 74 71 69 66 67 58 56 50 50 48 51 47 46 44
42 41 39 36 37 39 34 36 34 39 46 35 25 20 13 14 29 29 25 16 22 28 30 30 28 34 48 67 73 75 77 74 71 64 58 54 53 49 44 37 40 47 50 53
43 39 35 37 43 41 38 39 32 41 40 45 32 28 24 13 16 20 24 16 23 23 26 29 31 31 33 37 45 56 55 59 64 72 58 48 39 42 47 50 50 49 53 55
38 44 44 40 43 38 43 38 31 40 37 41 38 30 30 24 20 12 18 16 20 22 20 20 24 35 30 35 31 33 34 36 36 37 40 42 41 40 42 42 43 48 54 57
53 52 49 46 45 33 39 39 41 36 30 37 43 35 28 24 21 17 16 20 18 22 24 29 22 31 27 31 27 39 45 39 41 42 45 48 48 53 49 48 51 53 58 59
49 56 54 50 47 45 39 36 40 33 31 35 39 33 29 27 20 16 21 11 23 22 25 35 35 25 31 29 32 33 36 40 45 43 45 49 47 46 44 44 46 50 50 52
56 50 47 48 51 46 42 36 40 35 35 37 37 36 35 31 27 25 14 21 19 25 26 32 38 37 28 31 35 36 37 40 43 44 45 42 46 52 51 54 57 57 58 48
60 57 54 51 45 44 41 39 40 34 35 38 36 36 41 29 32 30 22 21 21 25 22 25 36 43 41 32 32 32 34 39 41 42 43 46 49 46 46 49 53 51 49 51
59 56 59 51 47 46 40 41 42 43 42 37 36 39 40 27 32 33 28 23 19 21 34 28 27 42 50 45 34 37 37 37 40 43 45 44 43 43 45 47 44 44 44 49
62 62 57 54 52 47 44 45 44 44 43 33 33 37 42 31 29 31 28 21 20 18 25 27 27 28 36 45 49 45 44 35 28 32 33 33 34 39 39 39 38 41 38 40
70 66 60 58 51 47 49 46 47 49 46 32 33 33 35 36 34 35 32 29 28 27 23 24 24 25 28 29 32 36 35 25 34 44 42 32 33 37 40 31 34 35 49 51
73 74 66 58 57 51 54 49 50 48 39 31 37 37 42 39 35 39 38 37 32 27 32 31 27 27 27 30 36 37 34 39 40 38 33 36 29 17 22 39 37 39 58 61
77 77 71 65 58 53 54 57 57 47 47 40 39 40 34 42 34 39 39 40 34 30 28 34 32 31 31 32 33 34 35 35 32 32 38 41 36 42 48 47 51 56 60 62
84 80 74 61 61 64 63 60 57 52 46 37 31 36 36 44 41 38 39 42 37 32 29 28 29 33 30 32 35 31 31 27 37 41 45 48 50 50 61 63 64 62 64 66
88 86 78 70 68 68 66 65 61 57 47 40 34 31 43 39 47 38 40 43 42 38 35 30 26 30 34 28 29 30 28 29 39 45 50 53 55 57 53 52 53 57 59 64
93 87 84 82 78 77 73 64 62 59 47 39 39 32 45 44 45 40 39 41 42 39 37 37 29 26 30 30 31 31 30 28 32 37 42 44 47 48 50 53 57 58 59 60
96 95 93 85 83 83 84 64 58 55 53 44 46 40 41 42 40 40 41 40 40 36 34 35 35 25 24 30 32 31 33 34 34 35 38 41 42 44 47 49 51 51 54 56
101 102 101 87 87 93 72 70 67 64 56 50 47 41 37 41 46 41 45 36 33 33 38 36 35 31 26 24 25 26 28 30 32 33 36 38 41 45 50 53 54 56 58 59
105 100 101 96 92 88 79 72 73 69 61 55 50 44 40 42 47 42 46 37 34 32 36 37 32 25 19 16 18 22 25 28 31 32 34 38 42 47 51 54 57 59 59 61
98 107 107 99 96 91 81 79 81 75 66 63 60 53 54 51 38 45 45 42 40 42 43 40 36 29 22 20 22 25 25 27 29 30 37 40 43 45 47 50 51 53 55 57
93 101 101 101 94 91 87 86 83 80 65 67 66 60 48 43 41 49 45 42 42 45 46 45 38 34 30 26 30 29 32 35 35 40 45 46 50 52 53 53 54 55 57 58
87 85 86 98 95 89 89 92 88 75 73 75 69 62 54 45 46 53 50 43 46 49 49 48 45 40 39 39 43 44 45 44 47 49 50 53 55 57 57 56 55 58 60 61
77 78 81 81 78 81 87 87 86 86 83 81 71 61 53 47 50 51 50 49 52 51 47 49 52 47 47 48 49 52 53 53 53 56 58 58 59 57 61 59 60 58 57 58
71 76 77 71 73 67 68 73 79 81 80 74 68 63 54 51 51 52 56 51 47 46 49 49 53 50 52 55 57 58 58 59 62 62 61 63 64 65 66 68 68 65 65 66
65 70 72 63 61 60 55 58 61 67 67 63 58 58 56 56 53 55 56 52 52 48 50 52 57 58 57 58 59 59 61 63 65 69 69 69 71 69 72 74 77 69 68 69
59 63 63 59 56 51 49 49 49 55 54 53 54 57 60 57 54 53 54 53 54 54 54 57 62 64 62 61 62 62 63 67 70 71 71 74 74 75 79 79 81 80 79 77

GFSCGP_250_spd_042.txt.gz
Wind_Speed
36 37 38 32 35 32 35 35 28 35 34 37 35 27 28 30 27 29 32 25 28 24 17 21 30 39 47 60 60 64 59 60 59 62 57 58 59 63 65 67 64 65 66 61
38 44 34 37 40 35 29 33 26 31 35 33 32 32 27 30 28 25 26 27 25 24 20 23 25 37 42 55 65 67 67 68 62 60 61 64 67 71 70 65 67 52 49 63
37 46 36 41 40 36 29 35 35 30 30 32 34 35 26 25 25 25 23 19 18 22 22 25 28 29 40 49 61 62 63 66 68 65 63 64 68 67 60 66 55 56 55 52
34 46 37 40 44 39 37 34 36 35 30 32 34 38 30 27 29 23 19 19 18 19 28 22 24 32 34 44 40 49 60 65 63 67 69 73 61 64 69 60 58 63 61 49
42 47 39 40 46 48 42 36 38 38 36 30 35 36 33 28 27 28 20 20 16 16 20 26 25 27 29 37 41 44 50 62 61 53 57 57 60 64 54 46 45 47 52 51
47 50 45 44 49 48 44 41 42 41 39 32 32 36 29 33 25 27 24 19 17 18 18 21 30 33 26 28 35 36 45 60 65 60 53 48 43 42 44 45 48 50 53 56
59 55 54 51 47 51 45 32 34 36 35 31 31 34 29 33 24 26 29 22 21 19 19 18 20 37 32 30 35 36 37 37 35 38 42 43 41 46 45 46 46 49 53 55
61 58 58 58 54 52 53 46 37 36 36 32 33 31 26 27 23 22 23 24 22 19 19 17 17 20 41 38 35 35 36 35 36 37 38 41 43 46 46 47 49 49 48 50
72 63 64 62 59 56 53 50 45 38 37 35 33 30 29 33 29 30 31 21 24 22 21 21 21 22 24 38 45 41 39 37 36 35 34 33 35 40 32 28 33 39 39 37
75 74 69 70 67 58 53 52 48 42 39 38 36 32 31 29 27 31 33 28 23 24 23 19 24 27 25 32 35 44 41 41 34 37 36 33 31 31 27 28 31 29 33 32
76 76 72 74 69 65 58 52 47 49 41 36 36 35 33 27 28 26 29 27 27 24 23 21 22 25 31 28 32 33 39 44 45 44 36 36 33 23 26 30 28 28 28 28
87 83 77 72 67 65 64 54 49 47 38 37 35 36 35 36 25 29 25 29 30 31 25 18 17 20 26 35 34 37 35 39 42 36 34 30 35 35 35 32 24 43 33 38
87 86 80 76 71 64 62 58 54 49 45 39 37 39 41 33 23 26 27 31 30 34 36 28 15 14 19 27 36 39 38 39 36 31 36 40 32 33 38 39 45 34 43 48
93 90 82 73 71 71 67 63 59 55 53 45 39 41 45 39 31 28 34 30 32 35 38 38 29 16 12 15 25 29 36 39 32 38 39 39 40 42 44 40 49 54 56 66
95 90 93 83 73 78 73 67 64 60 54 48 45 44 46 41 39 39 36 28 29 34 36 40 37 30 15 11 14 22 26 33 34 41 46 47 46 51 48 52 58 59 63 67
102 100 93 83 78 80 80 72 65 60 55 51 46 45 46 45 42 39 31 28 27 33 34 35 36 38 32 23 19 18 17 24 30 40 42 45 52 56 61 62 64 69 73 76
96 92 96 89 88 83 84 71 71 67 63 59 48 50 50 45 43 29 36 31 28 33 34 36 32 32 35 33 28 26 20 19 23 34 39 45 51 55 58 62 62 63 64 66
84 85 89 89 92 92 68 75 76 76 71 67 60 57 52 48 45 41 36 28 26 35 35 33 32 34 36 34 32 29 24 24 24 24 26 28 34 41 45 49 52 56 61 66
79 81 84 81 89 89 85 76 76 77 74 69 67 64 60 52 50 44 43 33 34 34 36 33 36 34 39 35 32 33 28 23 16 17 22 24 22 26 30 32 33 36 37 42
70 77 81 82 86 89 89 87 84 83 74 73 71 68 64 61 55 49 47 41 40 33 38 40 37 35 38 40 36 32 32 27 27 25 25 26 28 30 32 34 40 41 41 43
67 73 79 79 79 76 82 90 88 90 73 80 80 76 71 70 61 60 55 51 49 42 38 41 39 36 40 45 44 40 39 39 40 40 39 38 38 38 40 42 44 45 49 51
67 67 75 78 79 77 79 87 93 85 85 86 83 79 79 75 69 67 64 58 52 45 42 43 44 47 46 48 48 47 47 45 45 47 49 50 50 49 49 51 53 53 55 55
67 67 75 78 78 78 73 77 82 87 85 86 87 83 78 70 65 62 61 57 55 49 46 45 45 46 46 47 47 51 53 52 51 53 56 56 57 57 57 59 60 60 60 62
65 68 68 74 72 69 76 71 70 74 79 85 88 86 82 78 73 68 63 56 51 54 51 46 47 47 44 49 50 51 53 54 57 60 60 62 62 61 63 66 67 66 68 68
64 67 64 65 68 71 68 65 65 61 62 66 70 73 73 73 61 58 57 61 56 57 54 50 50 49 48 54 54 54 57 60 62 64 64 66 67 67 68 69 71 72 75 77
54 58 67 69 72 70 71 70 66 60 57 55 55 54 55 52 50 50 52 53 55 60 59 55 54 51 52 55 59 61 62 66 68 69 70 71 72 73 74 74 76 78 80 83

GFSCGP_250_spd_045.txt.gz
Wind_Speed
34 37 37 33 32 34 38 37 27 31 26 30 31 30 36 38 30 29 25 18 19 22 25 21 28 45 48 59 72 72 69 71 73 66 66 67 66 63 69 67 54 59 58 60
38 44 40 35 36 31 35 36 32 30 26 27 34 34 36 38 38 33 31 25 19 21 24 19 25 34 38 47 58 63 62 67 74 69 70 69 69 69 66 72 66 61 63 67
47 49 43 42 40 36 32 36 28 31 30 28 30 37 36 38 38 40 33 30 23 18 21 18 20 33 35 35 46 50 58 65 68 65 69 71 73 65 62 64 59 59 62 63
46 53 49 42 42 37 35 34 30 29 30 29 32 34 36 35 38 36 41 32 27 19 19 21 19 26 33 34 33 41 57 55 57 63 66 64 61 63 64 59 59 64 62 58
47 57 54 44 46 40 40 31 31 38 36 34 33 32 34 33 36 38 34 38 31 22 19 21 22 23 29 30 32 34 40 47 52 51 52 58 66 61 65 68 60 52 57 53
51 58 52 51 50 47 47 34 30 34 34 29 28 28 30 32 32 34 32 33 38 27 20 18 20 24 27 32 31 33 37 38 39 47 49 52 54 54 55 59 59 56 48 50
58 60 59 56 56 51 43 43 40 38 35 34 30 28 28 27 27 31 29 30 40 29 23 21 17 20 25 30 32 31 29 34 37 41 43 41 48 52 53 56 47 51 50 51
58 58 60 57 54 56 51 52 43 39 42 41 37 32 32 23 24 27 27 30 32 29 27 25 22 18 21 27 35 34 33 33 39 43 40 40 40 40 44 45 45 48 46 51
62 57 61 61 61 64 62 59 52 48 47 42 41 38 35 30 23 26 26 27 27 31 26 29 28 22 20 25 28 40 39 37 37 38 38 39 41 40 41 39 46 52 47 35
74 71 72 76 71 68 65 58 55 50 46 44 43 41 36 32 26 24 23 29 23 27 28 26 30 26 21 22 26 35 44 47 44 44 45 42 36 40 41 40 40 40 38 35
75 74 73 76 71 66 61 58 55 53 51 46 45 42 40 32 27 26 27 29 26 28 26 30 30 31 27 23 23 28 36 41 45 51 46 44 42 40 41 40 35 36 36 38
76 74 71 69 68 67 66 65 67 64 57 48 48 41 41 34 30 27 27 28 25 27 30 28 30 32 29 27 24 23 29 32 37 40 47 52 53 53 52 50 45 43 43 37
83 80 76 75 77 74 71 66 63 61 64 55 46 39 46 41 32 31 29 30 32 35 33 31 29 33 30 26 23 22 24 32 29 36 39 45 49 49 51 48 43 48 48 43
88 84 81 79 79 79 75 72 69 68 64 55 47 46 52 45 37 34 34 34 35 39 39 31 30 30 33 29 28 24 25 26 29 31 32 37 44 47 50 48 45 50 48 48
101 96 88 84 82 84 82 78 76 70 60 61 50 51 54 52 45 38 34 37 38 39 44 40 35 29 33 31 29 25 23 23 29 32 32 32 39 42 46 47 54 56 52 53
103 98 96 92 92 90 86 78 75 75 70 67 54 52 53 57 51 42 41 41 34 37 37 36 36 28 33 31 31 30 25 20 23 30 32 31 35 40 45 52 54 54 56 60
100 97 97 95 95 98 94 87 85 82 74 67 63 59 57 57 55 47 42 41 41 33 33 29 31 32 31 33 32 35 36 28 25 25 25 29 34 41 47 49 54 61 63 64
91 93 94 86 91 96 84 92 90 87 82 77 67 64 62 59 59 52 45 41 44 38 42 39 27 32 34 34 35 34 34 31 31 31 30 31 34 39 41 43 46 50 54 56
81 80 83 84 79 80 77 81 89 92 80 76 75 71 69 68 65 55 54 47 45 47 44 41 35 29 36 36 38 36 31 30 34 34 34 34 31 33 38 41 43 45 48 49
74 76 78 78 78 73 55 76 90 90 76 82 80 78 71 77 70 60 64 58 46 49 47 46 39 39 35 38 41 40 36 32 40 42 37 36 41 38 37 43 47 48 50 53
68 68 67 71 75 59 62 77 76 79 73 86 84 82 78 75 68 69 69 68 61 53 54 51 50 49 38 40 42 44 43 42 44 48 46 41 41 43 43 47 46 50 54 59
64 67 65 66 68 56 68 71 73 68 69 78 78 80 81 80 73 71 71 67 62 59 61 58 54 49 47 44 45 48 47 48 48 49 48 48 47 48 50 53 54 55 56 57
57 61 68 65 56 62 68 66 61 66 66 71 77 76 81 83 82 75 73 68 64 68 61 58 51 50 51 49 51 51 51 49 53 53 51 52 52 53 57 58 58 61 63 65
57 60 61 58 54 60 64 63 63 62 59 68 69 72 77 84 85 80 77 74 70 66 62 59 56 57 58 53 55 56 57 55 53 53 54 56 56 60 62 63 64 66 68 71
59 55 53 52 59 62 62 60 61 59 62 60 59 59 60 63 71 79 78 77 78 77 71 68 63 59 59 58 57 61 61 61 59 60 57 59 61 63 66 67 71 71 74 77
55 49 49 54 60 58 61 63 61 59 58 61 56 53 56 59 63 65 68 72 71 68 68 65 60 63 67 65 61 63 65 65 65 66 64 63 65 67 71 74 76 78 81 85

GFSCGP_250_spd_048.txt.gz
Wind_Speed
44 41 48 32 26 25 27 26 26 25 25 28 20 25 27 31 31 39 37 27 27 28 20 20 22 24 36 41 68 61 58 54 54 59 56 57 59 60 57 54 52 55 59 60
44 46 47 35 30 30 32 32 31 25 25 27 23 23 26 29 30 34 38 38 28 32 26 17 17 19 32 46 50 66 70 64 61 62 60 64 66 68 68 68 65 63 62 61
47 55 48 43 35 36 35 36 31 29 27 26 25 26 27 28 29 31 39 36 35 38 33 22 17 19 24 36 46 55 57 57 67 63 60 66 66 67 67 68 66 66 64 62
41 51 52 47 39 42 38 35 34 32 24 26 28 30 31 26 28 29 36 36 36 36 35 26 20 15 21 29 35 40 43 48 58 51 62 63 70 73 71 69 64 66 68 71
42 53 51 48 48 42 52 38 38 35 31 23 21 24 27 21 28 26 31 33 37 35 33 30 21 15 13 25 33 33 36 44 47 49 55 55 60 64 67 67 64 65 66 66
50 53 46 49 50 44 52 43 41 40 36 26 27 23 27 25 25 25 26 30 35 31 31 31 23 18 16 16 25 32 33 39 42 45 47 51 55 56 60 62 63 64 66 63
54 55 52 51 52 48 52 46 42 44 40 31 29 22 29 34 28 29 24 26 30 32 29 26 25 21 17 17 19 27 34 38 43 45 43 46 48 49 53 59 52 58 55 51
54 53 51 49 49 50 47 46 43 45 44 39 34 23 34 35 37 30 25 24 22 31 23 28 25 24 21 16 19 23 29 35 35 38 43 44 47 45 45 44 47 49 51 46
54 52 51 50 52 50 50 46 55 46 45 39 35 31 35 36 35 36 29 28 21 25 24 25 27 26 26 25 18 20 28 32 40 38 37 41 42 40 41 42 43 41 42 43
56 51 53 52 49 49 50 54 52 46 43 47 42 40 36 38 36 37 32 28 27 24 24 25 28 25 27 27 26 23 23 30 34 44 44 41 39 39 39 41 43 43 44 42
59 57 58 59 56 56 55 55 54 56 55 52 50 41 41 41 41 35 35 29 32 29 26 26 28 28 30 25 26 25 26 26 32 36 43 51 48 46 46 44 44 44 46 48
71 68 68 69 71 71 69 67 67 62 59 54 46 38 43 45 42 38 38 31 35 33 29 27 28 29 33 32 26 26 27 29 30 30 36 41 48 52 59 57 54 59 55 52
75 72 73 73 75 74 70 68 66 64 60 54 47 41 51 48 46 41 42 39 37 34 32 28 30 32 34 37 31 27 27 26 28 27 32 39 41 40 39 43 51 56 56 56
72 73 75 73 75 77 73 71 70 69 63 58 53 50 52 54 51 50 44 44 36 36 36 36 35 36 33 33 33 29 29 27 25 27 26 32 36 39 41 40 40 44 47 49
77 76 75 76 76 79 76 74 75 74 72 70 63 58 50 56 51 51 46 46 43 39 37 41 41 35 33 31 32 35 31 33 30 28 27 25 29 34 37 39 40 43 45 46
83 82 84 84 83 82 81 80 79 80 78 74 71 64 59 55 57 53 47 47 46 46 42 46 44 40 38 33 31 37 38 34 36 32 28 25 21 26 34 39 42 44 45 46
86 84 84 84 89 90 85 82 88 86 85 81 77 71 66 62 58 56 52 49 47 50 49 45 46 44 41 36 30 30 37 40 40 41 36 34 30 25 23 25 32 38 40 45
94 93 94 91 93 93 84 91 94 95 89 86 80 76 73 68 63 61 56 54 52 51 51 53 50 51 46 39 36 34 34 40 41 41 41 40 38 34 32 31 33 35 38 41
93 94 93 92 96 96 95 97 99 103 94 94 92 86 79 76 73 58 61 61 60 57 55 54 49 53 50 44 41 41 40 38 44 42 42 37 34 34 33 33 35 38 41 44
84 85 86 87 87 90 91 89 91 93 82 88 89 80 78 76 70 63 71 69 67 64 61 60 57 51 53 49 45 45 42 42 43 46 48 45 43 40 39 36 39 40 43 45
77 76 78 81 81 82 86 79 81 80 80 82 83 79 78 74 70 69 71 74 71 71 70 66 62 62 58 62 58 47 50 50 47 48 50 53 55 53 50 45 46 46 50 52
72 72 72 75 75 76 80 76 78 73 74 73 69 80 73 73 74 75 74 75 76 73 67 74 74 69 69 64 68 64 57 55 49 52 54 54 58 59 59 59 58 57 56 57
66 69 70 69 69 69 68 69 71 74 71 64 65 73 69 69 71 78 82 81 80 79 77 71 75 77 74 75 68 71 65 61 56 55 60 61 61 63 61 61 64 65 66 64
61 64 62 64 60 62 63 65 67 68 62 60 62 64 69 69 70 75 78 82 84 85 85 81 76 74 72 71 66 72 71 64 60 60 62 65 64 65 66 66 67 67 68 69
57 57 54 53 53 53 60 57 65 66 54 56 60 63 66 68 69 73 76 80 81 81 81 82 81 78 74 72 71 74 75 72 69 70 67 68 71 70 69 70 71 70 71 75
58 56 54 51 51 52 55 52 58 62 54 53 59 60 66 63 69 66 68 73 78 79 81 82 81 82 79 75 75 78 79 81 78 76 75 75 76 78 76 75 77 78 80 82

GFSCGP_250_spd_051.txt.gz
Wind_Speed
46 43 44 41 31 26 27 27 21 16 18 21 22 23 20 19 20 22 31 29 33 34 27 24 14 14 19 26 38 48 48 44 51 55 46 52 53 52 56 54 53 54 51 51
43 45 54 39 31 33 32 31 24 19 18 22 22 24 22 22 24 23 26 26 31 35 34 22 21 10 15 23 32 51 42 49 47 57 50 51 51 51 54 54 53 55 55 56
49 56 49 40 35 35 38 37 27 19 19 22 25 25 24 26 29 22 19 22 27 34 33 26 24 15 11 13 23 36 50 46 54 48 55 59 57 58 57 59 59 60 59 58
49 56 54 44 39 42 42 41 30 23 22 24 25 28 17 21 25 21 19 23 21 31 30 32 25 21 11 10 15 25 47 43 45 49 49 54 54 57 61 63 62 63 65 64
46 58 61 48 48 42 48 39 30 29 28 28 26 26 24 24 21 19 23 28 25 22 27 26 26 24 16 9 12 19 29 44 44 50 44 45 51 58 58 62 65 63 68 71
50 52 51 48 46 41 43 42 38 36 34 30 29 22 32 26 21 22 22 28 30 24 22 22 23 21 21 15 10 13 20 29 39 43 48 44 45 49 53 55 58 60 63 64
55 56 52 50 44 43 43 44 43 40 39 34 29 28 32 30 26 23 23 26 30 28 18 22 17 20 19 18 15 10 14 22 31 36 41 40 41 42 46 48 53 57 60 58
59 61 58 55 52 54 52 48 47 43 41 35 31 31 35 34 31 27 25 27 28 30 18 20 20 18 19 21 15 15 15 14 21 29 35 39 42 41 43 45 47 49 49 52
62 62 63 60 59 57 53 50 53 46 39 35 33 37 38 38 37 30 31 29 31 29 25 21 23 20 19 18 19 15 15 17 16 20 29 34 35 38 43 45 46 46 46 46
64 66 67 65 63 58 53 51 47 45 39 36 35 37 42 43 41 38 34 33 33 27 29 22 27 26 21 17 19 23 20 18 18 21 23 28 41 40 41 46 50 51 51 52
60 61 61 62 63 60 57 52 47 44 40 34 34 39 44 44 44 37 34 33 33 30 30 33 28 28 28 24 21 20 24 19 21 19 20 26 32 38 48 47 49 51 54 54
65 62 61 62 63 64 63 58 52 45 38 36 39 42 45 48 49 42 39 35 36 33 33 36 32 31 32 29 27 25 22 23 22 22 22 23 27 36 40 43 48 54 54 53
73 71 66 63 65 63 65 62 55 49 43 39 42 44 50 54 54 46 43 36 38 33 36 38 40 35 37 33 31 28 22 20 23 24 24 26 28 29 33 37 42 43 46 49
71 70 62 63 62 60 57 57 59 58 57 56 57 56 54 52 57 51 48 40 37 37 34 40 43 40 40 39 35 32 27 25 25 25 24 26 27 29 30 33 35 37 40 44
69 67 68 68 67 66 66 67 68 67 69 65 61 60 56 53 56 53 50 47 44 42 38 41 46 46 45 45 41 38 32 27 32 25 28 27 28 29 30 29 30 33 36 40
80 80 78 77 75 75 74 73 74 72 69 67 65 60 60 58 56 56 54 52 52 43 42 44 46 47 48 49 49 46 42 31 29 31 33 29 31 31 33 31 31 30 32 34
85 84 81 80 81 80 71 68 70 71 72 70 68 66 66 63 61 59 61 58 54 52 49 45 50 52 54 53 53 47 45 38 35 35 36 33 34 34 35 36 36 34 33 32
75 76 77 77 77 79 70 73 79 81 77 76 73 74 73 71 68 66 65 64 59 55 53 50 49 55 55 56 53 51 49 48 42 38 40 39 38 41 41 41 40 40 43 43
81 81 78 76 79 74 75 82 88 88 84 85 81 80 79 77 73 70 71 66 63 60 62 61 59 55 56 58 59 58 57 51 48 43 41 39 39 45 49 49 47 46 44 45
84 85 85 83 84 84 84 89 92 93 88 90 87 84 83 81 77 77 77 76 69 70 69 66 64 58 64 62 61 60 60 55 54 55 47 44 43 45 52 55 54 52 53 51
90 90 88 87 88 89 92 94 96 98 98 98 97 96 95 93 91 88 88 83 81 76 75 74 71 65 68 68 65 63 62 63 62 57 57 51 49 49 54 55 55 56 59 61
86 89 93 96 95 98 98 95 94 95 96 96 93 93 92 93 93 90 88 84 81 80 79 75 74 70 70 72 70 68 69 68 67 65 64 62 62 58 61 62 62 62 62 63
74 76 78 79 81 83 86 86 85 82 87 88 84 82 78 73 77 79 78 83 83 85 85 83 80 76 75 75 75 78 76 75 75 76 74 71 69 70 76 69 70 68 68 70
74 75 75 75 78 79 80 79 80 80 81 81 80 76 70 65 64 68 72 75 81 85 90 89 87 85 83 77 77 76 75 73 73 71 74 76 74 76 80 80 76 76 75 75
67 67 70 68 69 70 73 72 74 75 76 75 74 71 63 61 61 65 73 71 73 77 84 86 88 87 84 81 80 80 79 79 77 77 80 76 75 76 82 84 85 85 84 84
59 59 59 60 62 64 67 66 67 67 67 66 69 67 59 59 58 60 66 70 72 72 74 78 82 86 84 86 86 87 87 89 88 86 86 86 85 82 84 87 90 91 93 93

GFSCGP_250_spd_054.txt.gz
Wind_Speed
52 50 46 55 47 37 36 31 27 20 18 16 15 16 17 19 18 20 26 28 20 26 26 29 17 8 13 20 35 33 39 43 47 44 40 47 45 49 49 51 57 59 56 58
51 48 60 52 45 40 39 42 36 23 22 19 18 18 20 20 19 20 27 24 20 28 26 28 24 12 5 22 30 38 43 48 50 52 41 46 48 51 54 54 52 55 59 61
55 60 59 52 46 42 39 43 41 26 23 23 21 23 20 19 17 15 17 18 20 25 27 24 25 19 9 8 27 40 44 43 46 53 54 43 43 52 57 56 55 57 58 60
56 58 57 54 47 46 40 46 38 36 23 28 25 28 21 20 19 17 16 15 19 21 23 24 22 24 15 7 11 31 42 45 43 46 47 52 56 53 50 50 51 52 55 56
54 59 61 55 55 49 50 45 35 29 32 31 32 32 25 23 25 25 19 16 17 20 21 23 19 20 18 12 6 10 32 42 46 49 50 52 51 52 54 54 54 57 57 59
56 59 59 56 55 50 48 44 38 36 35 35 39 31 39 29 27 26 24 19 15 19 20 22 18 18 16 16 12 5 10 30 43 47 50 53 55 56 56 56 56 59 60 62
60 60 63 59 55 52 47 51 47 43 37 40 38 33 38 34 29 28 30 24 22 23 21 21 22 15 18 15 14 10 5 6 21 39 45 51 54 56 54 54 56 58 60 61
57 56 64 62 58 57 59 59 50 42 40 44 37 30 38 37 34 31 29 30 25 25 26 23 20 19 16 18 12 11 9 7 8 13 28 41 46 52 53 55 56 55 55 56
61 58 63 62 61 60 57 50 53 46 43 41 40 38 38 39 39 35 30 34 32 27 28 26 23 22 20 20 14 10 13 12 11 10 12 19 33 45 47 46 44 47 49 51
65 64 65 65 62 60 58 57 55 50 47 47 44 42 43 47 44 39 33 37 35 31 32 29 24 19 25 23 22 18 15 14 13 12 12 14 19 27 39 47 52 52 52 52
60 68 68 66 63 63 60 57 57 53 51 49 49 48 48 48 45 41 37 39 37 35 36 31 27 24 23 28 28 26 26 20 14 12 12 11 12 14 24 35 43 47 46 46
67 62 67 73 67 66 63 61 61 59 56 53 52 50 48 47 45 43 41 45 41 39 39 35 30 29 24 27 32 29 30 26 20 18 19 13 16 14 16 18 22 34 45 52
66 62 62 64 67 69 66 63 64 64 62 57 57 55 54 51 48 47 49 46 46 45 45 42 35 36 25 27 32 36 33 33 29 23 20 19 13 14 15 17 17 22 30 38
73 68 67 66 66 65 67 69 68 65 63 61 59 58 55 53 50 52 53 53 50 51 48 46 41 38 38 31 32 38 36 36 34 32 29 27 21 20 19 19 21 20 20 25
77 76 74 72 68 66 65 66 65 63 62 60 60 58 57 53 49 50 53 54 55 54 49 50 45 40 38 38 34 38 40 40 39 36 35 35 29 27 25 24 24 26 25 25
80 77 79 79 77 75 71 68 67 65 63 64 65 61 59 53 55 57 61 59 57 55 51 52 52 49 43 42 39 41 44 42 40 39 38 39 38 35 30 28 29 30 32 31
85 83 80 78 82 78 77 73 70 65 62 61 60 64 65 65 64 63 63 63 58 57 56 56 56 53 49 47 47 44 47 46 44 44 43 42 44 43 39 36 35 35 35 37
88 84 83 83 79 77 72 74 73 72 72 73 70 68 68 68 68 69 68 60 63 61 60 58 59 59 58 49 52 49 47 48 50 48 45 47 47 47 49 46 43 42 42 42
87 89 84 82 78 76 74 76 80 80 82 82 77 76 77 75 72 71 68 66 65 66 64 65 67 65 64 56 56 59 55 54 53 52 52 53 50 50 51 50 52 55 50 50
87 87 86 81 81 80 83 87 91 88 88 84 82 82 82 83 82 74 75 72 71 73 75 75 73 68 61 63 61 65 60 60 57 60 58 58 61 58 54 50 56 57 56 57
88 89 89 86 84 85 91 93 93 91 87 87 84 83 79 79 79 76 80 81 79 78 77 76 76 76 73 70 69 68 71 65 65 64 66 66 65 63 63 60 60 61 64 63
86 89 86 81 77 82 83 81 82 84 84 85 84 83 84 86 85 84 87 88 86 84 84 86 86 86 84 81 78 75 74 76 73 72 70 71 69 69 67 65 64 67 74 71
86 91 93 87 85 82 86 88 90 89 90 93 93 93 91 90 89 89 91 92 94 94 93 94 96 96 93 85 83 83 81 81 79 80 76 74 73 73 71 72 77 77 77 78
79 89 91 90 91 91 89 90 93 95 95 97 99 96 96 94 93 92 89 88 90 92 95 98 101 102 100 97 94 90 87 82 81 80 78 78 77 77 76 80 81 81 79 80
72 74 80 86 91 91 91 92 94 93 93 92 94 94 91 88 85 82 78 74 74 74 76 82 88 94 94 93 89 91 89 87 85 83 83 84 81 76 78 80 80 82 83 84
71 73 75 78 80 81 81 80 83 83 84 85 86 86 83 81 77 77 74 70 67 67 73 71 75 81 84 85 83 80 84 89 88 86 85 88 86 85 84 87 90 92 92 91

GFSCGP_250_spd_057.txt.gz
Wind_Speed
53 57 45 44 57 58 48 42 41 37 30 27 24 19 21 17 13 18 17 16 20 16 19 19 21 21 13 20 28 32 28 32 31 33 29 29 32 33 54 46 42 46 47 45
53 52 47 51 59 54 47 42 46 41 35 31 24 21 19 18 17 15 16 11 11 13 17 17 18 22 14 11 28 36 34 36 38 33 38 35 32 34 50 45 47 46 48 54
57 56 49 51 57 54 49 46 49 45 34 32 30 28 21 18 16 17 11 8 8 13 14 16 16 19 16 6 21 38 39 43 45 46 38 39 38 40 42 46 49 55 57 57
58 62 51 47 58 58 50 51 47 47 38 36 33 35 25 19 16 19 20 15 14 14 17 16 16 15 17 13 8 29 45 47 48 44 51 47 41 46 48 50 51 52 51 53
61 65 55 43 55 61 57 55 47 42 43 41 38 37 33 24 20 20 20 22 18 22 19 20 18 16 16 18 14 8 37 51 51 49 50 52 52 49 50 50 55 59 57 59
61 66 60 49 51 58 60 53 49 43 39 36 41 39 40 31 26 23 25 23 21 22 24 22 21 18 14 14 14 12 9 37 53 54 53 56 60 59 56 52 52 53 54 55
58 60 61 55 54 62 60 54 52 46 42 37 45 38 46 39 31 28 27 25 25 23 25 23 21 20 14 14 10 8 10 12 26 54 56 57 58 61 61 60 59 57 56 57
55 63 61 56 56 60 60 61 57 53 50 47 47 36 49 45 39 32 29 27 28 27 27 26 19 22 19 15 14 8 8 10 9 24 56 53 59 62 62 63 64 64 65 66
49 61 64 60 59 60 59 56 60 57 49 47 49 45 49 50 44 38 32 30 34 29 27 28 19 25 23 15 18 14 9 9 10 10 14 33 57 57 64 67 66 67 69 70
55 63 63 61 61 57 58 60 61 57 54 52 51 48 50 54 49 39 39 36 40 35 31 32 24 24 27 23 19 20 19 15 15 13 12 13 20 33 55 62 60 65 69 70
61 63 66 65 59 59 59 61 61 60 56 56 58 55 55 50 49 48 46 46 44 43 35 36 33 26 31 27 23 19 21 21 20 17 14 12 14 17 25 31 39 53 61 63
63 57 68 66 67 63 59 61 64 64 59 58 57 58 55 54 55 53 52 52 50 47 44 40 40 34 34 34 31 28 25 22 23 26 21 21 18 15 17 22 24 27 31 39
64 59 61 68 67 67 62 62 65 64 64 58 59 60 62 56 56 57 57 56 55 52 47 47 42 41 39 38 37 35 32 27 23 27 31 27 26 23 20 19 17 21 23 27
72 68 62 65 69 67 63 62 64 66 63 62 59 63 65 59 60 61 61 61 61 57 55 49 43 47 42 43 42 42 38 37 34 28 34 33 32 29 31 30 26 23 23 24
80 76 69 70 68 69 68 63 64 68 67 68 66 67 68 67 65 62 60 65 63 59 51 45 46 48 48 46 44 46 42 41 42 38 32 41 39 36 36 36 36 31 29 27
83 75 77 66 63 70 70 66 65 65 69 72 73 71 72 71 65 64 66 67 62 52 47 46 52 53 55 53 48 48 48 45 42 44 39 37 43 44 42 40 38 41 40 38
87 87 80 80 73 69 67 64 69 72 70 73 76 77 72 70 69 66 68 65 64 55 52 57 61 60 59 57 50 53 54 52 48 47 45 44 40 48 48 45 43 44 44 44
89 90 89 86 82 76 74 70 71 71 72 72 71 70 68 67 64 68 63 61 62 63 66 65 66 64 63 58 55 58 58 58 55 53 54 52 48 48 49 48 48 46 47 49
93 93 90 92 86 83 80 80 81 81 82 77 77 72 71 68 69 72 65 70 71 71 73 72 70 69 67 66 63 61 63 65 64 61 58 55 57 56 53 52 52 52 51 55
97 94 92 86 86 88 85 86 87 86 89 82 78 78 76 75 73 69 70 73 76 78 78 75 73 70 67 67 69 67 65 67 69 68 64 61 60 63 62 57 55 57 58 61
98 99 93 94 93 89 90 89 90 87 88 80 84 83 82 80 77 77 79 80 81 81 82 79 79 76 71 73 74 71 71 75 76 72 71 71 65 65 69 68 67 67 65 67
92 95 98 96 91 91 96 95 91 90 89 87 88 87 85 84 86 87 90 91 89 87 89 88 86 86 85 83 82 80 79 78 77 77 76 77 80 74 74 74 75 75 74 71
83 92 100 96 94 93 89 85 88 90 88 89 89 89 90 92 93 93 95 94 91 88 94 96 92 88 83 84 84 88 89 84 85 87 88 87 88 85 82 81 79 80 80 80
78 87 90 94 100 97 93 88 91 90 91 90 91 93 94 96 98 99 101 97 94 95 91 89 89 91 92 92 94 95 95 94 94 97 98 97 96 92 88 88 88 87 87 83
76 77 85 86 88 92 97 98 99 98 96 96 96 96 93 93 94 95 96 96 93 93 93 92 90 91 93 95 96 99 102 104 103 103 103 104 101 99 98 96 94 90 87 88
73 74 76 83 86 88 90 88 90 92 95 98 99 95 94 95 95 95 95 94 93 90 86 84 80 79 80 82 85 86 86 85 87 87 88 86 85 86 89 89 90 92 91 91

GFSCGP_250_spd_060.txt.gz
Wind_Speed
38 40 42 45 41 42 44 37 44 49 44 39 37 33 35 29 25 20 17 18 17 17 16 17 18 16 23 18 16 28 31 26 23 23 24 26 27 29 29 37 38 48 45 39
38 42 44 43 47 42 32 35 43 46 43 39 36 32 33 29 27 24 17 14 12 12 10 15 13 15 19 23 18 23 25 27 26 25 27 29 27 29 25 30 46 49 40 43
42 46 46 41 39 38 33 34 47 48 45 42 36 36 33 31 23 23 22 14 13 10 11 15 19 14 14 20 17 19 20 32 27 33 31 32 30 28 27 35 47 48 45 44
46 49 44 45 40 39 44 43 50 51 47 43 41 38 35 30 24 23 21 18 16 16 19 20 19 22 15 14 15 14 20 36 37 32 35 34 36 34 31 30 46 38 44 44
50 52 50 47 32 41 45 48 52 53 48 48 41 42 40 34 29 26 23 20 19 19 18 18 21 22 21 14 12 15 12 21 42 37 38 37 34 38 38 34 34 51 41 50
46 55 52 51 47 47 43 46 50 54 48 47 47 47 42 38 34 30 25 22 21 20 19 21 20 20 19 15 13 11 12 10 25 45 42 39 42 42 38 41 43 43 46 46
45 52 53 54 50 47 45 44 48 53 49 46 51 52 45 40 35 32 31 28 25 25 21 22 22 20 16 19 17 10 9 7 7 31 45 48 49 49 49 47 47 51 53 56
49 51 53 52 51 49 47 46 44 52 56 56 55 43 46 42 33 38 39 35 28 30 25 24 23 25 18 18 19 16 13 9 4 4 17 49 44 50 51 53 57 55 57 58
56 55 54 58 58 56 49 47 43 43 60 58 54 50 46 45 40 38 39 38 33 33 28 29 27 26 24 20 23 21 17 16 12 11 7 11 20 55 47 53 56 60 65 67
63 63 63 59 58 56 52 53 57 54 58 58 57 54 50 53 47 41 39 42 39 34 32 36 33 31 30 26 24 24 20 19 23 20 17 12 12 15 30 48 50 59 66 64
66 60 58 57 48 55 57 55 56 55 55 56 58 59 60 54 51 50 50 46 42 40 39 40 39 33 33 33 29 27 25 22 22 24 24 19 17 14 15 20 29 42 48 52
70 66 61 59 54 54 61 59 58 55 56 54 55 59 60 57 52 54 53 50 48 46 46 46 44 39 35 37 32 29 29 27 25 27 26 26 26 24 21 19 20 25 29 36
72 68 64 56 57 53 54 60 58 55 58 58 58 56 60 60 60 59 53 52 53 52 50 49 46 44 41 41 44 35 32 33 30 31 32 30 27 31 29 27 27 26 24 26
73 69 67 62 58 61 62 63 62 61 58 59 59 59 66 63 62 62 60 54 56 55 53 49 47 45 43 46 48 43 40 34 33 33 37 37 36 33 34 36 37 36 33 32
74 73 69 64 66 62 56 59 60 61 64 63 59 63 61 66 70 65 59 56 59 58 54 52 50 49 45 49 50 49 44 43 40 38 40 43 43 43 40 36 43 44 41 41
80 74 79 77 66 66 61 60 62 65 64 66 60 63 67 72 68 62 58 59 61 60 56 57 53 52 52 54 47 46 48 47 47 46 44 49 49 47 45 43 40 39 50 46
89 82 78 78 74 64 62 63 66 67 64 65 66 67 69 70 66 61 66 66 59 62 62 59 60 57 58 57 52 51 52 55 53 50 48 51 53 51 49 50 50 50 46 44
94 91 89 84 75 75 71 67 69 68 69 69 68 70 67 64 62 70 64 61 65 66 66 66 65 64 62 59 56 53 62 65 62 55 54 55 57 56 60 59 58 56 56 55
92 97 93 91 84 79 76 74 75 72 70 72 74 73 68 67 68 70 69 71 72 73 74 73 70 66 62 59 61 63 65 66 65 63 65 64 62 61 63 63 62 61 61 60
91 90 98 97 91 85 81 78 70 70 75 77 76 73 67 67 74 72 70 71 73 72 71 72 70 69 66 70 71 73 76 75 74 71 65 62 62 61 65 67 67 66 65 67
94 94 91 101 97 93 89 87 83 80 77 70 69 69 71 74 74 76 73 73 72 75 74 72 71 71 73 77 80 81 83 82 81 76 71 70 66 67 69 71 73 70 67 70
89 94 94 94 103 98 94 94 88 88 88 83 78 75 80 79 80 82 82 81 80 81 78 76 75 75 80 82 84 85 86 85 83 82 83 77 76 78 79 79 79 74 75 77
83 89 97 98 93 97 105 100 97 95 95 92 89 86 88 87 88 88 90 88 88 87 89 90 86 83 90 89 89 89 91 90 91 93 91 91 88 87 84 83 83 83 84 83
75 80 86 94 100 99 95 93 95 98 99 97 97 97 95 94 93 94 92 94 93 89 89 88 87 90 92 95 96 96 98 97 99 97 97 94 91 90 92 91 90 87 85 90
74 75 82 86 97 102 99 99 98 97 95 95 94 93 93 96 97 98 99 101 100 100 102 100 98 99 101 102 102 102 103 101 102 97 98 99 98 100 101 101 100 100 101 101
73 75 73 80 86 92 100 107 102 101 98 96 94 94 94 96 98 99 101 100 101 102 103 103 100 101 103 102 101 104 104 102 99 101 102 102 102 101 102 102 100 98 97 99

GFSCGP_250_spd_063.txt.gz
Wind_Speed
52 43 26 33 40 44 42 44 47 46 44 37 40 41 39 35 35 33 33 27 27 22 18 10 12 14 14 18 19 17 20 30 30 29 39 63 65 56 59 60 65 61 65 51
48 35 31 37 44 48 47 45 47 47 37 27 43 38 36 33 35 35 30 25 20 18 17 1 10 14 15 18 16 19 16 24 32 28 34 41 50 59 59 54 50 57 58 52
44 38 39 40 48 52 51 46 51 36 30 29 40 38 39 35 34 34 28 24 24 17 17 10 13 15 16 19 15 14 7 16 27 30 25 32 35 39 39 47 55 55 49 48
45 37 39 41 47 46 48 48 47 38 30 33 44 41 36 35 35 33 30 29 26 21 21 16 14 15 15 18 16 13 11 11 24 28 28 23 26 27 29 32 33 35 36 38
45 37 43 39 47 49 47 49 38 32 30 37 46 40 39 37 35 35 31 28 23 22 20 20 16 15 15 15 17 15 13 11 11 34 30 26 25 29 34 32 29 28 33 39
42 43 47 43 44 44 45 39 31 32 31 39 46 42 41 41 40 37 31 27 27 22 22 21 16 15 15 13 14 17 17 12 10 12 38 33 32 30 38 36 31 31 38 47
43 40 50 51 43 41 45 36 35 34 34 37 50 46 47 48 43 42 38 31 31 26 23 22 22 18 16 18 15 15 16 16 12 10 12 40 41 36 40 36 39 39 40 46
44 42 54 54 51 47 50 42 38 41 38 39 53 44 48 52 47 45 39 40 37 32 28 25 25 23 21 21 20 17 16 16 17 13 10 11 35 43 41 43 44 41 38 40
49 48 51 54 56 55 47 39 40 46 43 36 46 51 56 50 49 47 47 42 40 39 34 29 30 29 26 22 22 23 18 20 17 17 19 14 14 25 32 40 50 47 49 51
59 50 51 56 59 56 55 46 50 46 45 43 27 52 55 52 49 52 48 42 39 40 42 40 31 28 29 26 26 25 25 19 21 20 18 22 23 21 20 18 26 48 52 54
67 63 55 54 51 52 55 56 47 51 47 44 42 36 40 54 54 50 47 45 46 43 38 38 31 31 33 32 31 28 29 26 22 20 21 19 19 22 25 22 21 27 35 45
70 70 67 60 53 59 58 59 57 50 53 46 45 46 49 53 56 57 56 52 47 41 38 40 38 35 35 37 35 34 31 33 28 24 25 26 26 23 20 26 28 28 27 29
69 77 76 67 60 59 58 59 57 55 55 53 48 46 49 50 56 60 60 57 53 46 45 44 43 43 38 38 37 39 37 36 38 35 33 33 34 32 29 27 27 29 32 32
71 76 73 74 63 61 60 60 61 56 56 56 52 49 50 49 51 54 57 58 55 52 52 50 44 45 46 46 46 43 38 36 38 44 47 40 34 33 33 32 35 36 33 33
75 79 74 72 70 65 72 69 63 58 57 59 56 53 53 54 60 61 57 56 49 47 53 55 52 54 50 50 48 45 43 42 40 40 46 46 44 38 39 39 40 42 41 42
80 81 81 79 78 71 69 64 62 58 53 60 60 60 61 58 60 68 68 59 54 52 53 50 50 52 51 49 51 50 48 45 46 46 45 44 49 47 45 45 46 44 49 48
84 80 84 84 79 78 75 68 59 63 58 59 65 70 70 68 66 68 67 56 55 53 52 54 52 50 50 48 48 51 52 53 49 50 50 53 55 55 53 51 50 49 48 50
87 84 81 82 83 81 80 71 61 62 71 72 76 74 76 73 72 67 59 54 55 52 53 57 57 56 55 52 51 51 52 53 54 52 51 57 60 58 60 62 57 56 58 58
91 89 88 82 83 82 82 79 69 70 73 72 71 69 74 74 66 65 67 62 54 52 58 62 60 59 58 58 59 59 59 60 60 57 58 60 65 65 63 61 63 63 66 63
83 93 89 90 85 83 84 83 75 78 79 74 69 70 68 64 68 72 68 62 61 63 67 62 61 62 63 64 66 67 66 65 63 63 63 62 61 64 68 72 72 73 74 67
75 92 94 92 87 85 85 82 87 85 75 66 69 71 67 72 74 73 69 66 66 71 70 67 65 65 68 67 67 68 67 67 66 66 65 68 69 71 72 74 78 79 78 75
71 79 87 99 94 91 90 82 80 82 82 78 71 73 70 71 73 70 66 69 72 73 70 70 70 71 71 71 70 71 72 73 72 70 69 73 76 81 81 83 84 82 82 79
65 69 80 87 93 98 96 94 85 79 79 82 79 76 76 77 74 74 73 72 76 76 75 75 74 74 75 76 77 78 78 77 73 74 77 83 86 86 88 91 92 91 91 90
59 62 70 84 90 89 98 101 94 95 92 87 84 79 74 74 74 74 73 72 72 73 74 77 79 82 83 84 86 87 87 89 89 88 87 87 89 94 95 96 96 97 98 97
56 59 65 74 82 92 92 97 99 99 98 94 95 95 90 86 85 82 83 84 84 85 87 88 89 91 93 94 95 94 94 94 95 94 91 96 94 97 102 104 106 108 107 108
52 57 62 65 70 80 97 98 94 98 100 101 102 102 102 98 98 97 97 99 99 99 99 99 100 100 101 102 104 104 104 107 109 107 106 108 107 106 106 108 110 111 109 107

GFSCGP_250_spd_069.txt.gz
Wind_Speed
75 78 81 77 78 82 81 78 83 58 53 32 32 40 39 39 39 42 44 43 39 37 29 28 31 28 23 23 23 17 19 21 24 15 14 26 29 36 36 32 44 48 48 52
76 78 80 77 75 74 78 81 72 48 40 28 31 37 39 40 48 44 46 42 38 33 29 28 27 27 22 18 14 13 16 15 19 16 14 22 27 38 41 40 36 44 44 50
73 75 79 75 72 76 76 72 55 45 30 27 33 45 44 44 47 47 41 38 34 32 27 27 28 24 22 15 13 12 14 11 14 16 10 17 24 32 41 43 41 44 49 50
75 78 79 76 78 78 67 69 48 40 28 26 33 46 40 48 47 44 39 33 30 29 24 27 29 25 24 18 16 12 11 13 11 12 11 10 21 22 32 40 44 48 50 52
81 81 79 77 76 73 64 54 36 35 29 26 39 49 45 47 44 43 39 38 42 37 26 26 30 27 26 21 16 11 7 8 11 9 11 4 17 25 25 23 26 39 46 58
83 78 77 76 72 65 47 43 35 35 33 30 39 50 47 51 52 51 48 46 46 39 33 28 30 29 29 23 18 13 10 6 7 10 9 9 3 19 24 26 24 25 31 34
81 80 76 73 70 57 39 39 36 35 31 33 44 45 53 59 61 55 49 42 45 45 41 35 33 31 32 26 19 15 12 11 6 6 8 9 9 5 14 25 25 22 25 29
81 79 71 68 52 43 37 39 36 34 34 41 50 42 59 60 57 50 41 38 42 44 44 40 39 34 33 28 24 20 16 12 9 8 6 8 9 9 5 3 23 29 26 28
82 81 65 54 41 40 38 38 37 37 39 45 53 46 57 62 58 51 44 42 42 41 40 40 36 34 35 32 26 24 20 17 12 11 10 9 8 11 12 12 8 5 13 24
72 63 51 42 41 39 39 44 40 39 44 47 59 51 55 61 57 49 44 45 42 43 39 37 37 37 38 35 30 26 26 22 18 15 14 14 13 13 15 15 18 19 17 14
63 52 43 41 42 39 43 45 44 40 42 55 53 54 48 64 58 52 48 45 41 42 43 42 41 41 39 36 36 35 29 26 26 24 19 16 16 17 19 20 20 21 22 20
53 47 43 46 44 43 52 50 49 47 47 55 55 61 49 53 61 56 52 48 46 45 45 46 45 44 41 43 43 41 37 33 31 31 30 26 22 20 20 21 22 23 23 23
53 49 47 49 47 47 58 56 55 52 55 57 55 62 53 51 59 62 58 54 51 50 45 42 44 45 42 42 43 46 46 40 38 38 34 34 32 26 25 26 27 27 26 24
56 53 50 50 49 49 58 61 62 56 58 62 60 55 56 49 51 61 64 59 56 55 55 50 45 44 44 45 45 44 42 40 42 42 38 37 34 34 31 32 31 31 30 30
57 58 57 54 55 54 62 66 68 62 61 65 64 56 54 53 50 51 64 63 60 58 58 54 51 50 49 48 47 45 44 41 41 44 40 39 38 38 40 38 37 36 35 34
59 64 64 60 62 57 58 71 73 71 64 68 68 59 51 53 55 52 56 61 63 58 54 55 56 57 55 53 51 49 47 46 44 44 42 42 43 44 45 44 42 43 42 41
59 63 64 64 64 62 57 71 76 74 71 67 70 68 62 49 52 52 56 56 58 61 62 57 53 55 53 53 56 55 53 49 47 48 48 47 46 45 46 47 47 48 49 47
58 62 63 65 64 64 62 68 74 77 76 71 66 70 68 65 58 52 52 52 58 58 57 58 60 57 56 54 53 54 52 52 53 53 52 51 50 50 49 50 51 52 53 53
56 57 59 64 65 62 67 68 73 75 76 78 69 65 67 67 65 58 50 52 54 54 63 69 68 66 63 63 61 58 57 56 56 57 57 56 56 56 56 55 55 56 56 57
54 57 57 61 65 63 70 67 72 73 72 73 73 74 68 67 71 67 63 64 70 64 63 62 61 72 68 68 64 62 63 63 63 62 62 62 62 62 62 61 62 63 64 64
50 53 57 62 65 64 70 68 72 75 77 73 71 69 75 79 78 78 73 70 73 72 71 74 74 76 72 71 71 69 66 65 66 67 68 68 68 67 66 67 68 69 69 69
50 52 58 62 65 65 71 68 70 73 80 78 73 76 77 80 77 81 78 76 76 76 77 77 76 74 75 74 75 75 72 70 70 70 69 69 71 72 71 70 69 71 72 73
52 53 56 61 65 66 66 67 69 77 77 82 79 79 79 80 80 82 82 85 82 81 79 78 76 78 82 81 81 82 80 76 77 76 76 77 76 76 76 77 74 74 75 75
53 56 58 55 59 63 66 67 69 77 79 76 82 88 87 88 91 91 92 84 84 85 85 84 81 79 78 78 80 81 77 74 74 77 78 78 77 76 76 77 79 80 80 79
52 50 47 46 49 58 63 66 67 80 83 81 80 83 88 91 93 93 88 88 87 89 88 90 87 86 85 85 81 78 79 82 82 80 78 77 77 78 80 82 83 84 83 81
47 43 44 46 51 56 60 64 69 77 87 85 83 83 87 90 89 92 93 88 88 88 90 90 88 86 86 86 84 85 87 86 86 86 86 86 87 87 88 90 90 89 87 86

GFSCGP_250_spd_072.txt.gz
Wind_Speed
72 72 72 75 69 67 64 63 67 70 77 79 68 58 53 42 30 31 36 45 49 47 44 39 36 32 26 23 18 17 16 18 22 22 19 16 16 23 26 24 21 27 32 40
66 58 70 68 66 63 63 66 68 72 76 76 71 60 46 33 28 28 41 46 47 46 40 39 34 28 23 22 18 16 14 12 14 17 15 14 17 25 32 27 30 24 33 36
64 62 59 63 67 68 68 68 67 71 77 74 63 41 38 29 25 38 46 47 46 42 40 37 31 26 24 21 19 16 13 9 11 11 14 10 17 26 37 32 27 27 27 32
61 62 63 66 68 65 66 69 67 67 72 69 47 29 37 25 34 44 46 48 47 42 40 34 31 27 24 22 22 16 14 12 8 7 11 10 10 21 35 40 33 36 32 33
67 70 68 67 69 67 65 66 67 70 72 58 38 32 40 27 42 46 51 52 50 46 39 34 33 29 25 23 24 18 14 10 4 5 7 10 4 13 25 37 35 33 35 36
76 70 68 69 69 71 70 70 68 68 63 47 33 33 38 31 49 53 51 52 53 48 41 36 31 28 29 27 25 20 16 13 6 1 4 5 8 9 19 23 28 28 26 28
77 79 77 76 76 74 73 69 65 63 55 36 34 34 46 37 51 53 54 55 52 46 39 37 36 35 33 31 30 23 20 15 10 5 0 4 4 4 7 20 25 27 26 23
77 76 75 78 79 76 75 65 58 56 46 35 37 35 47 38 50 51 54 56 48 44 40 40 40 38 38 33 34 26 22 17 13 11 7 5 0 5 3 3 12 25 27 26
80 80 80 81 78 76 69 60 57 44 38 35 42 40 51 49 53 55 54 54 46 44 45 43 39 39 36 32 33 32 26 25 21 16 14 11 9 5 1 2 3 2 7 21
83 80 78 79 76 69 64 53 46 40 39 35 45 44 48 52 54 54 53 55 49 46 44 41 39 36 36 32 32 34 30 29 26 21 16 14 11 10 8 7 6 5 6 5
81 80 77 76 75 67 59 47 41 42 39 37 49 41 51 55 49 58 60 60 52 48 45 42 39 37 38 40 40 39 35 33 27 26 24 19 16 14 14 13 13 13 11 9
82 84 78 78 70 64 58 46 42 44 42 39 52 43 53 54 52 56 58 61 53 49 46 43 42 43 42 41 42 42 39 37 35 33 28 28 27 22 20 20 18 18 17 16
72 70 74 71 58 55 47 44 42 46 46 44 49 46 50 51 52 55 58 60 56 51 48 46 44 43 43 43 42 42 42 41 40 39 35 36 33 32 29 29 27 24 24 23
62 62 67 67 51 43 47 46 47 54 51 48 48 49 48 47 53 52 59 61 57 51 49 48 46 46 46 46 45 46 45 46 45 44 43 41 40 38 36 34 33 31 29 30
57 57 58 58 50 48 51 50 50 59 55 53 54 53 54 55 56 55 65 62 61 56 51 50 49 49 50 51 51 47 46 47 47 43 41 39 39 41 42 40 37 36 38 37
57 53 52 53 50 53 55 53 51 62 58 53 50 54 57 56 58 59 60 65 64 64 60 56 52 51 53 52 52 51 51 49 45 42 42 42 41 41 42 43 42 41 41 42
50 50 50 51 51 56 59 59 56 62 63 59 55 58 55 56 63 60 59 63 64 63 63 62 59 58 56 55 54 53 52 51 51 50 48 46 46 45 46 46 48 48 47 47
50 51 50 53 54 58 62 61 61 61 68 65 61 61 58 59 64 62 61 60 64 64 63 65 64 62 61 60 59 58 58 57 55 54 54 55 55 54 52 53 53 53 52 52
51 50 52 52 51 58 61 61 62 61 72 70 67 66 61 60 55 64 59 59 60 63 66 67 69 67 64 62 60 59 60 61 59 59 59 59 60 61 61 61 60 58 59 59
51 52 52 51 53 57 62 64 65 62 73 73 73 72 69 66 58 53 62 65 64 65 66 67 69 68 67 64 62 63 63 64 63 62 60 60 61 61 61 63 65 66 64 64
49 50 51 53 53 57 64 65 66 66 66 76 77 74 75 70 67 62 59 65 71 71 71 72 72 73 70 69 69 71 69 68 66 64 64 64 65 67 67 67 68 68 68 69
50 50 52 54 55 62 62 64 67 68 66 72 79 78 77 78 76 73 73 69 66 71 67 69 73 76 80 80 79 75 76 76 74 69 68 67 71 74 76 76 74 74 75 75
50 52 54 52 57 61 63 65 68 71 68 68 78 81 79 80 78 78 77 79 81 79 75 74 71 68 72 75 75 79 79 78 77 75 79 77 78 78 76 76 77 78 80 81
53 54 54 53 55 59 61 65 68 71 71 72 68 83 83 81 87 83 86 91 93 90 87 84 81 80 75 79 85 83 79 79 80 78 78 79 80 80 80 80 79 81 83 87
54 54 56 49 49 54 59 61 66 70 72 73 73 72 85 82 82 87 93 97 92 92 92 86 87 88 88 87 88 84 84 85 87 86 85 85 82 83 82 83 84 82 82 82
53 54 46 47 48 50 54 58 63 68 70 72 70 70 81 89 88 88 90 94 92 94 96 94 92 92 92 91 90 91 93 93 92 92 91 92 93 95 92 91 90 88 90 89

GFSCGP_250_spd_078.txt.gz
Wind_Speed
62 59 60 61 61 67 71 75 69 69 61 49 50 58 61 67 65 65 67 70 64 71 66 57 46 38 42 40 35 35 37 32 35 27 23 23 24 26 27 30 28 32 33 33
57 58 56 54 56 65 66 67 72 65 67 55 58 61 61 62 61 63 62 66 67 65 56 47 37 40 44 36 36 39 35 35 31 22 21 20 21 23 25 25 26 31 32 37
55 57 56 53 55 58 59 66 64 64 71 61 60 62 62 63 63 62 66 64 61 56 49 38 38 40 39 36 39 38 36 33 27 21 15 15 18 22 24 22 27 29 29 31
54 59 58 57 56 55 59 60 71 69 68 73 61 59 62 60 63 65 64 60 52 47 39 35 38 41 39 40 40 38 35 33 25 19 14 15 16 20 20 26 29 30 31 29
49 56 57 59 56 57 57 64 64 65 64 61 63 62 57 59 63 61 56 51 52 43 34 35 40 38 40 41 41 40 36 29 24 20 14 15 14 16 19 31 30 31 29 29
51 52 58 57 56 54 58 62 67 64 68 65 67 61 55 54 56 53 57 50 43 35 35 35 33 40 44 43 42 40 35 28 26 19 15 13 12 13 20 33 32 33 31 29
52 52 59 61 59 55 54 59 55 55 60 65 61 60 54 48 54 57 54 48 37 33 34 32 38 46 46 48 45 41 34 30 28 21 17 12 13 11 19 33 36 40 34 32
55 55 56 61 64 63 59 58 58 58 59 57 52 53 55 54 56 55 51 48 35 36 37 36 45 47 49 48 44 40 35 30 32 25 20 15 12 12 17 29 40 42 39 39
54 60 61 63 64 65 66 64 59 56 52 52 54 56 57 59 58 59 51 42 36 40 41 42 48 48 52 51 47 40 35 33 33 30 25 21 16 12 12 17 31 45 44 41
53 58 65 67 66 68 63 61 62 61 60 59 59 62 60 58 58 58 51 38 40 44 45 45 49 50 53 52 47 42 36 36 37 34 30 26 21 17 14 14 15 35 42 44
56 57 60 68 71 70 68 67 64 63 66 66 65 64 63 62 57 55 45 37 43 47 48 44 50 51 51 53 49 44 39 39 39 37 32 31 27 24 22 20 20 18 19 25
59 57 59 66 69 70 71 71 70 69 66 66 68 65 58 56 49 48 41 40 48 51 53 45 49 51 53 52 50 44 42 40 40 40 35 31 31 29 28 26 26 24 22 23
62 60 62 64 66 70 73 72 73 69 69 68 67 64 50 48 49 43 41 46 51 54 55 48 48 52 54 53 50 47 48 44 43 42 43 38 34 33 33 30 29 28 27 26
58 61 64 63 65 67 71 74 72 71 70 69 66 61 50 45 41 44 43 49 51 58 57 53 47 51 53 54 53 53 51 48 45 42 48 45 39 36 36 34 33 32 31 31
58 56 62 65 63 64 68 69 70 68 67 66 62 49 38 42 41 45 47 50 53 60 58 56 50 49 52 57 55 55 51 51 48 45 48 47 46 44 42 40 38 36 34 35
59 56 59 64 66 66 62 64 67 67 65 63 55 37 39 47 45 47 50 51 53 61 61 57 53 54 54 57 59 57 55 52 51 49 50 50 48 49 48 46 45 44 42 41
63 60 59 61 65 60 59 58 60 63 64 60 47 38 44 50 52 49 51 53 53 58 61 57 56 56 55 58 60 58 58 54 53 53 54 54 55 52 52 52 51 50 48 45
63 59 57 57 57 58 55 56 55 60 60 57 47 42 53 54 56 53 53 54 53 59 55 54 56 57 58 60 61 58 58 57 58 58 59 57 57 57 57 58 56 55 53 51
57 55 53 49 48 49 53 55 56 58 56 51 45 52 56 58 62 61 61 52 57 61 56 45 60 59 55 59 63 62 58 59 59 59 61 60 61 62 64 63 61 59 58 56
51 45 46 42 46 50 51 53 54 53 51 48 49 60 58 61 64 65 63 58 60 65 72 67 60 61 59 60 64 65 64 61 60 61 61 62 61 62 65 68 67 63 60 60
39 41 44 44 51 53 51 50 53 54 52 56 57 64 61 64 66 64 66 61 63 63 70 70 66 63 61 63 65 67 68 67 65 63 61 63 57 68 69 68 66 65 66 68
35 42 43 48 51 54 51 52 55 54 54 58 61 66 63 67 70 65 64 66 61 62 67 67 66 65 65 64 64 66 69 70 68 66 64 65 68 70 70 71 76 74 75 77
44 46 53 55 55 57 54 53 56 55 55 60 66 68 61 68 70 71 68 73 67 66 67 68 68 68 67 65 64 65 67 68 71 74 76 76 79 76 79 80 82 83 84 85
44 48 53 51 53 56 54 49 55 55 56 62 70 70 65 65 76 72 75 73 75 70 69 69 69 71 71 72 71 70 70 70 71 73 74 76 77 81 86 86 87 87 86 89
45 47 51 54 55 52 49 48 54 56 57 63 72 76 73 68 69 78 79 76 74 76 75 73 74 76 76 75 75 75 76 78 79 81 81 81 81 83 84 87 89 92 90 90
45 46 51 53 51 47 49 51 53 58 59 65 74 78 78 76 72 75 79 81 79 76 78 80 79 80 80 82 82 81 82 82 83 85 84 85 86 88 91 93 94 94 96 96

GFSCGP_250_spd_081.txt.gz
Wind_Speed
86 78 74 72 67 62 60 57 57 59 61 59 56 49 53 64 57 49 55 56 62 67 70 71 72 72 71 70 67 61 43 36 36 31 32 33 37 37 36 36 36 39 39 40
77 71 67 63 62 56 55 55 55 57 59 50 54 60 62 65 52 50 60 63 67 70 69 69 73 74 74 64 62 46 38 38 30 31 32 33 36 35 34 34 35 36 37 39
69 65 61 58 55 55 53 51 51 47 49 47 54 57 63 59 49 49 60 62 61 61 63 69 76 74 66 61 49 38 38 36 30 32 31 32 35 31 32 30 31 32 32 35
63 61 57 57 53 53 52 50 47 48 52 50 51 55 63 65 53 63 63 63 62 63 65 71 71 64 59 52 37 36 39 30 31 32 32 34 29 31 25 28 28 26 28 34
61 56 55 53 53 51 54 49 51 55 49 47 50 60 60 64 68 64 64 63 58 61 69 70 62 56 50 37 33 41 34 32 33 34 34 33 27 24 23 21 23 23 27 30
56 53 53 53 51 52 54 54 54 49 47 47 52 61 60 68 68 70 63 56 57 59 67 64 56 47 36 31 40 38 35 35 35 34 36 30 26 22 20 19 22 26 31 32
52 53 51 51 52 50 54 59 57 51 47 52 55 60 61 62 62 61 62 58 57 62 62 55 54 36 33 37 42 38 37 37 36 34 34 27 25 20 15 18 23 28 32 33
51 52 47 51 54 51 53 57 59 56 53 53 56 58 61 60 60 61 57 55 62 62 57 52 41 33 35 44 44 42 41 39 38 33 29 28 24 19 16 14 24 32 33 31
52 49 44 51 56 54 57 56 55 54 56 56 55 58 63 64 65 66 63 58 60 56 56 48 31 34 45 47 46 44 44 41 39 34 29 30 26 20 16 11 24 34 36 32
52 49 47 49 56 57 61 59 58 55 53 54 56 55 58 59 57 54 54 55 58 54 52 40 33 40 49 50 49 46 47 43 41 36 33 32 29 21 16 15 20 40 38 37
54 52 53 47 55 62 59 63 63 62 59 58 56 55 54 54 50 51 54 57 57 53 49 38 37 43 48 54 53 51 49 44 41 39 36 34 31 25 20 18 18 31 44 45
59 56 56 53 55 58 63 63 66 66 62 61 59 56 58 57 57 58 57 60 59 53 48 37 42 48 55 56 56 55 51 46 41 39 39 36 34 31 27 24 21 21 30 48
59 54 57 57 56 54 62 66 69 70 67 63 62 64 65 65 64 63 63 63 51 51 41 39 45 51 56 55 57 56 53 48 44 41 42 40 38 35 33 30 28 25 25 27
56 54 53 55 61 58 61 65 71 71 71 69 66 64 66 66 62 63 64 59 44 42 39 44 46 52 56 55 56 55 57 55 49 47 43 42 42 41 36 36 35 34 32 31
57 58 55 53 59 62 59 61 71 73 71 72 73 68 66 64 63 61 60 43 40 38 44 46 48 48 52 54 54 54 58 57 55 52 46 42 44 45 43 40 38 38 38 37
56 60 53 51 56 63 65 64 64 70 70 68 70 72 69 65 64 58 52 35 36 41 44 45 51 52 50 51 53 53 56 58 59 56 50 46 46 46 46 47 44 43 42 41
50 57 54 54 55 60 66 65 64 67 72 70 69 66 62 60 57 52 38 35 44 43 46 44 53 57 52 49 51 54 56 58 57 56 53 52 50 49 48 49 53 51 48 47
49 54 55 54 56 57 61 65 66 65 65 68 68 63 62 59 53 42 39 42 47 47 47 46 49 58 54 49 50 52 55 58 57 57 56 56 56 55 54 54 57 55 53 54
47 51 58 60 58 55 59 60 60 62 63 63 61 60 58 55 46 36 41 49 48 48 49 50 48 56 52 51 51 51 53 55 57 59 60 60 60 60 59 59 60 60 59 58
46 51 54 54 53 51 52 53 48 57 56 60 61 59 55 53 46 41 48 53 54 51 53 51 46 46 51 56 53 54 56 56 58 58 60 62 64 62 61 63 63 62 64 66
42 46 47 40 38 46 53 48 48 55 57 59 63 62 57 50 47 48 56 55 59 54 48 53 43 54 52 55 52 58 54 57 61 61 61 62 62 64 65 67 67 65 64 65
37 39 37 35 38 49 49 48 47 49 54 59 60 64 59 55 50 59 61 60 62 61 59 62 67 69 69 65 62 59 61 64 64 64 65 64 64 66 69 67 69 68 64 64
36 36 38 38 40 48 49 51 49 50 51 56 57 55 56 55 58 66 63 67 66 71 75 73 73 72 69 71 72 69 74 69 67 67 65 60 57 58 75 73 73 65 70 78
34 35 35 39 43 49 52 54 54 52 49 53 55 53 55 62 66 70 69 71 75 74 78 78 78 79 74 69 69 69 70 71 72 72 73 73 75 76 75 78 80 81 81 85
26 31 37 41 44 49 51 55 56 53 51 51 55 56 59 66 72 74 72 76 78 81 78 77 77 85 86 82 77 77 77 75 76 75 75 77 78 80 81 82 82 86 86 88
30 34 40 46 48 53 57 53 48 47 48 49 53 59 62 69 76 77 74 75 81 82 81 84 82 84 85 88 90 90 88 86 85 83 82 80 80 82 82 84 86 88 91 93

GFSCGP_250_spd_084.txt.gz
Wind_Speed
95 97 94 95 97 88 85 77 68 62 61 59 55 54 53 53 52 53 54 52 53 56 54 53 57 55 58 64 64 67 68 72 73 74 55 38 37 42 40 38 38 40 42 47
95 94 98 89 81 80 78 74 64 59 57 52 49 49 48 48 47 51 52 48 56 56 52 52 53 52 54 62 66 68 71 75 73 65 44 37 41 41 37 36 37 38 40 43
98 97 86 78 81 80 72 65 59 54 50 46 48 47 42 41 45 46 47 51 46 48 52 48 52 59 58 65 63 68 72 76 73 52 38 39 42 38 35 34 35 37 37 40
93 91 85 78 73 75 64 62 54 51 47 43 46 35 33 41 41 44 42 43 50 49 46 49 58 60 59 67 69 73 77 71 51 39 39 41 40 35 33 33 34 36 37 39
92 83 78 75 72 65 60 54 48 49 44 42 36 33 32 39 44 45 49 51 55 48 51 58 64 63 67 69 71 72 71 51 36 41 40 40 36 33 32 33 34 33 37 36
87 83 77 69 64 57 57 49 44 46 45 35 43 35 38 46 51 54 55 54 57 53 54 59 61 65 67 69 70 68 48 37 39 41 42 38 35 31 32 31 28 31 29 30
84 79 75 66 58 53 53 47 43 44 46 38 41 39 45 36 49 56 55 53 56 57 56 58 63 69 71 71 66 49 36 37 42 42 39 36 34 32 30 27 26 26 25 25
81 75 73 54 56 53 50 46 44 43 46 43 43 40 40 42 40 51 50 49 56 62 62 62 63 67 68 56 46 36 36 42 42 42 38 36 32 31 26 25 27 23 22 25
73 66 64 56 51 51 47 45 45 43 48 46 47 43 41 43 42 38 49 52 59 58 61 62 62 62 55 45 46 32 41 42 43 40 37 33 33 30 24 27 24 22 25 25
70 60 58 54 47 47 44 44 46 46 48 51 52 50 43 47 49 48 49 51 51 55 53 56 58 54 46 41 35 37 43 44 43 38 37 36 34 29 26 28 25 23 32 32
62 61 49 51 37 46 44 44 50 53 48 51 55 54 53 56 51 53 49 44 49 55 57 58 56 42 33 37 29 37 44 44 44 39 40 37 35 30 28 24 25 25 37 37
57 59 50 48 39 45 44 44 52 53 54 52 54 58 57 64 62 51 52 54 53 51 53 51 53 47 34 34 32 47 52 48 49 44 41 39 36 32 29 25 24 23 34 41
52 55 50 46 46 46 47 46 54 58 63 58 60 62 65 68 61 57 54 52 50 51 52 54 56 48 42 39 45 54 56 56 53 47 43 42 40 37 33 29 26 24 24 38
50 55 51 48 48 48 50 52 55 55 64 66 66 65 67 61 59 56 52 48 53 56 55 57 56 49 36 44 54 58 59 60 55 52 48 44 42 41 37 33 30 29 27 25
47 53 52 50 48 48 51 54 55 58 65 69 70 72 67 62 59 55 51 54 57 58 61 60 57 48 40 47 60 60 60 63 59 55 51 45 44 43 41 39 36 35 34 32
47 48 46 46 49 49 43 50 60 56 68 71 74 73 68 66 66 64 60 61 64 62 62 56 49 43 41 49 58 62 62 64 64 58 55 50 46 42 42 44 43 41 38 40
42 42 39 46 48 44 42 51 57 61 73 70 66 69 68 68 68 67 63 66 65 65 59 48 41 38 41 49 56 62 63 63 66 63 59 55 49 45 42 42 44 46 46 44
35 37 39 46 43 37 45 51 55 63 68 61 60 65 71 69 68 67 67 66 65 61 54 38 36 40 41 45 52 61 61 62 62 67 64 59 54 52 51 48 46 47 49 51
31 33 37 41 41 45 53 55 56 61 58 60 62 66 68 71 70 68 66 63 61 57 43 39 42 42 41 49 52 56 57 58 59 59 59 62 61 58 57 55 54 54 55 55
26 29 35 39 46 56 53 55 57 58 55 61 59 62 64 63 65 63 62 60 55 44 40 47 46 45 44 46 52 54 49 53 54 51 56 55 56 58 58 59 59 60 61 60
26 31 37 46 50 55 50 49 56 53 50 59 59 61 65 66 64 61 59 57 56 40 44 51 53 50 50 49 51 52 52 48 51 53 51 47 53 54 54 56 58 62 63 64
28 32 38 45 49 48 35 39 47 49 51 51 53 60 63 65 64 63 60 57 54 44 52 55 57 53 54 51 51 52 53 53 53 54 51 44 55 54 55 50 59 67 62 66
31 35 40 42 40 37 30 32 41 41 39 45 50 58 62 62 60 60 57 56 52 48 57 59 63 53 55 47 48 51 50 54 51 53 60 53 53 58 62 70 75 77 71 71
29 34 35 34 34 30 26 33 39 41 40 45 49 56 62 63 62 61 60 58 54 52 61 62 63 54 56 57 57 62 59 62 67 63 60 55 76 76 73 74 74 77 75 72
26 27 29 27 26 27 32 39 42 45 47 51 50 52 59 62 64 65 64 59 51 58 63 69 67 66 62 67 73 71 75 71 69 67 61 67 74 65 71 78 76 77 74 74
24 24 24 23 28 33 37 44 49 53 52 48 48 49 54 60 64 65 69 64 57 64 68 73 77 72 71 74 77 81 83 83 80 82 78 79 81 79 82 81 82 82 81 80

GFSCGP_250_spd_087.txt.gz
Wind_Speed
86 81 85 87 91 96 96 102 103 94 84 80 69 64 63 57 56 57 57 58 58 55 54 55 53 54 47 44 37 43 54 63 59 58 62 63 63 65 64 59 39 39 43 48
83 81 88 91 94 94 98 102 93 84 80 78 68 57 54 50 48 49 50 50 50 49 48 50 50 48 39 36 30 46 53 53 55 59 61 62 65 66 69 47 40 42 45 46
87 91 95 93 96 100 101 101 88 79 74 68 65 50 43 44 44 42 39 40 43 46 49 48 50 39 33 34 34 46 54 55 55 56 59 61 67 70 54 39 42 44 45 44
94 96 96 97 97 102 98 92 84 75 67 59 57 37 37 41 35 35 35 37 41 41 45 48 50 39 34 38 42 46 49 53 57 57 61 69 69 54 38 42 43 44 41 39
100 96 99 101 102 97 89 79 73 69 59 49 48 25 32 35 33 33 34 35 37 40 43 51 46 42 37 37 42 46 52 56 59 65 65 67 54 39 39 44 43 38 35 34
103 102 100 99 97 91 85 77 67 60 53 41 38 29 32 30 27 29 36 32 31 37 40 38 36 36 29 34 38 47 56 58 63 66 71 52 38 36 43 43 38 35 30 32
108 104 105 102 88 85 77 73 59 53 44 38 32 32 27 28 23 21 26 35 33 38 44 40 43 34 34 41 45 51 56 61 66 68 52 39 33 41 43 38 34 29 29 33
108 104 105 93 83 77 71 68 57 43 42 35 32 31 25 34 26 31 33 41 39 41 40 42 44 42 38 40 43 51 54 60 61 47 36 32 39 42 38 32 30 27 28 32
100 90 94 89 79 65 62 56 55 39 41 34 35 33 22 30 38 37 36 45 43 42 43 41 41 41 40 43 43 42 46 44 39 34 31 36 41 38 36 30 28 27 27 30
96 77 81 79 70 58 57 53 48 43 40 37 38 39 48 35 29 39 32 37 48 45 41 43 40 41 43 45 24 24 30 33 27 28 36 39 37 38 32 30 28 26 26 28
85 74 66 73 66 53 51 46 44 43 38 38 44 47 48 53 51 45 43 41 40 38 40 44 45 42 42 41 31 38 24 26 35 33 40 38 39 37 33 30 29 26 27 26
80 66 50 54 62 49 48 48 41 38 40 40 46 51 52 55 53 50 48 44 42 45 38 42 41 43 42 48 39 32 35 42 46 43 42 41 40 36 31 32 29 23 28 24
70 59 48 44 54 54 43 46 42 40 40 42 50 54 56 60 58 55 51 51 49 47 43 38 44 44 45 49 47 45 36 38 42 45 44 43 41 38 35 37 31 25 23 23
58 55 48 42 51 54 45 47 45 42 44 46 51 59 60 61 59 56 53 51 48 48 43 41 46 48 49 46 42 39 41 43 51 52 50 49 46 42 41 40 34 30 26 25
53 51 43 42 51 52 45 44 49 47 47 49 57 63 62 61 63 64 59 54 54 50 46 45 48 49 48 48 47 39 36 49 54 56 56 53 51 47 43 44 40 35 31 30
49 48 41 45 50 45 38 46 49 50 50 50 54 65 66 66 63 63 62 58 54 53 55 50 51 52 52 51 50 51 44 48 61 60 60 57 58 53 47 48 45 41 36 35
45 43 37 44 46 39 36 48 48 47 51 52 58 62 70 69 68 64 62 63 60 57 54 55 54 57 56 53 55 51 46 52 61 65 60 63 61 58 49 48 47 45 42 41
41 37 36 39 36 31 45 44 48 48 50 57 70 68 72 71 68 66 62 57 57 57 52 55 57 59 60 57 49 50 47 56 63 69 63 66 65 59 51 45 45 45 44 45
33 32 30 29 27 38 42 41 49 49 52 61 67 61 55 70 70 68 67 60 59 59 60 59 59 62 61 56 49 46 47 56 65 67 68 64 67 64 57 53 49 47 46 47
28 25 24 23 26 35 41 45 46 51 50 54 61 61 55 62 71 69 72 69 64 63 64 64 65 65 60 54 42 44 49 48 63 66 69 64 69 67 62 59 57 54 53 53
23 19 22 26 33 44 47 51 50 53 52 52 54 58 57 57 64 69 71 70 68 67 67 66 67 60 59 47 46 40 49 50 52 61 67 67 63 63 67 64 62 62 60 59
21 20 23 30 38 44 46 47 48 52 54 50 50 53 52 55 58 63 67 71 70 69 68 67 65 59 50 49 53 47 47 52 56 57 57 64 64 58 61 65 64 67 68 67
22 23 27 33 38 40 39 38 34 47 50 46 42 44 48 56 57 60 65 68 73 70 67 65 64 55 45 54 54 51 50 57 58 56 54 55 51 56 54 58 61 57 57 56
20 22 27 30 29 29 29 22 17 28 43 45 41 43 45 51 56 60 61 63 65 68 66 62 58 51 49 58 62 58 53 51 62 59 57 54 57 63 62 61 62 58 61 64
18 20 23 24 24 23 23 21 21 22 31 41 43 41 41 45 56 61 63 63 65 65 64 62 59 56 51 63 66 64 61 61 63 61 63 67 65 72 69 68 66 69 67 65
18 19 20 20 20 20 21 22 24 29 37 43 45 46 45 48 54 62 65 66 65 65 64 61 57 59 56 67 70 69 68 68 65 68 66 71 73 72 73 77 76 71 74 77

GFSCGP_250_spd_090.txt.gz
Wind_Speed
89 88 95 92 90 83 77 79 75 81 84 91 95 91 90 88 79 73 69 64 64 64 60 57 56 53 54 54 55 55 53 52 54 45 49 47 52 53 54 55 54 54 57 59
92 93 96 92 96 85 80 83 88 85 89 93 91 86 92 82 74 70 66 60 58 54 52 49 51 49 49 51 49 48 50 54 53 42 41 51 54 55 54 53 54 56 58 56
88 96 97 96 89 87 88 92 91 92 97 93 94 81 85 77 65 60 58 52 46 46 46 45 46 45 45 44 44 45 53 49 42 33 43 55 53 52 53 53 53 57 54 45
92 97 95 90 89 90 90 96 97 101 99 95 84 83 78 66 54 50 47 40 38 39 38 38 40 36 36 37 41 46 43 43 27 42 52 51 51 49 53 54 57 57 49 37
96 95 91 91 92 95 97 103 101 101 102 88 81 71 65 54 46 39 35 34 33 32 33 35 33 34 32 37 40 41 41 31 41 42 41 43 46 51 56 58 60 51 35 38
100 97 94 95 98 100 101 103 102 100 94 82 73 62 56 41 37 32 30 29 30 28 29 27 30 32 39 37 34 40 31 33 36 38 44 45 50 56 59 61 47 35 34 38
99 100 100 100 97 101 97 97 94 89 83 72 62 52 44 34 34 30 27 30 30 31 31 29 32 41 42 39 36 34 38 41 34 34 41 50 52 58 59 48 33 30 35 36
98 98 101 106 98 94 94 92 86 78 69 56 55 43 35 33 31 27 29 25 27 33 29 34 39 46 43 45 42 33 29 35 30 31 44 50 55 48 39 30 27 32 34 35
98 95 99 99 94 95 89 83 84 73 66 46 49 35 34 35 33 34 32 26 34 33 32 39 42 45 44 50 41 31 24 12 21 32 31 35 36 29 28 23 31 33 34 35
88 86 88 91 86 84 85 79 74 66 53 42 41 31 37 40 39 41 38 38 37 37 35 38 45 42 42 34 32 30 18 19 21 27 30 29 23 20 22 28 32 33 34 35
83 76 70 77 82 78 75 67 64 58 46 35 36 30 40 40 37 42 41 46 38 41 40 43 40 40 38 33 34 33 28 14 15 22 27 34 24 21 26 32 34 35 34 32
73 70 65 70 76 75 68 55 50 51 41 34 32 33 48 47 46 43 51 43 40 44 42 43 45 46 37 39 38 30 23 19 23 25 37 41 39 28 33 36 36 37 34 32
76 71 62 56 63 67 60 48 45 45 38 35 31 42 55 56 51 50 49 49 42 44 45 45 39 38 41 45 41 37 36 27 38 33 44 45 47 41 41 38 40 36 34 31
73 69 58 48 54 60 54 45 43 44 35 35 33 46 51 66 64 57 57 51 46 43 44 47 44 46 48 46 46 45 44 41 44 34 43 45 47 49 48 43 42 38 36 33
64 61 53 48 50 52 46 43 42 41 35 34 41 54 62 70 71 65 65 61 51 47 48 51 53 48 43 46 46 44 46 45 50 43 39 53 53 48 51 47 46 40 39 36
54 53 45 49 48 42 40 42 43 41 42 42 47 54 56 66 72 72 68 57 52 51 51 54 50 49 48 48 52 53 52 50 55 54 57 53 48 54 54 52 49 44 42 40
48 44 39 48 40 38 37 43 45 47 42 45 47 49 60 66 66 71 69 63 57 52 53 54 58 52 53 51 48 51 53 50 49 53 56 51 57 55 57 58 51 47 45 46
44 41 39 40 38 35 40 41 42 41 44 45 48 52 60 66 64 64 67 66 65 57 57 57 55 54 57 56 54 55 55 52 52 54 53 52 60 63 63 63 56 51 47 50
43 43 40 35 31 31 33 35 39 41 43 45 53 53 57 64 61 65 64 66 67 64 61 61 61 60 58 58 56 56 57 58 54 53 55 56 53 62 63 68 62 55 51 50
37 34 32 27 26 29 28 34 38 43 45 49 55 57 58 62 62 68 68 64 64 67 67 64 64 62 59 58 59 61 60 60 59 60 57 59 56 65 71 70 66 63 60 57
33 29 27 26 29 33 32 34 38 45 49 51 51 54 59 60 60 69 70 70 66 65 65 66 66 65 63 61 61 63 63 58 56 57 58 55 57 68 69 62 66 66 66 63
26 24 25 27 29 29 33 35 41 45 45 46 53 56 58 57 54 60 72 70 69 67 64 64 64 64 64 67 68 66 63 58 56 53 51 51 58 64 68 67 65 70 70 68
22 21 20 22 25 28 33 35 42 45 50 49 51 54 53 53 53 51 61 69 69 69 68 67 67 67 68 67 68 66 66 61 59 52 54 57 59 67 70 68 68 66 71 74
18 18 16 18 21 26 32 34 39 46 49 53 54 54 54 52 49 50 53 60 66 71 73 73 73 73 73 71 69 68 67 62 61 56 59 61 60 65 70 73 76 74 72 76
17 17 16 17 17 21 25 26 28 36 41 41 46 48 48 48 47 46 47 53 63 68 70 73 75 78 77 76 74 72 69 66 63 65 64 61 63 63 71 70 71 73 77 75
17 16 17 15 15 17 19 22 17 22 27 29 33 42 47 45 43 44 47 54 59 66 72 71 72 77 78 76 76 74 71 67 61 67 69 64 66 66 70 71 71 74 78 79

GFSCGP_250_spd_093.txt.gz
Wind_Speed
83 81 83 83 80 78 80 82 84 92 94 94 99 95 93 88 83 86 84 85 84 84 83 81 74 72 70 66 65 59 60 59 57 65 66 57 51 48 49 43 37 47 47 47
80 82 86 82 82 82 84 86 88 91 98 97 98 95 91 89 89 90 87 78 81 79 76 72 67 64 62 61 56 53 51 50 50 56 63 48 49 47 38 38 44 53 49 47
78 81 79 82 82 83 87 86 88 87 96 99 100 89 90 92 93 89 80 77 76 70 64 63 58 53 49 46 43 43 44 43 47 55 54 44 47 43 37 45 50 48 46 47
77 87 83 81 83 87 84 90 93 96 97 97 101 97 87 93 87 82 78 72 68 63 58 56 45 40 40 40 37 36 40 43 47 52 48 43 45 44 36 48 52 51 48 44
84 88 89 87 90 92 91 96 97 100 101 97 100 97 87 92 73 74 71 63 58 54 46 42 36 35 38 36 34 36 42 42 44 44 39 41 41 50 36 41 46 46 42 47
88 90 89 94 95 95 96 97 100 100 100 98 95 94 89 75 71 67 63 54 49 44 37 33 32 33 33 31 34 36 39 41 42 38 43 43 46 41 36 38 45 43 47 51
91 93 95 96 96 99 100 101 101 98 100 95 96 85 75 68 64 60 53 46 41 38 35 30 30 31 30 33 32 33 40 39 40 42 47 46 38 27 37 41 46 51 55 58
91 94 95 95 98 98 99 102 100 99 96 93 90 80 72 66 59 51 45 41 39 41 32 29 31 30 33 36 38 39 42 45 47 48 42 26 21 29 36 40 47 54 57 47
90 91 94 94 97 94 92 94 93 97 92 84 76 68 69 59 52 44 40 39 39 35 28 29 29 32 40 46 43 40 41 39 40 33 25 25 31 31 26 37 43 45 43 34
87 87 92 99 96 93 89 89 88 88 84 75 64 60 61 54 44 41 37 40 42 35 30 31 34 40 53 50 43 39 34 27 17 23 23 19 29 25 27 25 32 37 30 31
83 86 84 84 85 86 86 85 80 79 79 73 56 50 53 45 41 41 39 46 44 35 40 37 42 55 47 49 45 37 37 30 20 19 21 27 27 22 31 31 27 25 27 28
78 77 74 77 83 84 81 78 77 77 69 61 50 37 45 38 41 42 43 49 45 38 44 41 47 56 48 48 48 43 39 29 28 27 27 23 25 22 31 32 25 23 24 28
72 69 66 65 68 74 76 75 72 64 57 51 47 36 42 40 44 44 48 52 48 41 43 47 57 55 52 49 52 48 41 39 37 35 29 27 26 27 34 32 29 27 28 31
62 62 62 64 70 74 75 70 61 56 47 45 42 42 41 43 47 48 52 52 48 44 48 50 52 59 54 52 47 50 48 44 40 35 34 24 35 35 32 32 38 28 33 34
62 64 66 64 67 68 57 55 55 49 43 40 44 43 39 46 57 58 57 51 44 50 51 50 51 54 55 53 49 49 51 48 41 36 26 21 43 39 41 44 46 36 32 41
63 65 61 61 58 52 41 52 54 44 41 41 44 43 43 51 59 65 62 56 51 53 52 52 55 56 55 53 51 52 49 50 43 38 35 47 37 46 53 50 51 46 38 43
61 56 53 56 52 42 41 48 50 41 41 40 40 45 48 52 65 66 66 61 59 56 56 57 59 58 59 57 54 54 53 51 47 43 48 48 46 47 49 46 44 42 42 46
53 49 47 46 43 41 40 46 45 42 42 42 46 49 52 54 63 67 66 61 60 64 62 56 62 63 61 62 57 59 56 56 52 55 62 55 56 47 39 48 53 51 46 48
48 46 41 40 38 36 42 41 38 38 40 41 45 49 51 55 53 62 70 72 65 65 61 58 59 61 61 67 64 58 57 60 62 62 64 66 66 64 68 62 57 57 60 52
39 39 39 37 34 34 34 33 32 34 37 42 48 52 55 58 53 54 66 81 76 70 66 62 64 62 59 71 66 69 64 63 64 67 67 67 70 66 65 64 61 59 61 63
37 34 34 32 31 29 29 28 32 33 36 42 48 53 59 58 61 56 59 69 77 77 71 65 70 66 68 70 71 70 72 72 70 67 68 65 66 65 66 64 65 63 58 60
34 32 29 27 23 21 22 27 30 32 37 41 47 50 53 53 58 59 60 66 67 70 76 71 70 69 69 70 70 73 73 75 77 75 71 70 69 71 73 71 69 64 61 67
31 28 24 23 18 18 20 23 25 30 36 43 49 52 53 54 56 56 58 64 68 68 69 73 76 75 72 73 72 73 72 73 73 73 71 74 77 77 75 71 76 77 74 72
25 23 21 19 16 15 17 21 25 29 35 40 42 48 51 54 54 53 56 61 67 70 70 72 74 79 80 78 77 75 77 78 76 74 72 79 75 72 68 68 73 74 77 87
22 22 20 18 18 17 17 22 26 30 36 41 45 45 46 49 51 51 51 54 59 66 70 71 72 75 76 80 82 82 81 80 80 79 79 79 78 76 70 69 67 67 74 81
21 20 19 19 20 21 21 20 23 26 34 40 42 44 47 47 48 48 51 49 51 56 65 72 76 77 78 79 79 80 82 82 82 81 80 80 78 77 74 70 69 64 69 78

GFSCGP_250_spd_096.txt.gz
Wind_Speed
86 85 80 87 85 85 86 87 84 86 87 84 83 81 87 90 90 89 90 93 94 92 91 91 87 87 84 84 83 82 79 74 72 67 59 59 57 56 60 62 62 56 46 41
84 83 86 87 86 86 85 88 88 87 90 86 85 82 90 95 96 93 93 96 93 93 92 94 84 83 83 80 73 73 74 70 67 60 56 55 57 52 50 56 54 45 41 42
84 82 87 88 82 82 83 86 87 86 89 91 88 83 91 95 94 95 97 98 99 98 93 83 78 78 74 71 67 62 59 62 57 55 55 49 51 49 47 50 38 38 39 42
83 80 85 87 85 83 80 85 86 88 88 91 93 85 91 95 96 97 99 101 100 97 79 70 69 70 65 61 56 51 51 51 48 50 46 47 46 46 49 49 40 25 46 54
82 84 85 84 87 92 85 91 90 92 94 94 95 97 87 97 101 100 101 101 96 82 65 66 60 59 53 47 45 43 44 42 42 40 41 41 40 50 51 48 49 56 67 57
86 84 85 86 87 88 90 92 93 93 94 93 96 97 88 97 96 95 96 92 82 67 60 59 56 49 44 39 37 36 37 36 37 38 38 39 44 46 51 54 50 50 50 55
87 86 88 89 91 90 92 93 94 94 94 93 96 93 91 94 90 87 85 78 66 57 57 53 48 41 36 32 31 33 33 34 34 35 32 32 35 43 48 47 48 40 41 43
91 91 89 91 94 96 94 94 95 94 93 91 96 92 89 88 85 82 77 69 57 54 51 45 38 33 31 28 27 29 29 27 27 27 32 37 40 45 45 38 24 32 37 37
93 94 93 93 93 94 95 96 96 95 95 94 92 88 86 85 76 75 70 66 53 45 43 36 30 32 29 27 29 27 24 23 26 27 31 36 36 37 32 27 25 25 21 27
89 93 95 93 94 94 95 95 96 96 95 91 85 83 79 74 76 70 65 60 47 41 38 30 31 29 27 28 29 29 28 29 32 30 29 36 37 32 30 27 29 33 35 37
84 86 88 90 93 93 92 92 91 92 91 88 83 77 74 72 67 68 60 53 43 39 33 30 29 29 30 32 35 38 37 34 34 38 34 33 32 28 26 21 28 30 30 34
75 75 80 86 88 86 87 88 86 85 84 82 80 73 70 65 63 63 54 46 40 38 34 36 35 32 36 40 46 47 44 42 38 38 34 37 37 31 21 21 31 24 28 31
65 67 71 75 79 79 81 84 84 81 79 78 76 62 61 55 57 60 51 42 42 38 38 38 41 40 41 52 48 46 46 45 40 38 39 42 37 30 29 25 31 23 22 24
58 61 66 69 71 73 75 80 80 78 72 70 63 55 59 50 53 49 45 42 44 42 40 45 45 46 49 57 54 48 44 45 44 44 43 42 37 30 30 30 31 24 21 27
55 55 58 61 63 67 68 70 74 72 67 63 55 51 56 52 52 42 45 46 46 45 45 51 50 53 57 60 57 51 47 52 48 47 46 39 41 41 31 30 35 31 28 34
55 61 62 65 67 67 62 65 65 63 61 54 44 42 56 50 46 44 47 47 46 48 52 59 55 58 62 62 62 54 50 51 47 45 42 41 37 28 26 33 41 33 34 37
64 65 62 64 64 58 50 55 55 54 51 47 36 46 51 46 43 44 49 48 50 51 56 63 61 60 66 62 64 62 54 53 54 48 45 40 39 33 31 48 52 44 53 45
62 59 58 56 54 50 49 52 51 46 46 43 40 46 46 42 44 49 50 51 47 50 53 63 63 62 67 64 63 63 59 57 58 53 52 44 40 37 36 49 55 57 52 52
58 51 46 45 47 46 46 49 44 40 43 42 43 42 42 43 46 48 49 47 44 50 51 66 65 66 67 68 67 65 63 58 58 54 54 50 48 45 51 48 55 53 56 58
48 43 41 40 40 42 40 41 36 37 38 37 39 39 44 48 47 46 47 46 43 50 55 69 67 69 67 70 70 69 69 62 59 62 58 53 56 61 61 54 51 50 59 55
41 37 39 37 36 36 36 32 32 33 32 33 38 42 46 45 47 50 50 47 51 50 57 67 69 71 70 71 71 74 71 68 65 65 65 65 62 62 62 66 67 59 54 62
36 34 35 33 31 32 29 29 29 29 28 31 36 39 46 52 54 51 49 49 55 60 60 63 74 71 73 75 77 74 74 74 73 71 72 70 70 69 74 76 76 76 71 66
34 32 34 28 28 28 25 25 25 25 27 32 38 44 49 51 53 54 52 50 55 61 64 64 67 74 74 77 80 80 81 82 79 78 74 74 79 78 80 83 83 82 84 85
33 33 32 26 26 24 22 20 21 22 24 30 35 40 44 47 47 51 53 51 55 60 70 70 68 76 79 76 83 85 86 85 86 85 86 84 82 87 89 89 92 90 88 82
31 31 30 23 22 24 20 19 18 22 23 29 34 41 44 46 46 50 52 51 51 59 62 67 73 74 79 82 80 83 87 91 90 88 90 89 91 92 94 96 92 91 91 89
29 27 26 23 21 21 19 19 17 20 22 25 30 35 40 44 45 48 50 53 53 51 53 59 63 66 73 80 82 81 83 90 91 91 98 95 95 95 97 97 99 96 97 95

GFSCGP_250_spd_099.txt.gz
Wind_Speed
98 96 89 87 90 87 84 81 79 84 86 81 80 79 83 86 85 84 83 81 80 83 85 88 91 94 95 96 97 99 99 102 102 98 95 87 82 78 75 71 59 53 52 50
101 97 93 96 91 89 82 79 82 82 83 80 81 82 85 88 88 87 83 83 85 86 87 90 92 94 96 97 100 100 101 104 98 87 79 76 71 68 68 59 53 48 48 41
112 106 103 99 98 91 87 81 82 83 81 81 79 80 84 88 89 87 86 87 88 89 91 92 92 93 95 99 100 102 103 90 78 77 74 69 64 56 50 47 47 46 45 35
112 109 105 104 101 99 90 87 85 84 80 82 81 78 83 88 91 89 88 89 92 94 95 96 97 97 96 98 97 92 83 72 70 70 67 63 56 50 46 47 47 43 40 36
108 106 105 103 100 100 93 91 87 84 82 81 83 83 81 88 93 90 93 93 95 97 96 98 97 93 91 84 77 68 64 63 59 56 55 52 45 42 44 45 45 43 42 42
102 105 101 103 103 103 97 94 89 89 87 80 81 83 77 84 89 92 94 94 94 95 94 95 94 83 71 69 59 54 55 49 44 41 41 36 36 38 40 44 44 49 49 48
96 96 96 97 101 101 98 96 90 88 85 81 83 83 79 84 88 90 90 90 93 93 93 89 80 64 59 53 47 44 40 36 32 32 29 27 29 33 38 41 47 57 59 55
89 92 93 94 95 97 94 92 90 87 85 86 85 80 85 88 88 89 89 89 90 92 85 73 60 55 48 42 37 32 30 28 27 24 20 23 24 30 35 40 46 58 54 55
86 88 89 93 95 96 93 90 88 88 87 88 85 87 89 87 88 91 90 91 89 83 73 57 51 44 40 35 28 24 23 23 22 18 21 22 23 27 32 37 40 50 39 33
73 79 85 88 89 89 89 90 88 87 85 86 89 89 88 89 87 87 88 84 82 73 58 50 46 38 34 28 25 23 21 21 24 25 24 27 30 32 37 38 39 34 35 34
60 66 71 75 79 84 87 87 85 86 84 85 87 88 88 87 84 81 79 82 77 66 53 47 39 35 31 27 24 23 24 28 32 29 32 37 39 35 42 40 38 41 37 36
50 56 61 63 67 72 75 78 80 84 88 89 87 83 84 82 79 76 75 76 74 60 51 43 37 33 31 27 28 28 32 34 39 39 38 36 34 38 43 43 40 43 40 43
45 49 54 57 59 63 68 72 75 78 79 81 82 77 77 77 75 70 68 67 64 60 54 39 34 34 30 31 30 35 40 44 46 41 39 41 38 41 45 42 44 46 46 36
40 44 48 51 55 60 65 69 72 72 73 73 70 73 77 75 67 64 61 62 64 58 49 37 34 37 34 35 37 41 47 50 50 50 48 49 48 46 45 46 49 50 40 31
40 43 46 50 53 56 59 61 63 67 71 68 71 66 70 61 57 54 57 57 54 51 42 36 37 41 40 39 46 49 52 55 53 52 52 51 52 49 46 48 46 43 41 29
40 43 47 50 52 56 62 66 67 66 69 68 65 62 62 59 54 54 52 49 45 45 38 38 42 45 46 43 52 57 58 55 53 52 54 54 53 55 50 46 39 28 30 36
42 47 52 53 53 53 56 60 63 65 66 59 56 53 52 46 50 54 46 41 41 43 38 39 48 52 50 49 58 61 60 55 53 55 59 56 53 54 54 49 37 27 46 42
46 50 53 54 55 55 56 58 58 56 54 52 49 47 43 45 43 44 42 38 41 39 39 41 52 56 53 55 61 63 61 55 49 57 56 52 50 51 47 45 37 45 48 52
48 50 52 55 54 53 51 52 51 48 49 47 44 40 38 39 37 39 35 38 38 31 38 45 55 61 58 59 63 64 62 57 53 55 58 53 52 50 48 47 46 46 54 50
52 52 53 49 47 45 43 45 45 47 48 43 40 38 37 36 36 37 35 37 33 31 39 48 58 67 63 61 66 66 66 61 59 58 58 55 52 49 53 49 48 43 47 56
50 45 43 40 38 38 39 40 42 43 41 38 37 36 37 36 36 36 36 36 32 33 39 47 58 70 69 66 67 69 69 66 62 64 62 61 60 57 56 55 57 54 44 48
40 36 36 33 34 35 35 35 36 34 34 33 33 34 34 33 35 36 38 38 35 35 41 48 56 71 74 71 68 72 72 72 68 69 65 64 63 65 62 60 65 64 60 58
36 34 34 27 31 32 29 30 28 27 28 29 29 29 30 33 37 38 42 41 38 38 41 48 56 65 76 74 71 73 76 74 75 73 75 71 70 68 70 70 72 72 70 65
31 32 31 26 29 26 24 24 23 23 25 27 29 31 35 38 40 42 45 41 41 41 44 48 54 63 78 78 78 75 77 80 80 81 79 78 75 77 74 73 76 79 79 78
30 33 31 24 27 23 21 21 22 24 26 26 28 32 35 34 34 40 41 39 41 42 43 47 51 60 69 82 81 81 78 83 83 87 85 84 84 84 83 81 82 84 88 84
29 32 30 23 25 20 18 21 24 24 24 27 28 30 33 35 35 38 37 35 34 37 40 46 50 54 66 75 85 84 87 83 85 89 94 89 91 93 93 93 92 92 94 94

GFSCGP_250_spd_102.txt.gz
Wind_Speed
115 115 104 109 107 103 104 97 93 93 90 88 84 83 82 84 81 78 79 80 80 79 78 77 77 78 79 78 79 80 83 85 87 89 90 92 92 95 97 97 95 92 87 78
118 109 113 112 111 110 109 102 95 92 93 86 87 82 80 81 79 78 79 79 78 77 78 79 81 80 80 80 82 83 83 86 89 91 93 95 97 99 97 97 93 85 78 65
115 108 110 108 113 111 114 110 102 100 95 92 87 87 86 85 82 79 78 79 79 79 80 81 82 83 84 85 86 88 89 93 96 97 97 99 99 100 98 91 76 70 70 57
100 103 100 109 106 115 110 111 110 108 104 99 92 91 89 92 86 79 80 80 79 81 83 84 85 87 88 89 91 92 93 96 96 96 96 98 95 85 76 70 67 63 58 55
81 87 90 104 109 105 104 112 110 108 105 103 97 92 96 92 90 85 81 80 81 84 85 85 86 89 90 93 93 91 91 91 94 94 86 81 75 69 65 61 56 50 49 50
77 78 80 90 90 97 100 107 104 101 100 94 93 90 97 89 86 86 84 84 85 86 86 86 87 89 89 90 88 83 85 89 83 70 62 62 62 59 55 51 44 41 43 47
72 79 80 86 90 96 101 101 100 98 97 91 95 93 97 86 88 87 85 86 88 88 88 87 87 88 90 88 89 84 78 68 62 60 56 51 48 45 44 41 39 42 45 49
66 70 73 76 77 83 89 92 91 86 86 90 87 92 90 88 87 87 88 89 89 89 89 89 87 90 88 87 83 74 60 52 49 47 44 37 33 33 37 37 36 40 46 51
61 66 70 76 77 82 83 84 82 85 86 85 84 89 89 86 87 89 88 89 90 90 91 89 89 88 85 83 69 56 49 44 40 37 31 27 26 27 28 28 32 39 46 55
56 61 64 70 75 77 81 82 80 85 84 81 83 86 89 84 87 89 89 89 91 91 90 87 86 85 81 62 54 45 39 37 31 27 27 23 25 23 23 24 28 38 44 61
51 54 57 62 67 72 77 79 78 82 82 82 81 84 84 86 88 89 88 88 89 89 87 87 83 80 66 47 43 36 33 30 24 27 27 23 22 21 18 26 28 33 44 56
40 46 46 48 55 59 62 67 72 75 76 78 80 81 83 88 88 87 86 86 85 88 86 84 77 67 47 40 35 31 30 27 30 33 34 32 26 25 33 36 36 34 39 46
40 43 42 43 44 47 50 56 61 66 70 72 78 78 79 82 82 81 81 82 81 80 81 78 66 58 44 35 32 31 29 32 34 37 36 36 35 38 39 33 33 36 39 42
39 36 36 39 42 45 48 51 53 54 57 61 64 68 69 73 74 75 75 77 76 77 76 73 62 51 40 34 32 34 33 36 37 38 42 44 46 44 44 44 43 45 45 45
34 34 34 36 38 41 44 47 49 53 57 58 63 63 70 69 71 73 73 74 71 67 68 65 57 43 37 35 37 40 39 43 47 47 48 51 47 49 43 43 47 46 44 47
30 32 34 35 37 40 43 45 47 50 54 55 59 64 66 67 66 66 67 67 66 68 70 63 49 39 36 39 44 45 46 47 52 54 55 58 54 52 54 51 50 45 48 50
31 33 35 36 38 40 42 46 49 52 55 55 58 60 65 65 61 62 60 59 57 57 58 50 41 39 37 46 49 48 51 53 57 57 55 56 54 53 54 52 51 47 50 51
34 35 37 38 39 40 46 51 52 52 52 55 57 60 62 56 53 51 47 48 48 46 41 37 35 36 41 51 53 52 54 60 59 60 55 60 60 57 59 55 51 51 49 48
35 37 39 43 47 48 47 48 50 50 50 51 51 49 47 45 42 41 40 42 42 38 34 28 33 37 46 56 56 54 56 65 64 60 58 60 62 59 58 53 52 54 50 49
38 41 46 49 49 47 47 47 46 45 45 41 40 39 38 36 35 34 34 35 36 33 28 29 34 41 50 58 58 57 59 68 66 62 60 59 60 58 56 56 57 57 50 47
44 47 47 46 45 43 41 41 39 37 37 37 37 36 33 31 29 28 30 32 32 30 28 31 35 43 55 60 60 60 61 70 70 65 62 63 60 60 60 60 58 59 56 57
45 45 44 39 37 37 36 37 37 36 35 35 34 32 29 27 26 25 25 28 30 29 30 32 36 45 57 62 63 63 64 69 72 68 64 63 60 57 62 62 60 60 61 64
43 40 35 32 32 34 33 32 31 32 31 30 29 27 25 24 23 25 28 30 31 31 31 35 40 45 58 64 67 66 66 68 73 73 68 64 64 64 68 64 64 65 64 67
36 34 31 28 29 30 29 28 28 28 27 25 23 22 21 22 24 26 30 34 34 34 35 37 42 47 56 67 71 71 70 72 72 77 74 71 71 69 71 71 69 68 69 70
31 29 30 26 28 26 27 25 24 24 22 21 22 21 24 25 27 30 33 33 31 31 32 36 42 47 54 69 73 78 76 74 75 76 79 77 75 76 77 78 78 75 75 76
29 29 28 26 26 26 25 23 21 21 20 21 22 25 25 26 25 27 30 33 33 31 33 37 42 47 54 62 73 80 83 80 79 80 81 85 84 81 84 85 85 85 84 82

GFSCGP_250_spd_105.txt.gz
Wind_Speed
109 109 105 112 120 118 112 114 111 104 105 109 96 98 98 96 93 92 89 88 85 86 81 75 74 74 72 69 72 74 73 70 71 71 73 76 78 80 81 82 87 85 86 87
118 113 106 112 116 121 114 109 110 111 112 113 105 98 101 100 95 95 91 87 85 87 85 80 78 75 75 75 74 75 75 76 75 76 79 81 82 84 86 89 92 93 95 94
120 108 110 105 111 117 117 114 105 111 116 118 107 101 105 102 98 94 90 91 85 83 83 84 81 80 77 78 77 77 78 78 80 82 84 85 86 90 93 97 96 100 98 93
112 110 101 91 89 94 94 92 96 93 101 109 106 101 106 107 102 99 98 95 89 89 88 85 85 84 85 81 80 79 79 82 84 87 86 84 88 92 94 96 93 98 93 86
104 91 84 78 73 82 77 85 88 90 89 97 102 97 103 107 105 104 102 100 96 94 95 91 89 91 87 84 82 81 84 86 86 87 88 89 90 92 93 93 91 93 90 74
88 81 73 70 65 66 67 71 79 89 93 93 90 97 103 109 105 107 107 100 97 97 96 96 90 88 86 83 84 84 87 88 87 86 87 88 88 89 87 82 74 67 59 55
76 72 65 62 59 60 61 66 74 78 87 83 86 95 93 107 106 101 99 97 99 96 93 90 87 85 86 87 86 87 87 88 87 88 89 87 85 78 68 61 53 48 51 51
70 60 61 60 57 56 61 65 70 71 74 80 82 85 91 98 96 93 96 96 97 94 91 88 87 85 85 87 88 89 89 88 86 85 83 81 65 60 54 51 46 37 47 39
63 58 53 57 57 57 55 57 68 73 75 77 76 78 79 81 75 83 90 90 90 91 89 89 87 84 86 88 89 89 88 88 83 79 77 61 53 46 39 35 32 33 38 35
59 55 52 53 57 56 56 62 70 79 81 78 80 85 88 91 92 89 85 84 85 87 88 87 86 86 88 87 88 88 86 84 78 73 59 50 39 30 19 15 22 30 32 33
58 54 47 48 53 55 59 60 64 81 82 86 90 90 89 88 91 82 83 85 84 85 87 85 86 88 87 86 87 88 84 75 70 56 49 38 29 29 24 21 23 27 26 34
55 51 46 46 46 50 55 60 60 66 70 77 79 84 87 91 85 83 83 82 84 85 86 87 89 87 86 87 86 83 76 68 54 44 40 31 32 33 26 24 26 25 28 33
52 48 44 45 47 48 49 53 60 65 70 76 85 88 90 91 89 85 81 77 81 82 84 86 88 87 86 84 82 76 65 53 42 39 33 34 34 33 31 31 31 30 31 41
49 45 44 43 43 44 48 50 59 69 70 77 82 85 85 82 77 73 74 76 78 78 81 83 83 83 83 80 76 65 46 40 38 36 35 36 34 33 32 36 33 30 26 29
46 44 41 36 35 39 41 42 46 51 59 67 72 73 77 71 72 73 73 71 74 74 73 76 77 75 77 76 67 45 36 37 40 38 41 42 39 37 40 39 27 29 34 38
41 37 32 32 34 37 36 37 40 44 48 48 50 54 53 58 62 63 66 66 68 71 72 71 72 74 76 70 58 38 36 41 46 45 47 46 46 46 49 48 49 38 41 46
31 33 30 28 30 30 31 35 36 39 41 43 49 53 54 59 62 64 66 68 69 70 72 74 75 71 64 59 45 36 37 49 52 50 49 45 49 54 55 46 42 47 47 49
31 31 29 30 30 31 35 35 38 40 42 46 49 53 57 61 62 63 64 66 67 67 67 66 61 58 56 51 44 39 44 56 60 57 55 49 52 58 56 50 51 51 51 53
33 32 30 31 32 33 35 38 41 43 44 50 53 57 58 58 60 57 52 50 51 51 51 45 44 41 40 41 39 41 49 58 60 61 62 56 52 60 57 55 57 56 52 53
33 34 35 37 37 39 41 42 44 47 51 51 51 53 53 51 48 44 41 43 43 43 38 37 35 34 35 37 37 44 54 60 63 64 64 63 53 59 58 61 60 55 53 54
34 35 39 41 43 42 43 43 41 41 43 43 42 40 39 38 37 35 36 37 36 35 35 34 32 34 35 37 41 50 59 62 63 65 67 68 58 59 58 62 62 57 58 52
38 40 43 45 44 42 40 40 38 36 36 35 35 33 31 31 29 28 29 29 31 31 32 31 33 34 35 39 46 56 63 64 64 67 69 68 68 61 62 63 60 63 58 57
40 43 45 42 38 37 35 34 32 33 32 32 31 30 28 28 26 27 27 28 29 29 30 30 31 33 37 43 51 61 66 68 67 69 70 74 71 67 65 64 67 64 64 60
41 40 38 33 32 34 32 30 31 32 31 29 27 26 24 23 24 24 23 25 25 28 28 30 31 35 39 46 54 64 69 69 69 70 73 73 76 72 71 72 68 67 67 69
39 38 32 30 31 31 29 29 29 29 25 25 22 20 19 18 19 20 21 22 24 27 28 31 34 37 42 48 57 65 71 72 73 74 75 77 78 75 75 75 78 73 71 74
34 31 30 30 29 29 28 26 25 25 23 21 19 18 16 16 15 18 22 25 23 25 28 31 35 38 44 48 57 67 73 76 77 77 79 80 82 85 81 80 80 81 80 79

GFSCGP_250_spd_108.txt.gz
Wind_Speed
108 108 102 106 108 111 110 108 108 100 92 103 103 104 97 100 101 99 92 95 97 101 96 89 83 85 85 81 80 74 75 72 71 66 66 65 67 70 70 72 72 71 69 71
106 103 105 107 107 111 115 113 107 109 105 110 109 113 118 101 100 103 100 100 99 104 95 88 87 88 86 81 81 78 75 74 72 71 69 69 68 70 73 75 75 77 79 77
107 106 114 111 108 116 116 114 116 112 106 106 102 106 112 95 95 97 96 104 106 103 93 90 88 89 89 85 81 81 79 77 74 74 76 77 79 78 78 78 79 82 84 86
107 112 111 113 103 111 104 106 104 100 99 89 98 90 102 90 91 93 101 105 105 99 97 95 95 91 88 86 83 82 82 83 83 80 81 83 81 79 79 82 85 87 85 81
113 109 109 111 115 105 91 93 89 82 79 81 79 91 84 94 92 86 99 100 93 90 90 99 97 94 91 89 88 86 87 87 87 86 87 85 83 79 81 86 88 90 86 79
111 98 104 108 107 101 85 74 66 68 68 65 68 82 77 82 83 88 96 90 90 85 91 95 95 92 93 92 91 92 89 87 87 86 85 85 83 82 85 89 89 86 82 73
108 108 101 97 93 90 78 67 60 61 61 54 63 73 70 74 79 82 86 83 84 87 90 94 96 97 95 94 95 93 92 87 84 84 84 83 82 83 85 88 85 81 73 56
100 102 99 90 85 77 71 64 59 57 52 54 60 61 59 60 62 72 69 76 79 85 90 95 97 96 95 92 90 91 87 86 85 85 86 84 82 83 83 82 78 74 57 34
100 99 88 77 70 67 62 60 57 49 46 50 54 48 51 52 60 62 63 64 73 74 78 87 88 89 92 88 85 85 85 86 85 86 86 82 81 81 80 75 70 51 40 35
90 88 75 68 63 58 57 54 51 45 44 49 58 52 56 61 65 71 74 71 72 77 79 80 82 84 88 87 84 83 83 86 86 86 84 81 79 78 73 65 47 33 27 21
82 72 69 66 57 51 50 53 49 45 47 52 56 62 59 59 64 73 77 79 79 78 77 77 69 69 72 74 75 78 80 84 85 84 81 79 76 70 65 48 39 27 26 19
65 63 63 60 55 51 48 45 48 44 48 54 59 66 70 72 75 79 79 76 73 75 81 78 74 72 71 76 77 79 79 82 82 81 78 75 71 64 50 41 38 36 23 14
59 59 58 54 52 46 43 46 45 48 47 56 60 71 76 80 85 82 75 66 74 80 83 80 77 78 80 77 75 78 80 82 80 79 74 66 62 52 40 39 39 35 30 25
58 55 54 51 45 42 42 43 43 45 47 51 56 69 82 83 79 81 80 82 79 83 87 85 78 83 88 79 75 75 76 77 77 72 60 59 52 41 38 38 37 36 31 29
53 51 51 46 43 36 38 39 37 38 44 49 57 63 65 71 81 86 90 86 84 85 84 82 84 86 89 86 75 73 74 74 70 60 48 49 41 39 41 39 38 37 39 38
47 47 46 40 37 33 33 32 31 35 39 44 49 58 54 61 70 76 76 76 79 79 82 85 84 83 79 74 72 73 71 65 60 49 40 42 42 45 44 43 44 44 40 38
41 43 38 31 29 29 24 27 30 31 33 33 41 41 43 59 66 71 78 82 85 88 82 78 76 72 69 69 69 68 67 62 52 40 39 42 46 49 49 50 49 47 44 42
38 35 25 24 27 20 23 29 26 29 29 32 36 38 41 46 50 55 59 63 64 66 67 67 67 67 66 66 66 66 65 55 46 37 41 49 53 55 54 56 54 50 49 47
29 24 23 23 20 21 24 30 31 32 34 38 40 44 46 50 55 59 60 62 63 64 65 64 63 63 63 63 63 62 56 50 41 41 47 55 56 59 58 62 58 51 53 51
24 22 22 24 25 24 31 33 35 34 39 43 45 48 51 55 56 56 55 55 53 49 49 51 52 53 53 54 52 50 47 42 39 46 54 62 61 61 62 65 65 54 55 53
22 24 26 28 29 32 35 38 40 41 45 49 50 52 52 50 48 47 47 44 41 39 39 39 40 41 40 40 40 39 38 38 41 47 60 66 62 62 63 65 73 63 59 53
27 28 31 33 35 38 39 40 43 46 47 47 46 43 41 39 38 39 39 38 37 37 37 36 37 37 36 35 36 36 36 38 44 55 65 69 67 65 62 67 68 69 70 62
32 33 36 38 39 41 39 39 42 44 43 39 37 36 33 31 32 33 33 32 31 31 32 33 33 34 33 33 34 34 36 41 50 61 68 72 69 70 67 67 67 72 76 70
36 37 37 39 38 39 36 37 39 39 36 34 31 31 31 30 29 28 27 27 26 26 27 28 29 29 30 31 33 35 39 46 55 65 69 72 74 75 71 69 71 68 71 73
35 37 39 37 37 36 32 34 35 32 31 30 31 30 27 26 24 23 23 22 24 24 25 26 28 30 31 33 36 39 43 51 60 68 73 73 76 79 81 78 73 74 72 72
39 40 39 38 33 30 32 31 30 30 29 28 27 26 22 21 20 19 19 20 21 22 22 25 28 30 33 35 39 44 48 53 63 71 74 76 76 83 82 85 82 80 77 77

GFSCGP_250_spd_111.txt.gz
Wind_Speed
95 93 94 99 100 102 102 103 104 95 92 98 93 96 95 83 93 93 94 95 94 95 95 86 83 81 81 83 85 83 81 79 77 73 72 68 67 63 62 61 61 61 62 59
97 96 103 101 100 103 103 103 102 98 98 101 96 95 99 99 100 107 103 98 98 102 100 95 84 82 80 85 90 86 85 83 78 76 73 74 70 70 65 62 62 63 65 64
97 95 99 102 104 109 104 107 105 102 96 91 98 97 96 91 98 97 95 93 100 104 97 97 87 86 83 90 92 88 87 85 81 77 76 74 73 71 69 70 68 70 71 72
96 97 101 102 104 112 105 110 108 103 97 86 91 96 80 92 93 94 93 104 107 100 96 88 78 87 89 94 89 89 85 86 84 80 79 77 76 75 74 74 75 75 76 76
102 106 103 105 109 111 111 109 104 97 93 89 83 97 59 85 83 86 90 104 104 88 90 85 91 96 89 89 88 85 88 86 87 87 82 80 78 77 77 78 77 78 79 78
109 110 109 109 108 111 111 106 104 96 87 78 83 77 52 68 66 71 83 87 90 84 78 81 85 86 88 88 86 84 87 88 87 86 86 84 81 79 81 81 81 80 79 80
113 113 111 108 110 112 102 101 95 87 81 72 70 57 45 53 55 58 71 74 77 71 76 77 78 75 78 84 90 85 86 89 92 86 89 85 83 81 83 84 84 81 80 80
112 113 113 112 111 99 97 93 83 80 72 57 52 48 41 45 44 49 53 55 59 56 64 65 68 72 77 83 81 81 78 80 82 84 86 85 84 81 82 84 82 80 81 79
114 110 112 105 99 101 93 84 77 69 64 49 43 42 39 36 34 34 36 52 49 54 50 55 57 57 63 70 76 77 78 77 78 80 80 81 82 79 81 81 81 82 79 73
114 109 99 92 94 88 83 75 66 61 53 49 42 34 38 34 30 31 38 44 49 51 54 49 59 65 68 71 71 75 77 78 77 78 80 81 81 81 80 81 82 79 73 68
108 94 88 90 79 76 74 61 58 54 50 44 42 34 41 42 43 45 49 52 55 52 54 55 50 59 62 66 69 71 72 70 65 65 64 67 71 75 77 78 78 71 65 62
93 79 81 75 72 69 58 53 50 52 48 44 42 41 44 51 53 55 57 58 61 62 61 62 60 60 64 63 67 67 66 64 59 61 63 62 66 72 75 75 67 60 59 52
77 77 74 67 64 58 53 48 47 45 45 40 43 37 44 53 56 55 55 66 69 67 66 57 60 68 68 68 66 62 61 62 62 61 64 65 68 72 70 67 61 55 49 38
70 68 65 59 54 53 48 47 44 42 41 42 39 36 37 44 55 64 64 67 70 68 64 64 65 64 66 67 66 62 62 64 67 68 71 72 73 70 66 57 56 46 40 33
61 57 55 54 50 46 46 44 41 39 38 38 39 30 31 34 43 59 73 73 74 74 72 74 74 73 69 65 64 64 67 70 75 73 76 79 77 68 58 50 46 38 34 37
54 50 51 48 44 45 40 40 36 36 32 31 32 28 27 33 38 43 58 67 70 78 80 80 77 75 73 73 73 75 79 80 76 75 76 73 68 58 38 47 39 36 36 45
47 46 46 42 41 40 33 29 31 30 27 28 27 21 28 32 32 33 37 42 53 64 71 79 86 81 78 79 77 72 73 73 75 77 76 64 56 42 38 47 39 38 42 51
42 42 40 40 40 32 26 30 27 22 22 22 22 23 25 29 33 34 37 40 43 46 55 62 66 69 69 68 65 62 63 64 63 61 56 52 44 39 41 44 42 43 52 56
38 37 38 36 33 23 23 26 21 18 23 25 22 26 31 35 39 42 44 48 51 54 57 58 57 57 58 58 57 58 59 60 58 58 54 49 44 40 48 46 47 53 58 58
35 34 32 27 24 20 23 21 16 21 29 28 33 34 38 41 44 48 50 54 55 56 56 54 53 52 52 53 55 58 58 57 56 54 51 45 44 45 52 50 54 58 63 61
30 27 24 22 19 20 21 22 20 24 30 35 40 42 44 47 49 50 50 49 46 46 44 43 42 43 44 47 50 51 51 47 47 47 43 41 40 47 49 53 59 62 66 64
25 22 20 19 19 23 22 24 28 33 36 40 44 48 49 48 44 41 40 39 37 36 34 34 33 33 34 35 36 37 36 37 38 39 38 37 38 43 50 59 64 66 70 69
23 21 21 22 24 25 27 30 34 38 41 44 46 46 43 38 35 34 33 34 33 31 30 29 29 29 30 31 30 31 31 32 34 35 36 37 40 46 59 65 66 70 75 75
22 24 27 29 26 28 31 33 37 40 41 43 40 37 35 32 30 29 30 29 29 27 25 25 24 25 26 27 29 30 31 33 35 36 37 40 44 53 66 69 70 74 77 82
29 29 29 29 31 34 36 36 35 37 38 37 34 30 29 29 28 28 26 25 24 23 22 21 22 23 24 25 28 31 33 36 37 38 40 44 49 59 71 72 73 74 80 77
31 29 31 33 34 34 35 35 33 34 34 32 29 28 28 28 26 24 23 22 20 20 20 21 22 24 26 29 31 33 36 37 39 41 43 47 52 62 74 77 77 78 79 83

GFSCGP_250_spd_114.txt.gz
Wind_Speed
77 77 79 89 87 87 90 94 92 88 93 94 95 89 87 87 92 94 92 89 94 95 96 94 92 89 83 80 82 80 81 82 81 78 76 74 74 74 70 68 63 62 59 57
83 82 86 87 91 94 98 97 94 86 93 99 98 91 91 90 98 103 101 97 103 100 101 105 100 91 86 85 87 88 86 85 83 81 79 77 76 75 74 73 71 66 63 61
89 85 87 92 96 96 98 98 96 95 96 101 104 97 93 92 101 103 102 97 106 96 97 96 99 91 89 88 88 90 91 88 84 82 79 79 79 79 76 76 74 72 69 64
88 89 92 93 95 100 99 102 101 101 102 101 105 105 88 95 95 96 92 89 94 89 85 87 91 94 90 87 94 91 95 92 92 86 84 82 81 81 81 79 77 76 73 72
91 93 94 95 101 104 102 103 106 107 105 103 102 109 89 87 84 84 81 80 79 81 79 81 82 88 78 86 88 89 92 92 96 91 92 89 86 85 85 83 82 80 79 77
96 97 100 103 105 105 104 105 107 107 109 104 105 106 79 76 73 76 68 68 69 69 68 76 78 78 77 83 83 83 89 92 95 92 94 96 92 89 89 86 86 83 84 83
103 103 107 112 112 107 105 107 108 109 108 106 102 93 79 66 65 65 57 55 53 59 58 61 65 64 65 69 72 81 88 91 92 91 94 98 90 91 87 88 86 86 86 84
109 111 115 108 105 106 103 106 108 107 107 99 90 85 68 58 55 52 48 46 42 45 48 51 53 52 55 62 65 71 70 73 80 79 87 87 87 88 89 95 97 89 88 87
114 109 101 102 105 104 103 106 105 103 99 90 79 75 61 47 47 45 40 40 36 38 39 31 37 43 44 50 54 52 59 64 68 72 72 72 77 85 88 95 86 89 87 84
105 106 107 105 105 107 104 101 100 93 88 79 69 63 51 41 41 41 36 31 23 29 30 40 38 43 42 42 47 49 53 60 64 68 72 71 76 81 82 83 81 81 80 81
109 105 99 104 104 100 96 90 84 81 77 66 59 52 43 35 38 38 34 14 24 34 43 48 57 46 47 48 44 49 56 60 62 69 66 70 72 70 68 70 70 72 71 76
105 102 97 97 95 89 81 75 73 71 65 56 52 45 38 34 36 43 41 43 50 57 63 63 59 51 55 53 51 52 61 64 66 67 67 67 65 61 62 65 66 67 69 69
100 91 92 88 83 77 70 68 64 62 54 45 48 42 35 33 31 44 46 52 58 67 64 67 64 56 49 46 49 57 63 65 64 67 69 62 61 57 62 59 62 66 67 64
92 84 77 74 75 68 64 60 56 55 42 44 44 41 38 31 33 43 54 57 57 60 62 64 66 61 56 51 52 55 57 61 62 60 60 62 65 64 61 63 60 58 60 61
77 76 70 63 67 64 58 53 51 43 41 42 43 39 37 36 38 43 49 61 63 65 64 70 68 69 64 63 64 60 58 58 59 60 59 59 59 58 58 61 63 63 65 61
69 66 64 61 59 55 50 46 43 43 42 40 41 37 37 39 36 38 44 48 55 61 71 75 73 72 67 63 65 64 65 64 63 62 61 61 62 63 65 67 67 67 62 50
63 59 58 52 52 47 38 42 44 43 40 36 33 33 34 34 33 32 35 39 44 47 50 54 60 63 60 59 62 64 66 66 70 65 64 69 70 72 71 75 71 62 55 50
53 51 49 45 44 38 37 42 42 37 35 33 30 29 30 30 30 31 31 33 34 35 38 40 42 45 48 51 51 52 55 54 55 58 62 64 67 64 62 59 51 43 41 49
45 43 41 38 37 34 35 38 39 34 30 31 28 28 29 28 31 30 30 33 34 36 38 40 42 44 45 45 46 47 48 49 49 48 46 48 47 46 45 44 42 41 44 50
37 36 35 35 33 33 37 36 32 29 31 24 27 28 26 29 32 33 37 41 44 43 44 46 47 48 47 46 48 49 50 50 49 49 48 49 50 48 47 46 45 45 51 52
34 34 34 32 30 31 35 31 28 29 25 22 23 24 27 34 39 42 45 47 46 47 47 46 45 43 42 42 43 45 47 48 48 49 50 50 49 49 46 44 42 46 57 50
32 30 30 28 27 32 32 28 25 24 25 24 25 28 34 39 43 43 41 41 39 37 35 35 34 35 35 35 35 36 37 39 41 43 43 44 44 42 40 40 40 47 50 45
29 28 25 28 30 29 28 27 24 24 24 27 31 36 38 40 39 37 36 34 32 32 30 31 31 32 32 32 32 33 34 35 35 36 37 38 37 37 36 35 38 41 42 48
27 27 28 30 29 26 25 24 25 26 27 31 36 39 40 38 33 31 30 29 29 28 27 26 26 27 28 29 29 30 32 33 34 35 36 35 34 34 34 34 36 40 44 53
28 28 28 27 27 26 26 27 27 28 31 35 36 37 34 32 29 27 27 27 26 25 24 22 22 23 24 25 26 27 29 30 32 33 34 33 32 32 33 34 38 44 49 59
28 27 26 24 26 28 29 28 27 29 31 34 35 32 29 28 27 26 26 25 23 22 21 20 19 21 22 23 24 26 28 30 32 32 33 33 33 34 36 39 44 49 56 66

GFSCGP_250_spd_117.txt.gz
Wind_Speed
76 73 71 75 71 70 69 71 76 82 85 84 83 81 81 97 99 100 96 96 93 92 94 97 98 98 91 86 86 85 92 84 83 84 82 80 77 76 77 75 73 70 70 70
76 73 76 75 75 75 78 79 80 83 88 89 87 84 86 97 99 99 99 102 101 98 100 101 96 91 89 85 83 86 94 96 91 91 89 86 82 80 79 80 77 75 73 73
79 77 77 79 82 86 82 82 86 87 91 90 91 86 90 98 100 100 101 105 107 104 99 99 88 85 88 84 82 81 86 96 101 97 94 91 87 84 82 82 83 79 78 76
79 85 87 87 88 90 89 91 89 89 92 93 94 96 97 99 98 101 104 105 106 103 95 89 79 75 76 77 77 79 82 88 93 102 101 99 93 90 88 85 84 84 83 80
87 89 90 90 90 92 89 90 92 93 94 94 98 106 98 99 98 103 103 102 99 90 85 75 65 64 66 70 74 71 75 83 88 93 91 96 96 95 93 89 88 85 82 81
90 93 92 92 93 93 93 96 98 97 98 99 102 104 98 98 102 104 102 97 88 78 70 64 59 57 65 69 66 65 67 72 78 88 87 93 96 94 95 96 94 89 86 86
95 92 95 96 97 97 97 98 102 101 101 101 103 104 106 106 105 103 97 84 73 66 61 56 51 52 57 60 59 56 60 66 74 80 83 89 96 97 97 99 97 97 94 91
97 97 99 100 102 102 101 105 106 107 106 103 105 108 108 107 100 94 82 74 63 55 51 51 49 47 50 49 49 49 52 60 68 74 78 83 91 93 101 97 101 95 95 97
103 101 103 104 105 107 107 104 105 107 105 107 108 106 104 102 93 78 67 62 52 50 47 46 45 38 43 37 40 43 49 53 60 67 73 79 85 87 92 97 96 98 95 94
105 104 105 106 105 103 106 108 105 104 107 107 105 100 99 89 77 65 57 50 46 48 45 39 30 33 33 33 34 38 44 46 54 59 64 68 70 77 82 85 90 96 91 92
110 110 107 107 108 112 112 110 108 110 108 102 97 90 81 74 63 57 49 46 43 49 45 46 41 36 38 38 37 39 42 46 48 50 51 54 58 63 65 69 73 77 80 82
110 114 112 111 111 107 109 107 107 106 97 87 84 72 68 61 57 50 48 47 44 50 50 44 42 34 28 52 47 41 41 44 44 45 48 55 60 60 62 66 65 67 68 71
108 111 107 100 98 97 93 91 92 89 82 73 71 63 60 52 49 49 47 49 47 48 46 40 35 32 46 51 54 53 49 44 46 44 50 57 57 58 62 64 62 61 65 66
105 103 97 94 90 85 82 80 84 78 67 65 60 54 49 48 49 50 47 48 45 48 49 50 51 49 52 60 62 62 63 46 54 54 55 58 62 60 62 66 65 66 67 66
96 94 88 86 82 79 73 72 74 69 59 57 52 46 45 49 47 46 44 44 46 51 55 56 64 63 65 68 67 67 61 54 52 62 60 64 62 68 68 69 70 70 73 69
79 80 79 75 74 73 70 67 65 62 55 49 45 44 46 46 46 43 42 44 47 51 56 61 73 71 72 67 65 67 69 63 66 63 59 61 62 67 68 66 65 66 70 70
75 75 74 69 68 67 61 58 57 52 48 43 41 44 46 44 43 42 41 41 44 50 56 64 65 70 67 69 65 65 63 61 60 61 63 66 63 61 59 59 63 65 64 66
68 68 69 65 62 56 49 48 48 47 42 40 39 43 42 41 39 39 40 38 38 42 47 51 58 64 63 62 66 69 70 69 59 60 64 66 68 65 63 64 64 64 63 64
61 60 55 50 49 43 39 42 44 42 36 37 42 40 38 37 37 37 34 35 34 35 38 40 45 47 48 50 50 49 49 49 46 44 46 48 49 48 49 52 53 56 58 58
58 51 45 43 40 34 40 41 39 35 34 40 37 35 35 35 35 34 34 34 35 37 39 41 44 46 46 44 44 44 44 45 46 46 45 44 45 44 45 45 45 45 46 47
49 45 41 38 34 33 38 37 34 34 39 33 32 31 31 31 31 33 36 36 37 40 42 40 41 43 45 46 45 45 45 45 46 46 47 48 49 48 47 46 46 46 46 47
40 36 36 33 30 35 39 32 32 34 33 27 28 30 31 32 32 33 35 38 41 41 40 39 39 38 38 39 38 38 39 39 40 40 42 42 43 44 45 44 45 44 43 43
32 34 33 30 34 34 31 29 32 30 28 29 30 31 31 32 34 36 37 37 35 35 33 32 32 33 33 33 34 35 35 36 36 35 36 36 36 36 36 37 36 36 37 38
30 31 30 30 32 31 30 31 29 29 30 31 28 29 32 34 36 35 36 32 30 28 29 30 30 30 30 30 30 31 31 31 31 32 32 33 33 33 33 34 34 34 35 36
28 29 30 31 30 29 31 30 28 28 26 27 29 31 33 34 34 31 28 27 27 25 25 25 24 25 24 25 25 25 25 26 27 29 30 32 32 33 34 34 34 35 34 35
30 28 28 28 30 32 31 30 29 26 27 30 30 29 33 35 31 28 25 25 24 24 22 21 21 20 20 20 21 22 23 24 25 27 29 30 32 33 35 35 36 37 38 39

GFSCGP_250_spd_120.txt.gz
Wind_Speed
80 77 76 78 73 72 72 67 65 67 66 62 62 61 71 76 79 82 87 89 89 90 91 93 96 99 95 94 91 88 88 88 89 88 92 92 90 95 94 93 85 81 79 75
78 77 80 77 74 72 72 71 69 68 71 70 69 72 80 81 84 86 89 92 94 95 96 98 100 100 96 94 93 93 91 92 94 94 92 93 96 93 99 99 92 86 83 79
82 81 82 81 80 78 76 76 77 75 77 80 80 79 82 83 86 90 94 97 97 98 100 100 99 98 95 94 94 93 91 90 91 91 87 88 91 93 99 104 102 94 88 83
83 84 83 80 80 80 78 83 83 85 85 85 85 81 83 87 91 95 97 99 101 100 101 101 101 99 96 95 92 87 84 81 81 82 82 83 88 91 96 105 105 101 94 90
86 85 83 85 85 85 83 84 86 87 87 87 87 91 84 87 91 96 95 98 100 103 105 105 104 93 88 82 80 73 71 67 70 71 74 78 83 91 92 103 110 104 104 98
90 89 88 90 89 88 87 89 89 89 91 90 91 97 87 92 96 99 99 101 103 104 103 98 96 87 80 72 68 63 62 62 61 63 67 71 75 80 92 93 105 112 106 99
93 92 93 94 93 93 93 94 94 92 93 96 96 98 94 96 98 101 103 104 105 103 101 91 85 78 71 63 58 55 54 54 55 58 61 69 70 75 85 92 97 105 109 106
95 95 96 95 95 94 94 96 98 100 100 98 98 98 99 99 101 104 105 109 107 104 93 84 74 71 64 57 49 49 46 43 48 52 58 61 67 71 76 85 91 95 102 108
99 98 98 99 99 98 97 100 104 107 105 105 104 105 104 103 106 106 105 104 99 92 83 75 67 63 57 52 49 44 39 39 41 46 53 57 60 66 74 82 84 89 92 96
99 98 99 103 103 104 106 107 107 110 112 109 107 105 103 104 103 100 96 92 88 79 74 65 60 54 53 50 51 47 42 41 47 47 50 53 59 64 71 75 79 83 86 89
105 107 106 108 108 111 111 109 109 110 109 108 104 94 92 93 89 84 81 78 75 71 65 59 52 50 50 50 50 50 43 38 37 41 46 47 56 62 63 65 66 71 77 81
111 113 111 112 112 112 114 112 109 107 103 101 98 84 86 81 76 74 74 72 67 61 59 53 49 49 50 49 49 49 44 40 39 43 46 48 52 52 52 56 59 59 60 66
113 116 116 114 114 112 108 104 102 97 95 89 90 81 75 71 68 69 70 65 61 56 50 48 48 54 53 51 52 53 49 43 41 42 43 45 46 46 46 48 51 57 58 62
117 119 116 110 107 103 95 91 88 86 82 79 80 75 63 62 62 66 64 62 58 52 48 46 49 53 58 56 53 49 52 43 48 50 47 48 46 48 47 51 51 57 62 62
112 110 107 101 95 91 84 80 78 73 72 71 68 73 61 60 59 61 62 58 53 49 46 48 49 51 61 60 60 49 50 48 56 58 57 52 48 53 53 55 58 59 56 57
104 103 98 90 84 81 76 70 67 68 67 68 68 65 60 57 56 57 56 52 48 47 46 48 49 51 56 58 59 57 52 57 61 61 59 56 50 53 58 62 58 59 59 61
98 96 90 80 77 77 72 67 71 70 67 66 64 61 58 54 51 49 49 48 45 45 46 45 46 49 52 56 60 57 60 59 60 58 57 56 59 59 55 57 62 67 67 65
92 88 82 74 72 75 69 64 67 63 61 59 58 56 52 47 46 44 46 44 44 43 40 40 43 46 49 56 59 59 60 61 65 65 62 62 64 63 63 63 61 65 66 67
86 78 70 71 67 65 58 60 60 55 51 49 49 48 45 42 42 44 41 42 40 37 38 39 40 41 45 48 51 56 59 63 63 61 68 67 62 57 54 55 57 62 62 61
73 64 63 63 63 55 51 56 52 46 39 48 44 40 39 41 40 37 39 37 35 36 36 37 38 41 42 44 45 46 49 52 54 54 53 53 54 55 54 53 50 49 51 53
66 59 57 52 47 44 50 51 46 39 44 39 35 36 37 35 35 33 33 33 36 38 39 41 44 46 47 47 48 49 50 52 52 53 54 56 57 56 55 53 50 48 49 51
58 54 49 45 41 44 49 43 42 40 36 34 35 34 32 32 30 29 31 35 39 40 42 43 42 42 42 42 42 42 43 44 44 47 47 47 47 47 47 47 47 47 48 49
45 42 42 38 40 42 40 37 35 32 31 31 30 30 29 27 27 30 34 38 40 40 40 40 37 36 36 35 35 36 37 36 36 36 37 37 37 39 40 40 40 41 42 43
36 35 35 35 37 36 35 31 31 29 29 28 28 27 26 28 31 35 35 38 39 38 34 33 33 33 33 33 33 33 33 33 33 32 33 33 34 36 37 37 37 37 38 38
32 31 34 33 32 30 28 26 26 27 26 25 25 26 28 31 32 35 35 36 35 31 30 30 31 30 29 28 28 29 29 29 30 30 30 31 32 33 34 34 35 36 37 38
30 29 28 27 27 29 28 27 26 25 25 25 27 28 29 31 34 34 34 32 29 28 27 27 27 26 23 24 25 25 25 26 28 28 28 28 29 31 33 34 36 37 38 40

GFSCGP_250_spd_123.txt.gz
Wind_Speed
70 69 75 75 71 74 73 67 64 68 67 63 67 67 67 66 64 67 69 73 73 74 78 80 81 84 84 87 91 93 95 95 96 93 93 90 86 83 84 85 86 88 89 85
76 75 76 77 77 74 72 70 74 72 73 66 64 65 64 65 69 74 77 80 83 85 88 89 89 89 92 93 97 99 100 99 97 94 95 96 96 93 89 90 90 90 91 92
80 80 80 79 78 80 79 77 77 74 72 71 67 69 66 69 75 80 84 87 89 90 90 90 91 93 95 96 98 100 99 98 98 98 96 96 96 94 94 92 92 93 95 97
83 88 87 83 84 84 82 86 83 78 76 74 73 75 73 73 76 82 87 89 90 91 92 93 96 97 98 97 99 100 99 100 100 100 91 89 90 90 91 92 90 91 96 98
93 93 91 87 88 87 86 86 86 83 79 76 77 81 78 80 81 83 87 90 92 94 97 98 99 99 98 98 99 101 100 100 95 91 83 80 79 78 82 81 83 83 88 95
98 97 94 92 92 91 88 87 86 86 86 84 85 87 77 80 84 86 89 92 97 100 100 100 100 101 103 102 102 102 95 90 82 78 70 69 67 66 68 68 72 74 81 86
100 98 96 94 96 96 91 92 91 90 90 90 89 88 82 84 88 93 96 100 102 105 105 104 104 102 98 95 94 86 87 77 66 62 61 59 58 58 60 59 62 70 73 80
104 102 99 98 99 96 95 97 97 97 95 93 89 85 87 91 96 100 103 104 106 106 104 101 99 92 86 81 77 74 75 64 55 51 53 49 51 54 57 56 64 64 67 74
106 103 101 100 99 98 97 99 99 99 98 96 94 93 93 97 103 104 104 104 103 98 94 90 85 78 74 67 65 63 60 56 48 44 46 45 46 48 52 57 58 59 63 67
104 103 101 101 99 99 101 101 101 103 103 102 101 98 99 103 107 107 102 98 92 88 86 81 76 70 68 61 56 55 54 53 47 43 44 43 45 47 50 53 55 59 62 65
107 106 103 101 100 103 104 103 104 106 109 110 108 99 102 104 104 98 93 89 85 81 79 75 72 66 61 54 50 51 50 51 50 42 44 47 44 50 53 52 51 54 60 63
109 107 106 105 104 107 108 109 109 110 112 113 113 100 101 97 89 87 83 79 77 73 71 70 65 60 56 50 48 47 46 49 50 44 43 49 49 48 51 51 51 55 59 59
112 112 110 109 108 109 109 109 110 112 115 108 106 90 85 84 80 78 75 70 66 65 67 65 62 56 52 48 47 45 45 47 51 46 44 46 50 47 49 48 53 51 50 50
118 116 115 112 112 112 111 108 109 110 102 95 87 85 77 73 72 74 68 63 61 64 64 61 56 53 49 47 47 47 46 46 50 51 52 50 55 52 49 48 52 50 49 49
120 119 117 112 113 111 108 107 102 95 88 90 77 77 72 67 67 72 68 66 63 62 60 58 53 48 46 48 47 47 47 47 50 54 53 55 57 54 50 50 50 48 49 48
118 115 112 108 109 109 104 94 85 85 83 79 77 67 68 66 67 72 69 65 62 59 58 55 50 45 45 46 47 48 47 48 51 53 57 55 58 59 52 48 52 52 52 56
113 112 110 103 102 101 94 83 79 77 76 75 73 68 64 67 68 66 63 62 59 55 53 49 44 44 43 42 43 44 45 44 50 56 55 54 58 54 52 53 55 53 49 49
104 101 100 95 96 94 82 76 75 77 74 74 67 62 62 63 62 58 57 55 52 51 47 44 43 41 38 38 39 41 42 43 43 52 53 51 56 54 55 52 51 51 54 55
94 98 98 98 94 86 67 73 75 75 69 66 64 59 57 56 53 50 50 46 46 44 42 42 39 37 35 36 36 37 38 39 41 44 50 53 56 59 60 61 60 58 57 57
98 98 97 90 86 72 61 64 70 71 56 66 57 51 50 48 46 47 43 42 39 40 40 37 35 35 35 35 36 37 38 39 40 41 43 45 50 56 60 59 58 57 55 53
89 87 86 83 70 57 54 60 62 58 53 52 49 46 44 43 41 39 37 37 38 36 34 35 35 37 38 40 41 42 43 43 43 44 45 45 46 47 49 51 51 50 49 49
75 73 72 71 62 52 53 50 50 46 47 44 43 41 40 39 37 33 35 35 32 31 32 35 37 39 42 44 44 44 42 41 41 41 43 45 46 48 49 52 53 52 52 52
62 61 60 55 49 45 46 47 43 41 40 37 37 37 35 33 32 33 31 29 29 31 34 37 40 41 40 40 39 36 35 35 34 34 35 36 38 40 42 43 44 46 46 46
53 51 48 43 42 42 41 39 36 34 35 34 34 32 30 30 31 29 27 27 29 32 36 39 40 38 34 33 32 32 32 32 31 31 31 32 33 35 37 39 40 40 41 41
39 41 40 36 36 33 32 33 32 31 30 29 29 29 29 28 26 26 27 29 31 34 36 36 35 32 30 29 30 29 28 27 27 26 26 27 28 31 33 34 36 37 38 40
34 31 31 31 29 29 29 30 28 28 28 29 29 28 25 24 24 26 29 30 31 34 33 30 28 28 27 27 27 26 24 23 24 23 24 25 26 28 30 32 35 36 38 40

GFSCGP_250_spd_126.txt.gz
Wind_Speed
62 60 63 64 60 60 63 66 64 64 68 67 66 65 66 68 67 67 66 66 67 66 65 73 74 74 77 79 80 78 83 88 91 94 95 94 96 94 93 93 92 91 92 89
69 66 68 64 65 65 67 68 71 71 71 72 72 73 72 72 74 73 71 69 68 69 70 74 78 81 82 87 90 92 93 95 96 97 98 99 100 101 100 98 96 94 91 90
77 73 69 68 68 68 67 70 73 77 77 81 79 77 73 76 77 77 76 76 74 73 75 77 81 85 89 92 95 96 97 97 97 99 101 102 104 104 103 102 101 99 96 94
79 76 75 74 71 72 72 75 77 80 80 83 80 80 80 77 77 78 78 78 79 80 81 82 84 86 89 92 94 96 98 100 101 103 104 102 101 103 105 102 100 98 94 91
84 81 79 79 78 77 77 79 82 83 85 86 87 86 85 82 81 84 85 85 85 87 87 87 87 87 89 91 95 98 102 104 105 106 106 103 103 98 96 95 93 90 86 86
89 86 87 87 86 86 82 84 86 88 91 90 90 91 87 85 89 90 91 90 89 89 88 89 91 93 96 97 101 104 104 101 99 98 97 94 90 86 85 83 81 77 74 78
94 92 92 92 92 91 89 89 92 94 95 95 92 90 87 87 92 92 92 92 92 92 94 95 97 100 102 105 106 103 100 95 90 89 85 86 74 74 73 71 70 66 60 65
98 97 96 95 97 95 96 98 98 103 102 99 96 92 88 90 94 96 98 99 99 99 99 101 103 104 104 102 97 93 87 82 76 80 78 76 67 64 63 59 55 55 52 54
104 103 102 101 101 102 100 102 106 103 107 107 97 92 90 91 96 100 104 104 105 104 104 105 103 100 93 88 85 80 75 75 67 71 70 67 59 50 48 42 45 51 56 54
107 107 107 107 107 106 107 107 106 111 110 106 99 94 95 95 100 104 106 109 109 107 104 98 92 87 84 82 77 70 66 65 62 65 63 59 49 41 42 40 48 52 56 59
111 111 110 108 110 111 110 113 111 113 111 107 102 101 98 100 103 107 109 109 109 105 95 91 85 80 76 76 72 65 58 59 57 59 56 53 44 38 38 39 46 53 57 62
117 115 113 114 115 116 115 114 114 112 110 106 108 104 106 105 106 107 107 105 100 94 88 81 74 72 73 72 65 58 55 53 53 52 50 49 40 39 40 43 47 48 52 55
116 116 117 117 117 116 116 114 112 110 110 108 114 109 105 104 99 101 99 95 93 86 77 71 69 68 67 66 60 56 52 51 47 46 45 46 42 42 42 45 46 54 52 49
118 118 116 112 113 113 111 111 111 112 112 115 115 114 106 101 95 96 92 89 85 83 72 68 65 63 64 63 54 49 48 47 42 41 43 44 45 47 46 46 51 56 58 53
117 114 115 111 111 114 115 116 115 115 116 118 108 107 96 103 92 88 84 80 77 77 72 69 62 60 58 54 50 46 44 44 42 40 43 44 48 49 52 52 52 53 57 57
120 116 118 115 117 119 121 119 118 120 119 115 106 93 99 92 87 82 81 74 73 71 71 71 62 56 53 49 44 42 42 43 44 42 42 45 46 51 50 54 57 53 55 57
121 122 123 121 122 125 126 118 121 119 111 107 100 91 87 83 83 77 74 71 70 68 67 63 59 51 48 43 40 41 43 43 43 42 43 43 46 49 54 55 60 59 57 58
127 128 131 127 127 130 124 120 117 112 104 96 89 81 81 80 78 72 70 67 66 62 60 57 52 47 42 39 39 41 40 38 38 37 38 40 44 47 52 54 57 57 57 55
129 130 131 130 123 119 117 108 100 95 85 83 83 78 75 78 73 65 66 61 57 55 54 48 44 40 39 38 39 36 34 34 33 33 34 35 37 41 46 53 56 57 57 54
117 120 121 114 111 103 95 93 86 86 65 75 79 77 75 71 61 59 59 52 49 48 45 41 39 36 38 38 35 32 32 31 32 33 34 35 36 36 38 42 48 53 55 55
110 108 104 102 98 90 85 78 75 70 68 64 69 70 68 61 56 52 48 44 42 41 39 37 36 37 36 34 33 32 32 32 33 35 36 38 39 41 41 40 41 42 43 46
90 93 88 85 79 72 74 71 71 69 59 59 61 59 57 53 48 44 40 37 37 36 34 35 36 32 31 32 33 35 35 35 34 33 34 35 36 38 40 42 44 42 42 42
70 74 73 71 69 69 66 66 64 58 56 53 47 47 47 43 39 36 34 33 31 31 33 32 29 29 31 33 36 36 36 33 31 30 29 30 31 32 34 36 38 41 42 43
63 63 62 63 59 61 61 60 56 55 52 45 43 42 39 35 33 32 30 29 30 30 28 27 28 31 33 35 35 34 31 30 30 29 27 27 27 29 31 33 36 38 40 42
54 56 53 51 55 53 51 51 51 51 46 42 40 34 32 31 29 28 28 28 27 25 25 27 31 33 34 32 31 30 30 30 28 26 23 22 23 24 26 28 31 33 35 37
44 44 42 46 45 43 41 40 41 38 37 34 29 28 29 28 27 28 27 24 24 25 26 29 32 33 32 30 29 29 29 27 25 22 21 22 22 23 24 26 29 31 34 36

GFSCGP_250_spd_129.txt.gz
Wind_Speed
58 55 59 61 57 59 57 59 60 62 62 57 61 61 60 59 62 64 69 72 73 73 73 75 75 74 72 72 71 73 76 79 84 85 87 90 90 87 89 91 96 100 101 100
61 57 58 59 62 64 65 65 65 68 68 66 67 64 63 65 66 69 73 76 78 76 76 79 76 75 76 76 78 78 80 81 84 87 91 95 98 100 103 106 106 107 105 103
69 65 59 63 65 65 66 68 71 70 70 69 70 68 69 64 69 75 78 79 78 80 81 81 81 81 81 81 82 83 85 86 88 90 93 97 102 106 106 108 108 108 107 106
71 69 65 68 68 69 67 69 72 75 73 72 68 67 73 75 72 78 80 80 82 86 88 87 85 85 86 87 88 89 90 90 91 93 95 96 97 99 102 104 106 108 109 110
75 76 70 75 77 74 76 73 76 76 80 79 79 81 80 80 78 81 83 85 88 89 91 90 89 89 89 88 88 89 91 92 95 97 98 99 102 105 106 107 110 114 109 107
80 76 78 80 78 77 78 79 81 83 84 83 88 89 82 88 84 90 92 92 91 96 96 92 91 92 94 95 96 97 98 99 101 102 104 106 106 107 108 107 104 99 97 94
85 83 84 82 82 81 81 84 84 85 90 90 93 91 87 92 91 97 97 98 101 99 102 97 95 98 100 101 102 101 102 103 104 104 102 100 95 90 86 86 85 82 83 80
92 91 91 88 88 90 87 89 92 93 94 91 96 91 95 99 98 102 103 103 107 110 103 99 102 105 107 107 106 103 101 100 96 91 86 83 80 75 76 76 74 73 72 68
99 100 95 94 96 94 93 94 93 96 95 97 97 99 101 98 101 104 107 112 111 109 105 104 107 108 108 106 103 98 94 91 88 83 78 73 70 65 68 68 66 63 60 58
105 109 102 101 101 101 99 97 101 105 98 103 100 101 102 102 103 109 112 113 114 109 108 109 112 112 107 101 96 91 88 84 78 71 69 65 64 61 62 60 57 52 48 45
109 113 110 105 106 108 110 109 106 104 103 104 105 105 107 109 109 112 116 113 108 108 111 114 115 108 102 95 90 86 82 79 73 64 62 58 58 57 59 54 50 45 43 40
119 114 114 111 113 113 113 107 111 111 107 110 109 104 113 110 113 109 106 106 110 113 115 115 107 102 97 90 83 78 74 72 69 60 58 57 57 54 53 50 45 42 38 36
121 119 117 115 118 118 115 113 113 114 110 105 110 107 109 109 108 109 109 109 112 115 116 111 102 95 89 83 78 72 70 69 69 63 58 54 53 51 49 46 41 41 40 39
121 120 123 122 118 120 117 113 117 112 111 107 108 108 110 110 114 117 111 113 116 115 113 107 98 93 88 79 72 68 65 64 61 57 54 52 49 47 45 43 41 43 42 42
119 119 120 119 118 120 118 116 114 113 113 115 111 115 112 116 119 122 112 114 121 117 109 99 95 90 85 77 67 62 57 56 54 54 50 47 44 41 43 42 43 45 46 43
125 125 124 122 119 121 123 118 114 118 115 117 119 117 114 118 121 122 121 121 118 106 97 94 91 84 77 71 64 60 56 53 50 47 45 43 41 39 43 44 45 47 49 49
130 130 128 128 127 127 128 113 122 121 119 120 122 119 116 121 124 122 123 118 105 96 92 89 82 77 70 64 58 55 51 47 43 41 41 42 42 41 42 45 46 49 50 52
134 133 134 131 130 133 125 122 122 122 122 121 124 123 121 124 123 122 114 102 96 92 88 81 75 69 62 54 52 49 44 41 39 40 41 41 40 38 38 42 47 50 53 55
132 132 135 136 135 133 131 124 125 127 121 120 125 124 123 119 108 105 97 91 88 83 74 69 64 57 51 48 46 43 38 37 39 40 39 37 36 35 35 37 42 47 51 56
126 131 136 134 133 131 124 125 126 122 112 120 117 112 107 97 95 90 87 84 75 67 63 58 53 47 43 43 39 37 37 38 39 37 36 36 35 35 35 35 36 40 45 47
115 118 121 123 123 120 116 117 110 110 103 99 100 95 89 87 83 80 74 70 61 57 53 49 43 40 39 36 35 36 37 37 34 32 34 35 37 39 40 40 39 39 39 42
100 102 102 106 108 105 104 102 98 96 95 91 86 83 79 78 73 69 64 58 54 49 45 40 38 36 33 33 34 35 33 33 33 34 35 35 35 36 37 38 39 39 40 41
85 89 89 88 90 88 86 82 83 83 79 77 74 71 68 65 60 58 56 53 46 41 38 36 33 31 32 32 30 30 32 34 34 32 30 29 29 30 32 32 34 35 37 39
72 76 74 77 72 73 75 71 69 68 66 67 62 59 56 52 51 49 47 43 38 35 33 31 30 30 29 28 28 32 33 32 30 28 27 27 28 28 29 30 32 34 36 37
66 64 64 63 63 65 64 61 60 57 57 55 52 50 46 46 43 41 39 35 32 31 29 28 28 27 26 28 30 32 31 28 27 26 26 27 28 28 27 27 29 30 33 35
55 56 54 55 54 54 54 53 50 50 49 47 44 42 39 37 33 34 32 30 29 27 28 27 25 24 26 29 31 30 28 26 26 26 26 27 24 23 23 24 25 28 30 33

GFSCGP_250_spd_132.txt.gz
Wind_Speed
70 66 64 63 60 56 56 55 51 53 57 48 50 61 63 64 65 56 67 65 66 66 66 67 69 70 70 72 70 73 74 78 76 74 75 76 82 84 83 84 87 88 89 93
64 63 69 64 61 56 56 56 54 53 54 56 53 54 55 60 61 61 68 66 66 66 71 75 77 77 77 76 77 77 80 82 82 79 79 81 84 84 86 87 89 92 94 95
63 65 69 68 64 62 65 65 68 64 61 61 57 56 58 58 61 63 68 71 76 78 78 80 80 80 80 81 82 81 84 85 88 83 80 82 84 86 90 91 94 94 96 97
70 69 68 71 71 70 68 65 66 62 66 66 67 66 65 65 67 64 72 79 81 80 83 83 83 84 86 85 87 90 90 91 94 93 91 91 92 93 93 96 100 99 100 98
70 72 74 70 72 72 69 69 68 67 68 69 68 71 66 74 71 71 74 79 84 87 87 88 89 91 89 91 92 95 96 99 99 96 98 101 102 101 99 100 100 102 104 106
76 79 75 78 75 79 76 70 72 70 71 67 70 77 68 81 81 77 76 81 84 88 90 93 94 96 96 95 98 101 104 106 102 101 105 107 105 100 94 92 91 94 96 99
84 84 81 80 82 81 77 76 78 79 77 69 78 81 75 79 83 86 84 84 90 91 93 96 98 97 98 101 105 108 107 102 104 108 109 106 100 93 86 82 79 78 81 86
94 89 86 84 81 83 83 83 81 85 85 83 84 81 84 85 84 90 94 89 93 94 97 98 96 99 105 109 111 109 104 108 110 110 108 101 92 87 81 74 70 68 70 76
96 91 94 90 85 87 84 83 88 89 89 91 90 92 95 91 90 92 94 99 94 97 99 103 108 109 108 107 105 106 110 110 111 108 102 93 86 81 73 67 64 61 62 65
101 101 95 93 91 91 95 91 93 96 94 96 91 95 97 101 96 99 102 101 101 105 106 107 104 104 103 107 109 111 111 111 108 102 93 87 81 77 69 65 60 58 57 57
107 105 104 103 92 96 98 103 101 103 99 102 100 99 100 102 106 107 108 110 111 110 109 107 105 107 110 111 113 109 111 107 102 92 85 81 77 72 66 63 60 58 57 53
113 116 112 106 103 103 107 106 110 109 106 107 105 103 105 109 110 112 111 112 109 112 110 108 108 112 114 113 110 113 111 108 97 86 82 79 73 69 63 61 59 57 55 49
113 116 116 112 110 107 114 111 113 113 113 112 113 101 107 113 114 117 117 115 109 112 112 114 114 115 115 115 113 113 112 102 90 84 80 74 68 66 63 59 55 51 48 46
124 121 113 112 110 116 117 112 113 114 117 109 112 109 108 111 116 116 116 120 116 111 118 117 119 117 119 117 116 116 107 97 87 82 75 66 62 60 57 54 52 48 45 42
124 125 126 123 117 119 122 119 116 115 114 116 109 116 109 112 117 115 117 121 119 118 121 121 120 120 121 116 114 107 100 91 85 76 68 61 57 54 51 49 44 43 43 41
139 134 129 126 128 124 124 121 118 118 117 117 114 113 114 116 115 118 120 123 120 119 124 127 123 120 117 114 107 99 91 85 76 67 60 56 53 49 45 43 39 39 41 41
145 140 137 132 130 131 132 123 123 121 120 123 124 118 118 121 122 124 128 122 123 121 126 122 121 117 114 109 98 90 83 75 66 57 53 51 47 43 41 40 38 38 41 42
142 141 138 136 137 138 130 132 125 124 123 125 129 128 127 125 128 131 129 126 124 125 124 121 115 110 104 95 84 78 72 62 54 50 48 46 42 40 38 38 40 39 40 42
124 129 134 134 137 135 134 129 130 131 130 125 132 129 129 130 133 131 127 129 126 123 118 109 102 99 89 80 74 67 58 52 47 46 43 41 39 37 37 38 38 39 39 41
109 111 117 123 130 128 123 130 132 133 130 131 133 132 132 131 128 125 119 120 117 109 101 98 92 85 76 69 64 54 49 44 43 40 38 38 38 38 39 40 40 40 40 40
99 103 107 110 113 113 107 114 120 120 116 126 126 120 115 116 114 110 106 100 98 95 91 87 80 71 65 58 50 46 42 40 38 37 36 37 38 39 41 42 43 42 42 43
88 91 93 97 100 98 98 99 102 101 101 99 100 100 99 97 97 95 94 92 89 82 78 73 67 59 51 46 41 39 38 36 35 35 35 37 39 40 41 40 41 41 41 40
78 82 86 86 86 86 86 88 89 90 89 86 85 84 85 84 83 82 80 78 73 71 66 60 54 46 42 39 36 34 33 33 33 33 34 35 35 34 34 33 34 34 35 35
69 71 70 76 72 75 72 73 74 76 73 72 74 71 71 72 72 71 70 68 64 59 55 49 43 40 37 34 32 31 31 31 31 32 32 31 30 30 30 28 29 30 32 33
63 64 64 63 64 66 63 63 65 64 67 64 60 61 63 63 61 60 62 59 54 49 44 41 39 36 33 30 29 28 29 30 31 29 29 28 27 26 26 26 27 27 28 30
58 58 57 54 59 60 60 57 59 61 60 57 56 57 56 58 54 50 49 47 45 41 37 37 33 32 30 27 25 25 28 30 29 27 26 25 24 24 25 24 25 25 26 27

GFSCGP_250_spd_135.txt.gz
Wind_Speed
70 64 62 64 62 66 61 59 59 61 61 54 53 54 51 55 49 48 45 40 51 43 48 54 56 56 59 59 66 70 72 74 75 78 81 79 77 79 80 83 82 83 82 78
60 54 61 63 61 59 61 60 59 60 61 57 50 48 48 56 60 57 55 61 62 58 56 57 58 61 66 66 69 73 75 76 79 83 85 85 85 85 86 89 91 89 84 85
68 61 66 62 62 61 58 57 63 57 62 58 57 55 54 60 60 57 55 60 61 64 61 61 65 66 69 72 75 78 79 82 84 86 87 88 89 92 96 98 93 91 91 93
66 71 70 70 65 66 61 61 67 61 59 63 66 55 57 61 65 62 63 64 65 66 67 71 71 70 73 75 76 80 83 85 87 88 89 92 101 104 100 96 95 99 103 106
70 74 74 73 72 70 65 64 66 65 64 67 67 65 56 66 64 61 61 62 63 72 71 71 72 76 76 78 80 83 85 89 89 91 96 104 102 98 99 101 105 107 106 104
78 81 80 78 78 75 77 71 67 67 71 69 68 73 60 71 71 65 69 69 72 73 75 75 77 78 81 83 84 85 89 92 93 100 104 103 103 106 107 108 108 106 100 89
90 86 89 87 83 80 80 75 73 74 77 70 76 82 67 73 74 72 71 75 80 80 81 83 85 85 86 87 89 92 94 97 101 104 105 105 108 110 109 109 105 100 88 77
95 88 90 91 86 86 85 82 79 80 80 76 77 77 73 74 74 75 75 79 85 86 86 87 87 87 90 91 95 96 100 102 106 106 106 109 112 111 109 105 100 90 77 70
103 97 93 93 93 90 86 83 82 88 86 81 79 81 81 81 82 82 82 84 88 91 91 93 97 95 96 99 101 104 106 108 106 108 109 112 112 110 106 100 92 80 72 67
105 101 96 96 99 94 95 91 93 94 91 90 83 83 87 88 88 90 92 92 92 94 98 98 97 99 102 105 107 108 110 108 110 111 112 113 112 109 100 94 84 74 69 66
103 107 96 104 99 97 99 99 99 100 98 93 90 89 89 95 97 100 100 97 99 101 104 103 103 106 108 108 111 114 110 111 112 115 115 114 112 105 96 87 78 72 67 62
116 118 107 102 105 104 104 105 107 105 99 101 98 95 93 96 106 107 105 103 105 106 110 110 110 111 111 114 111 113 114 114 116 118 116 115 110 101 90 80 72 67 64 59
120 121 117 111 108 106 108 106 106 109 109 107 107 95 99 105 108 108 110 110 111 111 113 114 113 113 114 115 114 115 116 118 120 120 119 113 103 92 81 73 66 63 60 56
123 119 118 109 105 104 106 104 108 115 119 108 107 105 99 105 109 110 110 112 115 113 114 117 115 113 113 115 118 120 120 122 123 122 113 107 96 86 74 66 59 55 53 51
115 117 116 117 112 111 106 106 103 109 108 110 100 108 106 108 113 116 117 112 113 114 117 120 121 119 119 123 124 124 125 125 121 115 110 98 86 75 67 61 55 50 48 44
119 117 121 122 106 116 117 101 99 110 111 119 113 108 109 111 117 123 122 125 121 117 120 126 127 124 121 129 127 125 128 122 116 110 96 87 77 67 62 54 50 46 42 38
138 136 136 136 135 126 124 115 113 106 110 116 117 116 118 120 121 124 124 123 122 122 126 128 129 132 133 130 129 128 122 116 102 95 86 77 68 62 56 48 45 41 38 38
138 145 150 147 146 148 135 125 125 126 123 127 134 134 135 134 132 133 132 128 127 126 127 131 133 133 132 131 124 121 109 98 91 83 74 66 61 55 49 43 39 38 38 37
116 125 133 138 144 146 144 139 143 142 143 143 144 144 140 136 139 135 133 129 125 124 127 131 131 130 130 124 116 105 96 82 77 70 64 59 54 48 44 40 39 37 37 36
103 105 111 116 122 124 121 126 128 129 125 125 124 122 121 119 123 122 124 127 127 125 125 125 122 119 116 107 100 90 75 72 66 62 57 52 47 44 41 39 38 37 37 38
92 96 99 103 107 107 106 110 113 115 111 114 112 110 108 106 107 107 110 112 113 111 108 104 101 99 95 91 82 72 68 63 58 55 48 44 42 40 38 39 39 40 40 41
82 85 89 93 95 95 96 100 101 103 99 96 98 98 98 99 98 97 97 96 95 92 90 89 87 85 83 77 69 62 58 54 51 45 41 40 38 38 39 40 41 40 40 40
71 79 79 83 86 81 83 85 86 86 86 84 82 83 84 85 84 83 83 83 83 82 81 80 77 74 70 63 57 53 51 47 41 39 37 36 36 38 39 37 35 34 33 34
70 73 74 73 71 71 71 73 74 74 76 73 72 72 73 73 73 73 73 73 74 74 71 69 67 64 58 55 50 47 43 38 37 35 34 34 36 36 35 33 32 31 30 30
71 73 64 60 64 64 63 62 61 63 62 61 62 64 63 62 64 64 64 64 65 64 61 59 59 55 52 48 44 40 36 34 34 33 32 33 35 32 32 31 29 29 28 26
64 53 49 51 56 52 53 53 54 53 52 54 57 56 56 54 56 57 56 56 56 54 52 54 51 49 45 43 36 34 32 31 30 31 31 31 30 29 29 28 27 26 26 26